[[{"header":{"parameterUnit":"m.s-1","parameterCategory":1,"la1":31.0,"la2":29.5877,"lo1":-88.7671,"lo2":-86.6584,"dy":0.0162,"dx":0.0185,"nx":115,"ny":88,"refTime":"2023-03-07T18:00:00:Z","depth":0,"parameterNumber":2,"parameterNumberName":"U-component_of_WINDS"},"data":[0.0,0.0,0.0,0.0,0.0,0.0,0.0,0.0,0.0,0.0,0.0,0.0,0.0,0.0,0.0,0.0,0.0,0.0,0.0,0.0,0.0,0.0,0.0,0.0,0.0,0.0,0.0,0.0,0.0,0.0,0.0,0.0,0.0,0.0,0.0,0.0,0.0,0.0,0.0,0.0,0.0,0.0,0.0,0.0,0.0,0.0,0.0,0.0,0.0,0.0,0.0,0.0,0.0,0.0,0.0,0.0,0.0,0.0,0.0,0.0,0.0,0.0,0.0,0.0,0.0,0.0,0.0,0.0,0.0,0.0,0.0,0.0,0.0,0.0,0.0,0.0,0.0,0.0,0.0,0.0,0.0,0.0,0.0,0.0,0.0,0.0,0.0,0.0,0.0,0.0,0.0,0.0,0.0,0.0,0.0,0.0,0.0,0.0,0.0,0.0,0.0,0.0,0.0,0.0,0.0,0.0,0.0,0.0,0.0,0.0,0.0,0.0,0.0,0.0,0.0,0.0,0.0,0.0,0.0,0.0,0.0,0.0,0.0,0.0,0.0,0.0,0.0,0.0,0.0,0.0,0.0,0.0,0.0,0.0,0.0,0.0,0.0,0.0,0.0,0.0,0.0,0.0,0.0,0.0,0.0,0.0,0.0,0.0,0.0,0.0,0.0,0.0,0.0,0.0,0.0,0.0,0.0,0.0,0.0,0.0,0.0,0.0,0.0,0.0,0.0,0.0,0.0,0.0,0.0,0.0,0.0,0.0,0.0,0.0,0.0,0.0,0.0,0.0,0.0,0.0,0.0,0.0,0.0,0.0,0.0,0.0,0.0,0.0,0.0,0.0,0.0,0.0,0.0,0.0,0.0,0.0,0.0,0.0,0.0,0.0,0.0,0.0,0.0,0.0,0.0,0.0,0.0,0.0,0.0,0.0,0.0,0.0,0.0,0.0,0.0,0.0,0.0,0.0,0.0,0.0,0.0,0.0,0.0,0.0,0.0,0.0,0.0,0.0,0.0,0.0,0.0,0.0,0.0,0.0,0.0,0.0,0.0,0.0,0.0,0.0,0.0,0.0,0.0,0.0,0.0,0.0,0.0,0.0,0.0,0.0,0.0,0.0,0.0,0.0,0.0,0.0,0.0,0.0,0.0,0.0,0.0,0.0,0.0,0.0,0.0,0.0,0.0,0.0,0.0,0.0,0.0,0.0,0.0,0.0,0.0,0.0,0.0,0.0,0.0,0.0,0.0,0.0,0.0,0.0,0.0,0.0,0.0,0.0,0.0,0.0,0.0,0.0,0.0,0.0,0.0,0.0,0.0,0.0,0.0,0.0,0.0,0.0,0.0,0.0,0.0,0.0,0.0,0.0,0.0,0.0,0.0,0.0,0.0,0.0,0.0,0.0,0.0,0.0,0.0,0.0,0.0,0.0,0.0,0.0,0.0,0.0,0.0,0.0,0.0,0.0,0.0,0.0,0.0,0.0,0.0,0.0,0.0,0.0,0.0,0.0,0.0,0.0,0.0,0.0,0.0,0.0,0.0,0.0,0.0,0.0,0.0,0.0,0.0,0.0,0.0,0.0,0.0,0.0,0.0,0.0,0.0,0.0,0.0,0.0,0.0,0.0,0.0,0.0,0.0,0.0,0.0,0.0,0.0,0.0,0.0,0.0,0.0,0.0,0.0,0.0,0.0,0.0,0.0,0.0,0.0,0.0,0.0,0.0,0.0,0.0,0.0,0.0,0.0,0.0,0.0,0.0,0.0,0.0,0.0,0.0,0.0,0.0,0.0,0.0,0.0,0.0,0.0,0.0,0.0,0.0,0.0,0.0,0.0,0.0,0.0,0.0,0.0,0.0,0.0,0.0,0.0,0.0,0.0,0.0,0.0,0.0,0.0,0.0,0.0,0.0,0.0,0.0,0.0,0.0,0.0,0.0,0.0,0.0,0.0,0.0,0.0,0.0,0.0,0.0,0.0,0.0,0.0,0.0,0.0,0.0,0.0,0.0,0.0,0.0,0.0,0.0,0.0,0.0,0.0,0.0,0.0,0.0,0.0,0.0,0.0,0.0,0.0,0.0,0.0,0.0,0.0,0.0,0.0,0.0,0.0,0.0,0.0,0.0,0.0,0.0,0.0,0.0,0.0,0.0,0.0,0.0,0.0,0.0,0.0,0.0,0.0,0.0,0.0,0.0,0.0,0.0,0.0,0.0,0.0,0.0,0.0,0.0,0.0,0.0,0.0,0.0,0.0,0.0,0.0,0.0,0.0,0.0,0.0,0.0,0.0,0.0,0.0,0.0,0.0,0.0,0.0,0.0,0.0,0.0,0.0,0.0,0.0,0.0,0.0,0.0,0.0,0.0,0.0,0.0,0.0,0.0,0.0,0.0,0.0,0.0,0.0,0.0,0.0,0.0,0.0,0.0,0.0,0.0,0.0,0.0,0.0,0.0,0.0,0.0,0.0,0.0,0.0,0.0,0.0,0.0,0.0,0.0,0.0,0.0,0.0,0.0,0.0,0.0,0.0,0.0,0.0,0.0,0.0,0.0,0.0,0.0,0.0,0.0,0.0,0.0,0.0,0.0,0.0,0.0,0.0,0.0,0.0,0.0,0.0,0.0,0.0,0.0,0.0,0.0,0.0,0.0,0.0,0.0,0.0,0.0,0.0,0.0,0.0,0.0,0.0,0.0,0.0,0.0,0.0,0.0,0.0,0.0,0.0,0.0,0.0,0.0,0.0,0.0,0.0,0.0,0.0,0.0,0.0,0.0,0.0,0.0,0.0,0.0,0.0,0.0,0.0,0.0,0.0,0.0,0.0,0.0,0.0,0.0,0.0,0.0,0.0,0.0,0.0,0.0,0.0,0.0,0.0,0.0,0.0,0.0,0.0,0.0,0.0,0.0,0.0,0.0,0.0,0.0,0.0,0.0,0.0,0.0,0.0,0.0,0.0,0.0,0.0,0.0,0.0,0.0,0.0,0.0,0.0,0.0,0.0,0.0,0.0,0.0,0.0,0.0,0.0,0.0,0.0,0.0,0.0,0.0,0.0,0.0,0.0,0.0,0.0,0.0,0.0,0.0,0.0,0.0,0.0,0.0,0.0,0.0,0.0,0.0,0.0,0.0,0.0,0.0,0.0,0.0,0.0,0.0,0.0,0.0,0.0,0.0,0.0,0.0,0.0,0.0,0.0,0.0,0.0,0.0,0.0,0.0,0.0,0.0,0.0,0.0,0.0,0.0,0.0,0.0,0.0,0.0,0.0,0.0,0.0,0.0,0.0,0.0,0.0,0.0,0.0,0.0,0.0,0.0,0.0,0.0,0.0,0.0,0.0,0.0,0.0,0.0,0.0,0.0,0.0,0.0,0.0,0.0,0.0,0.0,0.0,0.0,0.0,0.0,0.0,0.0,0.0,0.0,0.0,0.0,0.0,0.0,0.0,0.0,0.0,0.0,0.0,0.0,0.0,0.0,0.0,0.0,0.0,0.0,0.0,0.0,0.0,0.0,0.0,0.0,0.0,0.0,0.0,0.0,0.0,0.0,0.0,0.0,0.0,0.0,0.0,0.0,0.0,0.0,0.0,0.0,0.0,0.0,0.0,0.0,0.0,0.0,0.0,0.0,0.0,0.0,0.0,0.0,0.0,0.0,0.0,0.0,0.0,0.0,0.0,0.0,0.0,0.0,0.0,0.0,0.0,0.0,0.0,0.0,0.0,0.0,0.0,0.0,0.0,0.0,0.0,0.0,0.0,0.0,0.0,0.0,0.0,0.0,0.0,0.0,0.0,0.0,0.0,0.0,0.0,0.0,0.0,0.0,0.0,0.0,0.0,0.0,0.0,0.0,0.0,0.0,0.0,0.0,0.0,0.0,0.0,0.0,0.0,0.0,0.0,0.0,0.0,0.0,0.0,0.0,0.0,0.0,0.0,0.0,0.0,0.0,0.0,0.0,0.0,0.0,0.0,0.0,0.0,0.0,0.0,0.0,0.0,0.0,0.0,0.0,0.0,0.0,0.0,0.0,0.0,0.0,0.0,0.0,0.0,0.0,0.0,0.0,0.0,0.0,0.0,0.0,0.0,0.0,0.0,0.0,0.0,0.0,0.0,0.0,0.0,0.0,0.0,0.0,0.0,0.0,0.0,0.0,0.0,0.0,0.0,0.0,0.0,0.0,0.0,0.0,0.0,0.0,0.0,0.0,0.0,0.0,0.0,0.0,0.0,0.0,0.0,0.0,0.0,0.0,0.0,0.0,0.0,0.0,0.0,0.0,0.0,0.0,0.0,0.0,-4.1777,0.0,0.0,0.0,0.0,0.0,0.0,0.0,0.0,0.0,0.0,0.0,0.0,0.0,0.0,0.0,0.0,0.0,0.0,0.0,0.0,0.0,0.0,0.0,0.0,0.0,0.0,0.0,0.0,0.0,0.0,0.0,0.0,0.0,0.0,0.0,0.0,0.0,0.0,0.0,0.0,0.0,0.0,0.0,0.0,0.0,0.0,0.0,0.0,0.0,0.0,0.0,0.0,0.0,0.0,0.0,0.0,0.0,0.0,0.0,0.0,0.0,0.0,0.0,0.0,0.0,0.0,0.0,0.0,0.0,0.0,0.0,0.0,0.0,0.0,0.0,0.0,0.0,0.0,0.0,0.0,0.0,0.0,0.0,0.0,0.0,0.0,0.0,0.0,0.0,0.0,0.0,0.0,0.0,0.0,0.0,0.0,0.0,0.0,0.0,0.0,0.0,0.0,0.0,0.0,0.0,0.0,0.0,0.0,0.0,0.0,-4.5295,-4.5065,-4.407,-4.3013,-4.1914,0.0,0.0,0.0,0.0,0.0,0.0,0.0,0.0,0.0,0.0,0.0,0.0,0.0,0.0,0.0,0.0,0.0,0.0,0.0,0.0,0.0,0.0,0.0,0.0,0.0,0.0,0.0,0.0,0.0,0.0,0.0,0.0,0.0,0.0,0.0,0.0,0.0,0.0,0.0,0.0,0.0,0.0,0.0,0.0,0.0,0.0,0.0,0.0,0.0,0.0,0.0,0.0,0.0,0.0,0.0,0.0,0.0,0.0,0.0,0.0,0.0,0.0,0.0,0.0,0.0,0.0,0.0,0.0,0.0,0.0,0.0,0.0,0.0,0.0,0.0,0.0,0.0,0.0,0.0,0.0,0.0,0.0,0.0,0.0,0.0,0.0,0.0,0.0,0.0,0.0,0.0,0.0,0.0,0.0,0.0,0.0,0.0,0.0,0.0,0.0,0.0,0.0,0.0,0.0,0.0,0.0,0.0,0.0,0.0,0.0,0.0,0.0,-4.4184,-4.3072,-4.1815,0.0,0.0,0.0,0.0,0.0,0.0,0.0,0.0,0.0,0.0,0.0,0.0,0.0,0.0,0.0,0.0,0.0,0.0,0.0,0.0,0.0,0.0,0.0,0.0,0.0,0.0,0.0,0.0,0.0,0.0,0.0,0.0,0.0,0.0,0.0,0.0,0.0,0.0,0.0,0.0,0.0,0.0,0.0,0.0,0.0,0.0,0.0,0.0,0.0,0.0,0.0,0.0,0.0,0.0,0.0,0.0,0.0,0.0,0.0,0.0,0.0,0.0,0.0,0.0,0.0,0.0,0.0,0.0,0.0,0.0,0.0,0.0,0.0,0.0,0.0,0.0,0.0,0.0,0.0,0.0,0.0,0.0,0.0,0.0,0.0,0.0,0.0,0.0,0.0,0.0,0.0,0.0,0.0,0.0,0.0,0.0,0.0,0.0,0.0,0.0,0.0,0.0,0.0,0.0,0.0,0.0,0.0,0.0,0.0,0.0,-4.495,-4.4751,-4.4476,0.0,-4.1511,0.0,0.0,0.0,0.0,0.0,0.0,0.0,0.0,0.0,0.0,0.0,0.0,0.0,0.0,0.0,0.0,0.0,0.0,0.0,0.0,0.0,0.0,0.0,0.0,0.0,0.0,0.0,0.0,0.0,0.0,0.0,0.0,0.0,0.0,0.0,0.0,0.0,0.0,0.0,0.0,0.0,0.0,0.0,0.0,0.0,0.0,0.0,0.0,0.0,0.0,0.0,0.0,0.0,0.0,0.0,0.0,0.0,0.0,0.0,0.0,0.0,0.0,0.0,0.0,0.0,0.0,0.0,0.0,0.0,0.0,0.0,0.0,0.0,0.0,0.0,0.0,0.0,0.0,0.0,0.0,0.0,0.0,0.0,0.0,0.0,0.0,0.0,0.0,0.0,0.0,0.0,0.0,0.0,0.0,0.0,0.0,0.0,0.0,0.0,0.0,0.0,0.0,0.0,0.0,0.0,0.0,0.0,0.0,0.0,0.0,-4.4776,-4.4646,-4.3381,-4.2292,0.0,0.0,0.0,0.0,0.0,0.0,0.0,0.0,0.0,0.0,0.0,0.0,0.0,0.0,0.0,0.0,0.0,0.0,0.0,0.0,0.0,0.0,0.0,0.0,0.0,0.0,0.0,0.0,0.0,0.0,0.0,0.0,0.0,0.0,0.0,0.0,0.0,0.0,0.0,0.0,0.0,0.0,0.0,0.0,0.0,0.0,0.0,0.0,0.0,0.0,0.0,0.0,0.0,0.0,0.0,0.0,0.0,0.0,0.0,0.0,0.0,0.0,0.0,0.0,0.0,0.0,0.0,0.0,0.0,0.0,0.0,0.0,0.0,0.0,0.0,0.0,0.0,0.0,0.0,0.0,0.0,0.0,0.0,0.0,0.0,0.0,0.0,0.0,0.0,0.0,0.0,0.0,0.0,0.0,0.0,0.0,0.0,0.0,0.0,0.0,0.0,0.0,0.0,0.0,0.0,0.0,0.0,0.0,0.0,0.0,-4.4674,-4.45,-4.4336,-4.25,-4.1391,-4.1204,0.0,0.0,0.0,0.0,0.0,0.0,0.0,0.0,0.0,0.0,0.0,0.0,0.0,0.0,0.0,0.0,0.0,0.0,0.0,0.0,0.0,0.0,0.0,0.0,0.0,0.0,0.0,0.0,0.0,0.0,0.0,0.0,0.0,0.0,0.0,0.0,0.0,0.0,0.0,0.0,0.0,0.0,0.0,0.0,0.0,0.0,0.0,0.0,0.0,0.0,0.0,0.0,0.0,0.0,0.0,0.0,0.0,0.0,0.0,0.0,0.0,0.0,0.0,0.0,0.0,0.0,0.0,0.0,0.0,0.0,0.0,0.0,0.0,0.0,0.0,0.0,0.0,0.0,0.0,0.0,0.0,0.0,0.0,0.0,0.0,0.0,0.0,0.0,0.0,0.0,0.0,0.0,0.0,0.0,0.0,0.0,0.0,0.0,0.0,0.0,0.0,0.0,0.0,0.0,0.0,0.0,0.0,0.0,-4.4712,-4.4402,-4.414,-4.3908,-4.2163,-4.1204,0.0,0.0,0.0,0.0,0.0,0.0,0.0,0.0,0.0,0.0,0.0,0.0,0.0,0.0,0.0,0.0,0.0,0.0,0.0,0.0,0.0,0.0,0.0,0.0,0.0,0.0,0.0,0.0,0.0,0.0,0.0,0.0,0.0,0.0,0.0,0.0,0.0,0.0,0.0,0.0,0.0,0.0,0.0,0.0,0.0,0.0,0.0,0.0,0.0,0.0,0.0,0.0,0.0,0.0,0.0,0.0,0.0,0.0,0.0,0.0,0.0,0.0,0.0,0.0,0.0,0.0,0.0,0.0,0.0,0.0,0.0,0.0,0.0,0.0,0.0,0.0,0.0,0.0,0.0,0.0,0.0,0.0,0.0,0.0,0.0,0.0,0.0,0.0,0.0,0.0,0.0,0.0,0.0,0.0,0.0,0.0,0.0,0.0,0.0,0.0,0.0,0.0,0.0,0.0,0.0,0.0,0.0,0.0,0.0,-4.4388,-4.414,-4.3892,-4.3644,-4.2067,-4.1172,0.0,0.0,0.0,0.0,0.0,0.0,0.0,0.0,0.0,0.0,0.0,0.0,0.0,0.0,0.0,0.0,0.0,0.0,0.0,0.0,0.0,0.0,0.0,0.0,0.0,0.0,0.0,0.0,0.0,0.0,0.0,0.0,0.0,0.0,0.0,0.0,0.0,0.0,0.0,0.0,0.0,0.0,0.0,0.0,0.0,0.0,0.0,0.0,0.0,0.0,0.0,0.0,0.0,0.0,0.0,0.0,0.0,0.0,0.0,0.0,0.0,0.0,0.0,0.0,0.0,0.0,0.0,0.0,0.0,0.0,0.0,0.0,0.0,0.0,0.0,0.0,0.0,0.0,0.0,0.0,0.0,0.0,0.0,0.0,0.0,0.0,0.0,0.0,0.0,0.0,0.0,0.0,0.0,0.0,0.0,0.0,0.0,0.0,0.0,0.0,0.0,0.0,0.0,0.0,0.0,0.0,0.0,0.0,0.0,-4.3996,0.0,-4.3734,-4.351,-4.2002,-4.1123,0.0,0.0,0.0,0.0,0.0,0.0,0.0,0.0,0.0,0.0,0.0,0.0,0.0,0.0,0.0,0.0,0.0,0.0,0.0,0.0,0.0,0.0,0.0,0.0,0.0,0.0,0.0,0.0,0.0,0.0,0.0,0.0,0.0,0.0,0.0,0.0,0.0,0.0,0.0,0.0,0.0,0.0,0.0,0.0,0.0,0.0,0.0,0.0,0.0,0.0,0.0,0.0,0.0,0.0,0.0,0.0,0.0,0.0,0.0,0.0,0.0,0.0,0.0,0.0,0.0,0.0,0.0,0.0,0.0,0.0,0.0,0.0,0.0,0.0,0.0,0.0,0.0,0.0,0.0,0.0,0.0,0.0,0.0,0.0,0.0,0.0,0.0,0.0,0.0,0.0,0.0,0.0,0.0,0.0,0.0,0.0,0.0,0.0,0.0,0.0,0.0,0.0,0.0,0.0,0.0,0.0,0.0,0.0,-4.38,-4.3634,-4.3634,-4.3583,-4.3478,-4.1992,-4.1132,0.0,0.0,0.0,0.0,0.0,0.0,0.0,0.0,0.0,0.0,0.0,0.0,0.0,0.0,0.0,0.0,0.0,0.0,0.0,0.0,0.0,0.0,0.0,0.0,0.0,0.0,0.0,0.0,0.0,0.0,0.0,0.0,0.0,0.0,0.0,0.0,0.0,0.0,0.0,0.0,0.0,0.0,0.0,0.0,0.0,0.0,0.0,0.0,0.0,0.0,0.0,0.0,0.0,0.0,0.0,0.0,0.0,0.0,0.0,0.0,0.0,0.0,0.0,0.0,0.0,0.0,0.0,0.0,0.0,0.0,0.0,0.0,0.0,0.0,0.0,0.0,0.0,0.0,0.0,0.0,0.0,0.0,0.0,0.0,0.0,0.0,0.0,0.0,0.0,0.0,0.0,0.0,0.0,0.0,0.0,0.0,0.0,0.0,0.0,0.0,0.0,0.0,0.0,0.0,0.0,0.0,0.0,0.0,0.0,-4.4427,-4.3823,-4.3789,-4.4268,-4.2763,-4.1662,0.0,0.0,0.0,0.0,0.0,0.0,0.0,0.0,0.0,0.0,0.0,0.0,0.0,0.0,0.0,0.0,0.0,0.0,0.0,0.0,0.0,0.0,0.0,0.0,0.0,0.0,0.0,0.0,0.0,0.0,0.0,0.0,0.0,0.0,0.0,0.0,0.0,0.0,0.0,0.0,0.0,0.0,0.0,0.0,0.0,0.0,0.0,0.0,0.0,0.0,0.0,0.0,0.0,0.0,0.0,0.0,0.0,0.0,0.0,0.0,0.0,0.0,0.0,0.0,0.0,0.0,0.0,0.0,0.0,0.0,0.0,0.0,0.0,0.0,0.0,0.0,0.0,0.0,0.0,0.0,0.0,0.0,0.0,0.0,0.0,0.0,0.0,0.0,0.0,0.0,0.0,0.0,0.0,0.0,0.0,0.0,0.0,0.0,0.0,0.0,0.0,0.0,0.0,0.0,0.0,0.0,0.0,0.0,0.0,-4.5184,-4.4671,-4.4488,-4.4709,-4.3424,-4.2359,-4.1552,0.0,0.0,0.0,0.0,0.0,0.0,0.0,0.0,0.0,0.0,0.0,0.0,0.0,0.0,0.0,0.0,0.0,0.0,0.0,0.0,0.0,0.0,0.0,0.0,0.0,0.0,0.0,0.0,0.0,0.0,0.0,0.0,0.0,0.0,0.0,0.0,0.0,0.0,0.0,0.0,0.0,0.0,0.0,0.0,0.0,0.0,0.0,0.0,0.0,0.0,0.0,0.0,0.0,0.0,0.0,0.0,0.0,0.0,0.0,0.0,0.0,0.0,0.0,0.0,0.0,0.0,0.0,0.0,0.0,0.0,0.0,0.0,0.0,0.0,0.0,0.0,0.0,0.0,0.0,0.0,0.0,0.0,0.0,0.0,0.0,0.0,0.0,0.0,0.0,0.0,0.0,0.0,0.0,0.0,0.0,0.0,0.0,0.0,0.0,0.0,0.0,0.0,0.0,0.0,0.0,0.0,0.0,0.0,-4.5883,-4.5993,-4.5663,-4.4892,-4.4011,-4.3167,0.0,0.0,0.0,0.0,0.0,0.0,0.0,0.0,0.0,0.0,0.0,0.0,0.0,0.0,0.0,0.0,0.0,0.0,0.0,0.0,0.0,0.0,0.0,0.0,0.0,0.0,0.0,0.0,0.0,0.0,0.0,0.0,0.0,0.0,0.0,0.0,0.0,0.0,0.0,0.0,0.0,0.0,0.0,0.0,0.0,0.0,0.0,0.0,0.0,0.0,0.0,0.0,0.0,0.0,0.0,0.0,0.0,0.0,0.0,0.0,0.0,0.0,0.0,0.0,0.0,0.0,0.0,0.0,0.0,0.0,0.0,0.0,0.0,0.0,0.0,0.0,0.0,0.0,0.0,0.0,0.0,0.0,0.0,0.0,0.0,0.0,0.0,0.0,0.0,0.0,0.0,0.0,0.0,0.0,0.0,0.0,0.0,0.0,0.0,0.0,0.0,0.0,0.0,0.0,0.0,0.0,0.0,0.0,0.0,-4.592,-4.7058,-4.7278,-4.6489,-4.5095,-4.4011,0.0,0.0,0.0,0.0,0.0,0.0,0.0,0.0,0.0,0.0,0.0,0.0,0.0,0.0,0.0,0.0,0.0,0.0,0.0,0.0,0.0,0.0,0.0,0.0,0.0,0.0,0.0,0.0,0.0,0.0,0.0,0.0,0.0,0.0,0.0,0.0,0.0,0.0,0.0,0.0,0.0,0.0,0.0,0.0,0.0,0.0,0.0,0.0,0.0,0.0,0.0,0.0,0.0,0.0,0.0,0.0,0.0,0.0,0.0,0.0,0.0,0.0,0.0,0.0,0.0,0.0,0.0,0.0,0.0,0.0,0.0,0.0,0.0,0.0,0.0,0.0,0.0,0.0,0.0,0.0,0.0,0.0,0.0,0.0,0.0,0.0,0.0,0.0,0.0,0.0,0.0,0.0,0.0,0.0,0.0,0.0,0.0,0.0,0.0,0.0,0.0,0.0,0.0,0.0,0.0,0.0,0.0,0.0,-4.6067,-4.6379,-4.7645,-4.8067,-4.759,-4.6049,-4.4819,0.0,0.0,0.0,0.0,0.0,0.0,0.0,0.0,0.0,0.0,0.0,0.0,0.0,0.0,0.0,0.0,0.0,0.0,0.0,0.0,0.0,0.0,0.0,0.0,0.0,0.0,0.0,0.0,0.0,0.0,0.0,0.0,0.0,0.0,0.0,0.0,0.0,0.0,0.0,0.0,0.0,0.0,0.0,0.0,0.0,0.0,0.0,0.0,0.0,0.0,0.0,0.0,0.0,0.0,0.0,0.0,0.0,0.0,0.0,0.0,0.0,0.0,0.0,0.0,0.0,0.0,0.0,0.0,0.0,0.0,0.0,0.0,0.0,0.0,0.0,0.0,0.0,0.0,0.0,0.0,0.0,0.0,0.0,0.0,0.0,0.0,0.0,0.0,0.0,0.0,0.0,0.0,0.0,0.0,0.0,0.0,0.0,0.0,0.0,0.0,0.0,0.0,0.0,0.0,0.0,0.0,0.0,0.0,-4.625,-4.6966,-4.7865,-4.8306,-4.8269,-4.6801,-4.5626,0.0,0.0,0.0,0.0,0.0,0.0,0.0,0.0,0.0,0.0,0.0,0.0,0.0,0.0,0.0,0.0,0.0,0.0,0.0,0.0,0.0,0.0,0.0,0.0,0.0,0.0,0.0,0.0,0.0,0.0,0.0,0.0,0.0,0.0,0.0,0.0,0.0,0.0,0.0,0.0,0.0,0.0,0.0,0.0,0.0,0.0,0.0,0.0,0.0,0.0,0.0,0.0,0.0,0.0,0.0,0.0,0.0,0.0,0.0,0.0,0.0,0.0,0.0,0.0,0.0,0.0,0.0,0.0,0.0,0.0,0.0,0.0,0.0,0.0,0.0,0.0,0.0,0.0,0.0,0.0,0.0,0.0,0.0,0.0,0.0,0.0,0.0,0.0,0.0,0.0,0.0,0.0,0.0,0.0,0.0,0.0,0.0,0.0,0.0,0.0,0.0,0.0,0.0,0.0,0.0,0.0,0.0,0.0,-4.5993,-4.6177,-4.7572,-4.8306,-4.8287,-4.7388,-4.6452,0.0,0.0,0.0,0.0,0.0,0.0,0.0,0.0,0.0,0.0,0.0,0.0,0.0,0.0,0.0,0.0,0.0,0.0,0.0,0.0,0.0,0.0,0.0,0.0,0.0,0.0,0.0,0.0,0.0,0.0,0.0,0.0,0.0,0.0,0.0,0.0,0.0,0.0,0.0,0.0,0.0,0.0,0.0,0.0,0.0,0.0,0.0,0.0,-3.8716,0.0,0.0,0.0,0.0,0.0,0.0,0.0,0.0,0.0,0.0,0.0,0.0,0.0,0.0,0.0,0.0,0.0,0.0,0.0,0.0,0.0,0.0,0.0,0.0,0.0,0.0,0.0,0.0,0.0,0.0,0.0,0.0,0.0,0.0,0.0,0.0,0.0,0.0,0.0,0.0,0.0,0.0,0.0,0.0,0.0,0.0,0.0,0.0,0.0,0.0,0.0,0.0,0.0,0.0,0.0,0.0,0.0,0.0,0.0,-4.6104,-4.6471,-4.7682,-4.8306,-4.8306,-4.7883,-4.7113,0.0,0.0,0.0,0.0,0.0,0.0,0.0,0.0,0.0,0.0,0.0,0.0,0.0,0.0,0.0,0.0,0.0,0.0,0.0,0.0,0.0,0.0,0.0,0.0,0.0,0.0,0.0,0.0,0.0,0.0,0.0,0.0,0.0,0.0,0.0,0.0,0.0,0.0,0.0,0.0,0.0,0.0,0.0,0.0,0.0,0.0,0.0,0.0,0.0,0.0,0.0,0.0,0.0,0.0,0.0,0.0,0.0,0.0,0.0,0.0,0.0,0.0,0.0,0.0,0.0,0.0,0.0,0.0,0.0,0.0,0.0,0.0,0.0,0.0,0.0,0.0,0.0,0.0,0.0,0.0,0.0,0.0,0.0,0.0,0.0,0.0,0.0,0.0,0.0,0.0,0.0,0.0,0.0,0.0,0.0,0.0,0.0,0.0,0.0,0.0,0.0,0.0,0.0,0.0,0.0,0.0,0.0,-4.5406,-4.625,-4.6929,-4.781,-4.8306,-4.8287,-4.8267,-4.7497,-4.592,0.0,0.0,0.0,0.0,0.0,0.0,0.0,0.0,0.0,0.0,0.0,0.0,0.0,0.0,0.0,0.0,0.0,0.0,0.0,0.0,0.0,0.0,0.0,0.0,0.0,0.0,0.0,0.0,0.0,0.0,0.0,0.0,0.0,0.0,0.0,0.0,0.0,0.0,-4.0084,-4.0507,0.0,0.0,0.0,0.0,0.0,0.0,0.0,0.0,-3.8019,0.0,0.0,0.0,0.0,0.0,0.0,0.0,0.0,0.0,0.0,0.0,0.0,0.0,0.0,0.0,0.0,0.0,0.0,0.0,0.0,0.0,0.0,0.0,0.0,0.0,0.0,0.0,0.0,0.0,0.0,0.0,0.0,0.0,0.0,0.0,0.0,0.0,0.0,0.0,0.0,0.0,0.0,0.0,0.0,0.0,0.0,0.0,0.0,0.0,0.0,0.0,0.0,0.0,0.0,0.0,0.0,-4.3718,-4.5149,-4.5957,-4.6104,-4.7535,-4.8267,-4.8226,-4.8226,-4.74,-4.5751,0.0,0.0,0.0,0.0,0.0,0.0,0.0,0.0,0.0,0.0,0.0,0.0,0.0,0.0,0.0,0.0,0.0,0.0,0.0,0.0,0.0,0.0,0.0,0.0,0.0,0.0,0.0,0.0,0.0,0.0,0.0,0.0,0.0,0.0,0.0,0.0,0.0,0.0,0.0,-4.091,-4.1211,0.0,0.0,0.0,0.0,0.0,0.0,0.0,0.0,-3.8173,0.0,0.0,0.0,0.0,0.0,0.0,0.0,0.0,0.0,0.0,0.0,0.0,0.0,0.0,0.0,0.0,0.0,0.0,0.0,0.0,0.0,0.0,0.0,0.0,0.0,0.0,0.0,0.0,0.0,0.0,0.0,0.0,0.0,0.0,0.0,0.0,0.0,0.0,0.0,0.0,0.0,0.0,0.0,0.0,0.0,0.0,0.0,0.0,0.0,0.0,0.0,0.0,0.0,0.0,0.0,-4.3571,-4.5076,-4.5902,-4.5883,-4.7423,-4.8151,-4.7992,-4.7611,-4.6822,0.0,0.0,0.0,0.0,0.0,0.0,0.0,0.0,0.0,0.0,0.0,0.0,0.0,0.0,0.0,0.0,0.0,0.0,0.0,0.0,0.0,0.0,0.0,0.0,0.0,0.0,0.0,0.0,0.0,0.0,0.0,0.0,0.0,0.0,0.0,0.0,0.0,0.0,0.0,0.0,-4.092,-4.1117,-4.0868,0.0,0.0,0.0,0.0,0.0,0.0,-3.7578,-3.7407,0.0,0.0,0.0,0.0,0.0,0.0,0.0,0.0,0.0,0.0,0.0,0.0,0.0,0.0,0.0,0.0,0.0,0.0,0.0,0.0,0.0,0.0,0.0,0.0,0.0,0.0,0.0,0.0,0.0,0.0,0.0,0.0,0.0,0.0,0.0,0.0,0.0,0.0,0.0,0.0,0.0,0.0,0.0,0.0,0.0,0.0,0.0,0.0,0.0,0.0,0.0,0.0,0.0,0.0,0.0,-4.3517,-4.4893,-4.5645,-4.5753,-4.7141,-4.7773,-4.7513,-4.6912,-4.6074,0.0,0.0,0.0,0.0,0.0,0.0,0.0,0.0,0.0,0.0,0.0,0.0,0.0,0.0,0.0,0.0,0.0,0.0,0.0,0.0,0.0,0.0,0.0,0.0,0.0,0.0,0.0,0.0,0.0,0.0,0.0,0.0,0.0,0.0,0.0,0.0,0.0,0.0,0.0,0.0,0.0,-4.0899,-4.0597,-4.1084,0.0,0.0,0.0,0.0,-3.8193,-3.7431,0.0,0.0,0.0,0.0,0.0,0.0,0.0,0.0,0.0,0.0,0.0,0.0,0.0,0.0,0.0,0.0,0.0,0.0,0.0,0.0,0.0,0.0,0.0,0.0,0.0,0.0,0.0,0.0,0.0,0.0,0.0,0.0,0.0,0.0,0.0,0.0,0.0,0.0,0.0,0.0,0.0,0.0,0.0,0.0,0.0,0.0,0.0,0.0,0.0,0.0,0.0,0.0,0.0,0.0,0.0,0.0,-4.3448,-4.4181,-4.4856,-4.5433,-4.6379,-4.671,-4.6419,-4.6311,-4.545,0.0,0.0,0.0,0.0,0.0,0.0,0.0,0.0,0.0,0.0,0.0,0.0,0.0,0.0,0.0,0.0,0.0,0.0,0.0,0.0,0.0,0.0,0.0,0.0,0.0,0.0,0.0,0.0,0.0,0.0,0.0,0.0,0.0,0.0,0.0,0.0,0.0,0.0,0.0,0.0,0.0,-4.0652,-4.0205,-4.0704,-4.09,0.0,0.0,-3.9953,-3.9068,-3.8506,0.0,0.0,0.0,0.0,0.0,0.0,0.0,0.0,0.0,0.0,0.0,0.0,0.0,0.0,0.0,0.0,0.0,0.0,0.0,0.0,0.0,0.0,0.0,0.0,0.0,0.0,0.0,0.0,0.0,0.0,0.0,0.0,0.0,0.0,0.0,0.0,0.0,0.0,0.0,0.0,0.0,0.0,0.0,0.0,0.0,0.0,0.0,0.0,0.0,0.0,0.0,0.0,0.0,0.0,0.0,-4.2902,-4.3233,-4.3961,-4.4375,-4.4522,-4.5317,-4.5528,-4.5142,-4.4678,-4.4035,0.0,0.0,0.0,0.0,0.0,0.0,0.0,0.0,0.0,0.0,0.0,0.0,0.0,0.0,0.0,0.0,0.0,0.0,0.0,0.0,0.0,0.0,0.0,0.0,0.0,0.0,0.0,0.0,0.0,0.0,0.0,0.0,0.0,0.0,0.0,0.0,0.0,0.0,0.0,0.0,0.0,0.0,-3.952,-4.0153,0.0,0.0,0.0,-3.9793,-3.8825,0.0,0.0,0.0,0.0,0.0,0.0,0.0,0.0,0.0,0.0,0.0,0.0,0.0,0.0,0.0,0.0,0.0,0.0,0.0,0.0,0.0,0.0,0.0,0.0,0.0,0.0,0.0,0.0,0.0,0.0,0.0,0.0,0.0,0.0,0.0,0.0,0.0,0.0,0.0,0.0,0.0,0.0,0.0,0.0,0.0,0.0,0.0,0.0,0.0,0.0,0.0,0.0,0.0,0.0,0.0,0.0,0.0,-4.2994,-4.3572,-4.376,-4.3653,-4.419,-4.43,-4.3835,-4.3235,0.0,0.0,0.0,0.0,0.0,0.0,0.0,0.0,0.0,0.0,0.0,0.0,0.0,0.0,0.0,0.0,0.0,0.0,0.0,0.0,0.0,0.0,0.0,0.0,0.0,0.0,0.0,-3.5489,0.0,0.0,0.0,0.0,0.0,0.0,0.0,0.0,0.0,0.0,0.0,0.0,0.0,0.0,-3.9342,-3.9013,-3.979,-4.0192,0.0,0.0,-3.9722,-3.8841,-3.826,-3.7806,0.0,0.0,0.0,0.0,0.0,0.0,0.0,0.0,0.0,0.0,0.0,0.0,0.0,0.0,0.0,0.0,0.0,0.0,0.0,0.0,0.0,0.0,0.0,0.0,0.0,0.0,0.0,0.0,0.0,0.0,0.0,0.0,0.0,0.0,0.0,0.0,0.0,0.0,0.0,0.0,0.0,0.0,0.0,0.0,0.0,0.0,0.0,0.0,0.0,0.0,0.0,0.0,0.0,0.0,-4.2048,-4.2713,-4.257,-4.2757,-4.315,-4.32,-4.3001,-4.2544,-4.2486,-4.1986,0.0,0.0,0.0,0.0,0.0,0.0,0.0,0.0,0.0,0.0,0.0,0.0,0.0,0.0,0.0,0.0,0.0,0.0,0.0,0.0,0.0,0.0,0.0,0.0,0.0,0.0,0.0,0.0,0.0,0.0,0.0,0.0,0.0,0.0,0.0,0.0,0.0,0.0,0.0,0.0,0.0,-3.9303,-3.8868,-3.9772,-4.0363,0.0,-4.0084,-3.9956,-3.9674,-3.9145,-3.8617,-3.804,0.0,0.0,0.0,0.0,0.0,0.0,0.0,0.0,0.0,0.0,0.0,0.0,0.0,0.0,0.0,0.0,0.0,0.0,0.0,0.0,0.0,0.0,0.0,0.0,0.0,0.0,0.0,0.0,0.0,0.0,0.0,0.0,0.0,0.0,0.0,0.0,0.0,0.0,0.0,0.0,0.0,0.0,0.0,0.0,0.0,0.0,0.0,0.0,0.0,0.0,0.0,0.0,0.0,-4.1065,-4.1582,-4.192,-4.2037,-4.1946,-4.1901,-4.1754,-4.1332,-4.1332,-4.1157,0.0,0.0,0.0,0.0,0.0,0.0,0.0,0.0,0.0,0.0,0.0,0.0,0.0,0.0,0.0,0.0,0.0,0.0,0.0,0.0,0.0,0.0,0.0,0.0,0.0,0.0,0.0,0.0,-3.5326,-3.5001,-3.4568,0.0,0.0,0.0,0.0,0.0,0.0,0.0,0.0,0.0,0.0,-3.8751,-3.8605,-3.9373,0.0,0.0,-3.9852,-3.9852,-3.9697,-3.9245,-3.8668,-3.809,-3.7538,0.0,0.0,0.0,0.0,0.0,0.0,0.0,0.0,0.0,0.0,0.0,0.0,0.0,0.0,0.0,0.0,0.0,0.0,0.0,0.0,0.0,0.0,0.0,0.0,0.0,0.0,0.0,0.0,0.0,0.0,0.0,0.0,0.0,0.0,0.0,0.0,0.0,0.0,0.0,0.0,0.0,0.0,0.0,0.0,0.0,0.0,0.0,0.0,0.0,0.0,0.0,0.0,-4.0532,-4.1186,-4.1548,-4.1547,-4.1117,-4.1071,-4.0884,-4.0583,-4.0558,-4.0407,0.0,0.0,0.0,0.0,0.0,0.0,0.0,0.0,0.0,0.0,0.0,0.0,0.0,0.0,0.0,0.0,0.0,0.0,0.0,0.0,0.0,0.0,0.0,0.0,0.0,0.0,0.0,0.0,-3.5096,-3.4568,-3.3854,0.0,0.0,0.0,0.0,0.0,0.0,0.0,0.0,0.0,0.0,-3.836,-3.8336,-3.907,-3.9697,-3.9697,-3.9697,-3.9697,-3.9697,-3.9371,-3.8919,-3.8366,0.0,0.0,0.0,0.0,0.0,0.0,0.0,0.0,0.0,0.0,0.0,0.0,0.0,0.0,0.0,0.0,0.0,0.0,0.0,0.0,0.0,0.0,0.0,0.0,0.0,0.0,0.0,0.0,0.0,0.0,-4.0508,0.0,0.0,0.0,0.0,0.0,0.0,0.0,0.0,0.0,0.0,0.0,0.0,0.0,0.0,0.0,0.0,0.0,0.0,0.0,0.0,0.0,0.0,-4.0661,-4.1825,-4.1534,-4.1232,-4.0918,-4.0752,-4.0558,-4.0347,-4.0288,-3.9898,-3.9063,0.0,0.0,0.0,0.0,0.0,0.0,0.0,0.0,0.0,0.0,0.0,0.0,0.0,0.0,0.0,0.0,0.0,0.0,0.0,0.0,0.0,0.0,0.0,0.0,0.0,0.0,-3.5228,-3.4568,-3.3854,0.0,0.0,0.0,0.0,0.0,0.0,0.0,0.0,0.0,0.0,-3.7039,-3.831,-3.8089,-3.8969,-3.9697,-3.9697,-3.9697,-3.9697,-3.9697,-3.9672,-3.9496,0.0,0.0,0.0,0.0,0.0,0.0,0.0,0.0,0.0,0.0,0.0,0.0,0.0,0.0,0.0,0.0,0.0,0.0,0.0,0.0,0.0,0.0,0.0,0.0,0.0,0.0,0.0,-4.0662,-4.0588,0.0,0.0,0.0,0.0,0.0,0.0,0.0,0.0,0.0,0.0,0.0,-3.9681,-4.0126,0.0,0.0,0.0,0.0,0.0,0.0,0.0,0.0,0.0,0.0,0.0,0.0,-4.005,-4.0631,-4.092,-4.0894,-4.051,-4.047,-4.0337,-4.0163,-4.0163,-3.9562,-3.8328,0.0,0.0,0.0,0.0,0.0,0.0,0.0,0.0,0.0,0.0,0.0,0.0,0.0,0.0,0.0,0.0,0.0,0.0,0.0,0.0,0.0,0.0,0.0,0.0,0.0,-3.5326,0.0,0.0,0.0,0.0,0.0,0.0,0.0,0.0,0.0,0.0,0.0,-3.557,-3.61,-3.7278,-3.8239,-3.8517,-3.922,-3.9697,0.0,0.0,0.0,0.0,0.0,0.0,0.0,0.0,0.0,0.0,0.0,0.0,0.0,0.0,-3.7387,-3.7211,-3.6885,-3.6584,-3.6408,0.0,0.0,0.0,0.0,0.0,0.0,0.0,0.0,0.0,0.0,0.0,0.0,0.0,0.0,-4.0951,0.0,-4.0531,0.0,0.0,0.0,0.0,0.0,0.0,0.0,0.0,-4.0317,-4.0547,-4.0452,-4.0887,-4.1079,0.0,-4.0923,-4.0377,0.0,0.0,0.0,0.0,0.0,0.0,0.0,0.0,-4.0102,-4.0353,-4.0642,-4.069,-4.0313,-4.0238,-4.0188,-4.0113,-3.9842,-3.9266,-3.8328,-3.7787,-3.7019,0.0,0.0,0.0,0.0,0.0,0.0,0.0,0.0,0.0,0.0,0.0,0.0,0.0,0.0,0.0,0.0,0.0,0.0,0.0,0.0,0.0,0.0,0.0,-3.4997,0.0,0.0,0.0,0.0,0.0,0.0,0.0,0.0,0.0,-3.4295,-3.473,-3.5355,-3.6467,-3.7409,-3.8216,-3.8844,0.0,0.0,0.0,0.0,0.0,0.0,0.0,-3.9572,-3.922,-3.8994,-3.8743,-3.8366,-3.8291,-3.8366,-3.8567,0.0,0.0,-3.809,-3.7713,-3.7462,-3.7462,-3.6885,-3.636,-3.636,-3.6085,-3.5981,0.0,0.0,0.0,0.0,0.0,0.0,0.0,0.0,-4.2041,-4.1489,0.0,-4.0561,0.0,0.0,0.0,0.0,0.0,-4.0539,0.0,0.0,-4.1126,-4.1345,-4.1225,-4.1201,-4.1119,-4.0979,-4.0999,-4.0861,-4.0598,-3.9908,0.0,0.0,0.0,0.0,0.0,0.0,-4.071,-4.0966,-4.0776,-4.0534,-4.0288,-4.0163,-4.0113,-4.0079,-3.9411,-3.9039,-3.8937,-3.7652,-3.6793,-3.6575,-3.5912,0.0,0.0,0.0,0.0,0.0,0.0,0.0,0.0,0.0,0.0,0.0,0.0,0.0,0.0,0.0,0.0,0.0,0.0,0.0,0.0,-3.4997,0.0,0.0,0.0,0.0,0.0,0.0,0.0,0.0,0.0,0.0,-3.4179,-3.4533,-3.5177,-3.6329,0.0,0.0,0.0,0.0,-3.9697,-3.9697,-3.9697,-3.9697,-3.9697,-3.9697,-3.9697,-3.9697,0.0,0.0,-3.8894,-3.8894,-3.9044,-3.9597,-3.9647,-3.9346,-3.8291,-3.8065,-3.804,-3.804,-3.7965,-3.7965,-3.7965,-3.7789,-3.7839,-4.5468,0.0,0.0,0.0,0.0,-4.2549,-4.2433,-4.2925,-4.2285,-4.1822,-4.1401,-4.0776,0.0,0.0,0.0,0.0,0.0,0.0,-4.0756,-4.1126,-4.181,-4.2051,-4.1989,-4.2529,-4.2734,-4.2662,-4.2468,-4.1959,-4.1324,-4.0771,-4.0231,-3.9662,0.0,0.0,0.0,0.0,-4.0342,-4.0765,-4.0534,-4.0337,-4.0163,-4.0138,-4.0113,-4.0113,-3.991,-3.9521,-3.889,-3.8452,-3.7614,-3.6391,-3.6028,0.0,0.0,0.0,0.0,0.0,0.0,0.0,0.0,0.0,0.0,0.0,0.0,0.0,0.0,0.0,0.0,0.0,0.0,0.0,-3.5294,-3.4798,-3.4298,0.0,0.0,0.0,0.0,0.0,0.0,0.0,0.0,0.0,-3.4488,-3.4951,-3.5809,0.0,0.0,-3.8366,-3.932,-3.9597,-3.9697,-3.9697,-3.9697,0.0,-3.9697,-3.9697,-3.9697,-3.9697,-3.9572,-3.9471,-3.9446,-3.9471,-3.9496,-3.9672,-3.9697,-3.9572,-3.927,-3.8894,-3.8642,-3.8592,-3.8291,-3.8015,-3.799,-3.799,-3.814,-4.5568,-4.4759,-4.3869,-4.3836,-4.4305,-4.3131,-4.3015,-4.3663,-4.2816,-4.2194,-4.1706,-4.0803,-4.0325,-4.0187,-4.0408,0.0,0.0,0.0,-4.1527,-4.181,-4.2546,-4.2814,-4.2785,-4.312,-4.3269,-4.3178,-4.2937,-4.2455,-4.1792,-4.139,-4.0996,-4.0583,0.0,0.0,-4.0316,-4.0283,-4.0375,-4.0534,-4.0362,-4.0238,-4.0113,-4.0113,-4.0113,-4.0113,-4.0062,-3.9784,-3.9278,-3.8816,-3.807,-3.6928,-3.6447,-3.5727,0.0,0.0,0.0,0.0,0.0,0.0,0.0,0.0,0.0,0.0,0.0,-3.5589,-3.5489,0.0,0.0,0.0,-3.5424,-3.5261,-3.503,-3.4467,0.0,0.0,0.0,0.0,0.0,0.0,0.0,-3.3183,-3.3802,-3.4424,-3.4931,-3.5483,-3.6383,-3.7814,-3.799,-3.8417,-3.9546,0.0,-3.9697,-3.9697,-3.9697,-3.9697,-3.9697,-3.9697,-3.9697,-3.9697,-3.9697,-3.9697,-3.9697,-3.9697,-3.9697,-3.9697,-3.9697,-3.9697,-3.9697,-3.9421,-3.9246,-3.9246,-3.8919,-3.8693,-3.8668,-3.8668,-3.8793,-4.5382,-4.4515,-4.3641,-4.4178,-4.5505,-4.3886,-4.3585,-4.4214,-4.3358,-4.2524,-4.1626,-4.0717,-4.0234,-4.0175,-4.066,0.0,-4.0579,-4.2054,-4.2643,-4.2496,-4.3232,-4.3515,-4.3376,-4.3233,-4.3087,-4.2899,-4.2668,-4.2389,-4.2044,-4.1736,-4.1391,-4.1151,-4.0523,-4.0142,-4.0008,-4.0549,-4.0655,-4.0322,-4.0288,-4.0213,-4.0113,-4.0113,-4.0113,-4.0113,-3.9961,-3.9884,-3.9858,-3.8905,-3.8188,-3.784,-3.7059,-3.6032,-3.4819,0.0,0.0,0.0,0.0,0.0,0.0,0.0,0.0,0.0,0.0,0.0,0.0,0.0,0.0,0.0,-3.5294,0.0,-3.4698,-3.4151,0.0,0.0,0.0,-3.3008,-3.343,-3.3137,-3.3266,-3.4045,0.0,0.0,-3.5382,-3.5981,-3.6734,-3.7814,-3.7939,-3.8366,-3.9471,-3.9622,-3.9647,-3.9697,-3.9697,-3.9697,-3.9697,-3.9697,-3.9697,-3.9697,-3.9697,-3.9697,-3.9697,-3.9697,-3.9697,-3.9697,-3.9697,-3.9697,-3.9697,-3.9672,-3.9697,-3.9672,-3.9672,-3.9672,-3.9622,-3.9597,-3.9597,-4.4465,-4.355,-4.2653,-4.2872,-4.3736,-4.269,-4.2671,-4.332,-4.2471,-4.1929,-4.1577,-4.0625,-4.0048,-3.9754,-4.0276,-4.0808,-4.1349,-4.2152,-4.2767,-4.3238,-4.3389,-4.3359,-4.316,-4.2956,-4.2768,-4.2668,-4.2251,-4.1938,-4.1714,-4.1323,-4.1024,-4.0823,-4.0545,-4.0453,-4.0511,-4.049,-4.0387,-4.0322,-4.0213,-4.0138,-4.0113,-4.0113,-4.0113,-4.0113,-3.9961,-3.9815,-3.9573,-3.9116,-3.8378,-3.7339,-3.6948,-3.6171,-3.483,-3.4628,0.0,0.0,0.0,0.0,0.0,0.0,0.0,0.0,0.0,-3.5489,-3.5489,0.0,-3.5489,0.0,-3.5096,-3.4664,-3.4264,-3.4002,0.0,0.0,-3.3453,-3.3462,-3.329,-3.329,-3.331,-3.3374,-3.4167,-3.4731,-3.4856,-3.5755,-3.6656,-3.7287,-3.7362,-3.7789,-3.8894,-3.912,-3.9271,-3.9597,-3.9672,-3.9697,-3.9697,-3.9697,-3.9697,-3.9697,-3.9697,-3.9697,-3.9697,-3.9697,-3.9697,-3.9697,-3.9697,-3.9697,-3.9697,-3.9697,-3.9697,-3.9697,-3.9697,-3.9697,-3.9697,-3.9697,-3.9697,-4.3544,-4.2619,-4.2078,-4.1901,-4.2008,-4.1923,-4.2349,-4.2978,-4.2091,-4.1651,-4.1466,-4.0418,-3.9728,-3.9489,-4.0113,-4.0577,-4.0947,-4.1919,-4.256,-4.2915,-4.314,-4.3123,-4.2918,-4.2655,-4.2474,-4.2272,-4.1917,-4.1648,-4.1323,-4.1001,-4.0752,-4.0544,-4.0387,-4.0362,-4.0412,-4.0337,-4.0263,-4.0213,-4.0163,-4.0113,-4.0113,-4.0113,-4.0087,-4.0011,-3.9807,-3.9573,-3.9282,-3.8816,-3.8205,-3.7431,-3.7051,-3.6326,-3.5174,-3.4995,-3.488,0.0,0.0,0.0,0.0,0.0,0.0,0.0,0.0,0.0,0.0,0.0,-3.5487,-3.5359,-3.4964,-3.4612,-3.4393,-3.4,-3.3753,-3.3668,-3.3661,-3.3558,-3.3322,-3.3377,-3.3401,-3.3463,-3.4198,-3.4781,-3.5031,-3.583,-3.6531,-3.6832,-3.681,-3.7211,-3.8241,-3.8492,-3.8693,-3.922,-3.932,-3.9421,-3.9647,-3.9697,-3.9697,-3.9697,-3.9697,-3.9697,-3.9697,-3.9697,-3.9697,-3.9697,-3.9697,-3.9697,-3.9697,-3.9697,-3.9697,-3.9697,-3.9697,-3.9697,-3.9697,-3.9697,-3.9697,-4.2581,-4.1738,-4.1655,-4.12,-4.0554,-4.1355,-4.2093,-4.2603,-4.1766,-4.1342,-4.1099,-4.0068,-3.9414,-3.9239,-4.0011,-4.0222,-4.0083,-4.1458,-4.2109,-4.2025,-4.2632,-4.2755,-4.2472,-4.2382,-4.2113,-4.1809,-4.1626,-4.13,-4.0931,-4.0752,-4.051,-4.0263,-4.0163,-4.0113,-4.0113,-4.0213,-4.0213,-4.0113,-4.0113,-4.0113,-4.0087,-4.0087,-4.0011,-3.9866,-3.958,-3.9255,-3.8898,-3.8343,-3.7918,-3.7567,-3.7118,-3.6444,-3.5584,-3.537,-3.5124,0.0,-3.4779,0.0,0.0,0.0,0.0,0.0,0.0,0.0,0.0,-3.5487,-3.5359,-3.5133,-3.4857,-3.4645,-3.4569,-3.401,-3.3778,-3.3967,-3.3695,-3.3478,-3.342,-3.3343,-3.346,-3.3746,-3.4274,-3.4826,-3.5282,-3.5906,-3.6304,-3.643,-3.6455,-3.6807,-3.7563,-3.7839,-3.8115,-3.8718,-3.8818,-3.8894,-3.927,-3.9421,-3.9421,-3.9446,-3.9396,-3.9471,-3.9421,-3.9496,-3.9572,-3.9572,-3.9622,-3.9697,-3.9697,-3.9697,-3.9697,-3.9697,-3.9697,-3.9697,-3.9697,-3.9697,-3.9697,-4.1696,-4.0846,-4.0762,-4.0669,-4.0508,-4.0676,-4.0844,-4.0935,-4.0613,-4.0299,-4.0,-3.9577,-3.9272,-3.9157,-3.9771,-4.0019,-4.0047,-4.0859,-4.1148,-4.1013,-4.1615,-4.1658,-4.1263,-4.1697,-4.1701,-4.1346,-4.1152,-4.0894,-4.0607,-4.0436,-4.0288,-4.0138,-4.0079,-4.0113,-4.0113,0.0,0.0,0.0,-4.0113,-4.0037,-3.9935,-3.9935,-3.984,-3.9606,-3.9255,0.0,-3.8455,-3.8033,-3.7508,-3.6938,-3.6693,0.0,0.0,0.0,0.0,0.0,0.0,0.0,0.0,0.0,0.0,0.0,-3.5489,-3.5489,-3.5489,-3.5359,-3.5129,-3.4798,-3.4727,-3.4441,-3.3862,-3.3957,-3.39,-3.363,-3.3498,-3.3411,-3.3386,-3.324,-3.3162,-3.3219,-3.3721,-3.4274,-3.4781,-3.5307,-3.5855,-3.6304,-3.6405,-3.6505,-3.6707,-3.7086,-3.7538,-3.804,-3.8191,-3.8216,-3.8291,-3.8366,-3.8442,-3.8341,-3.8341,-3.8366,-3.8417,-3.8768,-3.907,-3.9044,-3.9396,-3.9672,-3.9672,-3.9697,-3.9697,-3.9697,-3.9697,-3.9697,-3.9697,-3.9697,-3.9697,-4.1065,0.0,-4.0531,-4.05,0.0,-4.0449,-4.0389,-4.0345,-4.0196,-3.9895,-3.9502,-3.9285,-3.9096,-3.895,-3.9275,-3.9354,-3.9297,-3.9979,-4.0139,-3.9985,-4.0488,-4.0538,-4.0217,-4.0721,-4.0787,-4.047,-4.0698,-4.0655,-4.0412,-4.0313,-4.0213,-4.0113,-4.0113,-4.0113,-4.0113,-4.0113,-4.0113,-4.0113,-4.0037,-3.9994,-3.9884,-3.9755,-3.9547,-3.9255,-3.8843,0.0,0.0,0.0,0.0,0.0,0.0,0.0,0.0,0.0,0.0,-3.5489,-3.5489,-3.5489,-3.5489,-3.5489,-3.5489,-3.5489,-3.5489,-3.5489,-3.5489,-3.5326,-3.5063,-3.476,-3.4704,-3.4517,-3.4122,-3.4077,-3.4005,-3.3829,-3.3572,-3.3368,-3.3283,-3.3154,-3.3136,-3.3162,-3.3571,-3.4022,-3.4274,-3.5006,-3.5558,-3.5931,-3.6207,-3.6405,-3.643,-3.6631,-3.7008,-3.7513,-3.7864,-3.8015,-3.799,-3.799,-3.799,-3.799,-3.799,-3.799,-3.799,-3.8241,-3.8442,-3.8492,-3.8894,-3.9295,-3.932,-3.9496,-3.9697,-3.9697,-3.9697,-3.9697,-3.9697,-3.9697,-3.9697,-4.0658,-4.0585,-4.0516,-4.0515,-4.0458,-4.0363,-4.0206,-4.0106,0.0,0.0,0.0,-3.9161,-3.8979,-3.881,-3.8743,-3.8652,-3.8501,-3.8995,-3.9134,-3.8941,-3.9342,-3.9383,-3.9209,-3.973,-3.9858,-3.9674,-4.0312,-4.0485,-4.0263,-4.0263,-4.0213,-4.0113,-4.0113,-4.0113,-4.0113,-4.0087,-4.0062,-4.0062,-3.9961,-3.9858,-3.9781,-3.9554,-3.9228,-3.8843,-3.8427,-3.7972,-3.7537,-3.6968,-3.6569,-3.6352,-3.5943,-3.5688,-3.5655,-3.5554,-3.5489,-3.5489,-3.5489,-3.5489,-3.5489,-3.5489,-3.5489,-3.5489,-3.5489,-3.5489,-3.5489,-3.5294,-3.503,-3.4664,-3.4721,-3.4663,-3.4424,-3.4256,-3.412,-3.4037,-3.3624,-3.3283,-3.3111,-3.3136,-3.3136,-3.3162,-3.347,-3.3796,-3.3922,-3.4675,-3.5307,-3.5508,-3.5931,-3.6329,-3.638,-3.643,-3.6606,-3.7008,-3.7337,-3.7663,-3.7688,-3.7638,-3.7713,-3.7613,-3.7638,-3.7713,-3.7739,-3.7789,-3.7864,-3.7864,-3.8341,-3.8668,-3.8743,-3.9145,-3.9521,-3.9546,-3.9622,-3.9697,-3.9697,-3.9697,-3.9697,-4.0577,-4.0499,-4.0499,-4.0449,-4.0316,-4.0225,-4.0017,-3.9682,-3.967,-3.9502,-3.9229,-3.9078,-3.8877,-3.8704,-3.859,-3.8465,-3.834,-3.8246,-3.8059,-3.7846,-3.8309,-3.8284,-3.7922,-3.9178,-3.9593,-3.933,-4.0022,-4.0263,-4.0163,-4.0138,-4.0113,-4.0113,-4.0113,-4.0113,-4.0087,-3.9986,-3.991,-3.991,-3.991,-3.9703,-3.9422,-3.9175,-3.8821,-3.8258,-3.7947,-3.7478,-3.6877,-3.6631,-3.6289,-3.5847,-3.572,-3.5653,-3.5522,-3.5522,-3.5489,-3.5489,-3.5489,-3.5489,-3.5489,-3.5489,-3.5489,-3.5489,-3.5489,-3.5489,-3.5519,-3.5162,-3.4802,-3.4491,-3.4804,-3.4771,-3.4115,-3.4206,-3.4184,-3.3784,-3.3411,-3.3111,-3.3136,-3.3136,-3.3136,-3.3136,-3.3187,-3.342,-3.3796,-3.4073,-3.455,-3.5232,-3.5558,-3.583,-3.6254,-3.6405,-3.643,-3.6505,-3.6581,-3.6631,-3.6757,-3.6656,-3.6732,-3.6631,-3.6707,-3.6782,-3.6782,-3.7084,-3.7287,-3.7287,-3.7764,-3.809,-3.814,-3.8592,-3.8969,-3.9069,-3.9371,-3.9672,-3.9697,-3.9697,-3.9697,-4.0562,-4.0482,-4.0458,-4.036,-4.0243,-4.0038,-3.9739,-3.9439,-3.9363,-3.9205,-3.9036,-3.8877,-3.8735,-3.8564,-3.8433,-3.8287,-3.8121,-3.7897,-3.765,-3.7371,-3.7361,-3.7213,-3.7059,-3.8174,-3.8685,-3.8622,-3.967,-4.0163,-4.0113,-4.0113,-4.0113,-4.0113,-4.0113,-4.0062,-3.9986,-3.991,-3.9815,-3.9573,-3.9606,-3.9441,-3.9148,-3.8733,-3.8315,-3.7889,-3.7419,-3.6968,-3.66,-3.6258,-3.5943,-3.572,-3.5621,-3.5587,-3.5489,-3.5489,-3.5489,-3.5489,-3.5489,-3.5489,-3.5489,-3.5489,-3.5489,-3.5489,-3.5489,-3.5424,-3.5359,-3.4997,-3.4714,-3.4583,-3.4691,-3.4579,-3.4068,-3.4146,-3.4063,-3.3598,-3.3283,-3.3136,-3.3136,-3.3136,-3.3136,-3.3136,-3.3136,-3.3237,-3.342,-3.3721,-3.4022,-3.458,-3.5056,-3.5583,-3.5906,-3.6182,-3.6405,-3.6405,-3.6405,-3.6405,-3.6405,-3.6405,-3.6405,-3.6405,-3.6405,-3.6405,-3.6405,-3.6656,-3.6757,-3.6807,-3.7186,-3.7513,-3.7563,-3.8291,-3.8793,-3.8969,-3.932,-3.9647,-3.9697,-3.9697,-3.9697,-4.0531,-4.0449,-4.0398,-4.0252,-4.004,-3.9762,-3.9502,-3.9245,-3.912,-3.895,-3.8788,-3.8704,-3.8528,-3.8352,-3.8221,-3.8106,-3.7844,-3.7685,-3.7338,-3.6954,-3.6655,-3.6409,-3.6328,-3.7411,-3.7986,-3.8133,-3.9393,-4.0113,-4.0113,-4.0113,-4.0113,-4.0113,-4.0113,-4.0037,-3.9884,-3.9866,-3.9599,-3.9228,-3.9094,-3.8958,-3.8788,-3.8286,-3.7828,-3.7449,-3.6938,-3.6538,-3.632,-3.5911,-3.5688,-3.5653,-3.5554,-3.5489,-3.5489,-3.5489,-3.5489,-3.5489,-3.5489,-3.5489,-3.5489,-3.5489,-3.5489,-3.5489,-3.5489,-3.5392,-3.5162,-3.4831,-3.4627,-3.4675,-3.4575,-3.4394,-3.4153,-3.4073,-3.392,-3.3454,-3.3197,-3.3136,-3.3136,-3.3136,-3.3136,-3.3136,-3.3136,-3.3136,-3.3187,-3.3445,-3.3771,-3.4022,-3.4705,-3.5307,-3.5508,-3.5931,-3.6182,-3.638,-3.6405,-3.6405,-3.6405,-3.6405,-3.6405,-3.6405,-3.6405,-3.6405,-3.6405,-3.6405,-3.643,-3.6505,-3.6757,-3.696,-3.7086,-3.7764,-3.8441,-3.8617,-3.9044,-3.9496,-3.9672,-3.9697,-3.9697,-4.0402,-4.0316,-4.0186,-4.0007,-3.9658,-3.9489,-3.9311,-3.9133,-3.8906,-3.8683,-3.8465,-3.8476,-3.8348,-3.8118,-3.7967,-3.7775,-3.7466,-3.7243,-3.697,-3.6588,-3.6402,-3.617,-3.6002,-3.733,-3.7973,-3.8082,-3.9402,-4.0113,-4.0113,-4.0113,-4.0113,-4.0113,-4.0113,-4.0011,-3.9884,-3.9659,-3.9362,-3.9007,-3.8483,-3.8201,-3.8173,-3.7889,-3.7419,-3.6816,-3.66,-3.6289,-3.5816,-3.572,-3.5653,-3.5522,-3.5489,-3.5489,-3.5489,-3.5489,-3.5489,-3.5489,-3.5489,-3.5489,-3.5489,-3.5489,-3.5489,-3.5489,-3.5489,-3.5326,-3.4968,-3.4635,-3.449,-3.4633,-3.4566,-3.4383,-3.4166,-3.4099,-3.3852,-3.3428,-3.3197,-3.3136,-3.3136,-3.3136,-3.3136,-3.3136,-3.3136,-3.3136,-3.3136,-3.3212,-3.337,-3.3771,-3.4374,-3.4881,-3.5257,-3.5533,-3.5855,-3.6207,-3.6405,-3.6405,-3.6405,-3.6405,-3.6405,-3.6405,-3.6405,-3.6405,-3.6405,-3.6405,-3.6405,-3.643,-3.6455,-3.6556,-3.6656,-3.7008,-3.7563,-3.8191,-3.8668,-3.9145,-3.9546,-3.9697,-3.9697,-3.887,-3.8802,-3.9127,-3.932,-3.9402,-3.9311,-3.9124,-3.8921,-3.8713,-3.8428,-3.8152,-3.8053,-3.7914,-3.7844,-3.7631,-3.7446,-3.7186,-3.6915,-3.6635,-3.6381,-3.6212,-3.5997,-3.597,-3.7271,-3.7936,-3.8024,-3.9402,-4.0113,-4.0113,-4.0113,-4.0113,-4.0087,-4.0011,-3.9858,-3.9685,-3.9475,-3.9154,-3.8628,-3.8201,-3.7799,-3.7415,-3.7178,-3.6938,-3.66,-3.6196,-3.5943,-3.572,-3.5621,-3.5554,-3.5489,-3.5489,-3.5489,-3.5489,-3.5489,-3.5489,-3.5489,-3.5489,-3.5489,-3.5489,-3.5489,-3.5489,-3.5489,-3.5489,-3.5326,-3.4935,-3.4601,-3.4387,-3.4384,-3.4242,-3.4035,-3.3806,-3.3809,-3.3683,-3.3326,-3.3154,-3.3136,-3.3136,-3.3136,-3.3136,-3.3136,-3.3136,-3.3136,-3.3136,-3.3136,-3.3212,-3.3445,-3.3897,-3.4349,-3.46,-3.5056,-3.5558,-3.5855,-3.6132,-3.6405,-3.6405,-3.6405,-3.6405,-3.6405,-3.6405,-3.6405,-3.6405,-3.6405,-3.6405,-3.6405,-3.6405,-3.6405,-3.643,-3.6857,-3.7362,-3.7939,-3.8793,-3.9446,-3.9672,-3.9697,-3.9697,-3.7695,-3.7728,-3.8239,-3.8761,-3.9245,-3.911,-3.8964,-3.8698,-3.8481,-3.8185,-3.7844,-3.7595,-3.7412,-3.7375,-3.7203,-3.7048,-3.6895,-3.6615,-3.6381,-3.617,-3.6019,-3.5968,-3.6175,-3.7269,-3.8024,-3.8396,-3.9478,-4.0113,-4.0113,-4.0113,-4.0087,-4.0037,-3.9969,-3.9763,-3.9441,-3.9255,-3.8876,-3.829,-3.7857,-3.7387,-3.6814,-3.6538,-3.6383,-3.6258,-3.5911,-3.5688,-3.5653,-3.5554,-3.5489,-3.5489,-3.5489,-3.5489,-3.5489,-3.5489,-3.5489,-3.5489,-3.5489,-3.5489,-3.5489,-3.5489,-3.5489,-3.5489,-3.5489,-3.5326,-3.4935,-3.4601,-3.4261,-3.3987,-3.3936,-3.3802,-3.3564,-3.3643,-3.353,-3.3154,-3.3136,-3.3136,-3.3136,-3.3136,-3.3136,-3.3136,-3.3136,-3.3136,-3.3136,-3.3136,-3.3136,-3.3212,-3.342,-3.3771,-3.3947,-3.46,-3.5107,-3.5433,-3.578,-3.6053,-3.6329,-3.6405,-3.6405,-3.6405,-3.6405,-3.6405,-3.6405,-3.6405,-3.6405,-3.6405,-3.6405,-3.6405,-3.6405,-3.6807,-3.7287,-3.799,-3.8868,-3.9622,-3.9697,-3.9697,-3.9697,-3.7614,-3.7485,-3.7925,-3.8475,-3.9082,-3.8906,-3.8713,-3.8512,-3.8204,-3.7898,-3.7595,-3.7243,-3.6954,-3.6676,-3.6635,-3.6609,-3.6506,-3.6331,-3.6096,-3.5844,-3.5834,-3.6141,-3.6795,-3.755,-3.8261,-3.887,-3.9673,-4.0113,-4.0113,-4.0113,-4.0037,-3.9943,-3.9892,-3.9711,-3.9315,-3.8985,-3.8511,-3.7943,-3.7296,-3.6846,-3.6507,-3.6006,-3.5784,-3.5752,-3.572,-3.5621,-3.5522,-3.5489,-3.5489,-3.5489,-3.5489,-3.5489,-3.5489,-3.5489,-3.5489,-3.5489,-3.5489,-3.5489,-3.5489,-3.5489,-3.5489,-3.5489,-3.5489,-3.5326,-3.4935,-3.4568,-3.4122,-3.3424,-3.3706,-3.3802,-3.3511,-3.3576,-3.3556,-3.3154,-3.3136,-3.3136,-3.3136,-3.3136,-3.3136,-3.3136,-3.3136,-3.3136,-3.3136,-3.3136,-3.3136,-3.3136,-3.3162,-3.3338,-3.3721,-3.3947,-3.4474,-3.5006,-3.5157,-3.5177,-3.6128,-3.6279,-3.6304,-3.6329,-3.6279,-3.6405,-3.6405,-3.6405,-3.6405,-3.6405,-3.6405,-3.6405,-3.6405,-3.6707,-3.7209,-3.7914,-3.8969,-3.9572,-3.9697,-3.9697,-3.9697,-3.6302,-3.7003,-3.7144,-3.7853,-3.8869,-3.8795,-3.8611,-3.8336,-3.8053,-3.7757,-3.7373,-3.6954,-3.6635,-3.6423,-3.6191,-3.617,-3.6289,-3.6075,-3.59,-3.5778,-3.5711,-3.6073,-3.6829,-3.755,-3.8294,-3.9005,-3.974,-4.0113,-4.0087,-4.0011,-3.9935,-3.9833,-3.9659,-3.9335,-3.8985,-3.8567,-3.8084,-3.7594,-3.7058,-3.6631,-3.632,-3.5911,-3.5655,-3.5557,-3.5587,-3.5554,-3.5489,-3.5489,-3.5489,-3.5489,-3.5489,-3.5489,-3.5489,-3.5489,-3.5489,-3.5489,-3.5489,-3.5489,-3.5489,-3.5489,-3.5489,-3.5489,-3.5489,-3.5326,-3.4935,-3.4568,-3.4094,-3.3565,-3.3688,-3.3641,-3.3197,-3.3369,-3.3556,-3.3197,-3.3136,-3.3136,-3.3136,-3.3136,-3.3136,-3.3136,-3.3136,-3.3136,-3.3136,-3.3136,-3.3136,-3.3136,-3.3136,-3.3237,-3.337,-3.3646,-3.4073,-3.4399,-3.4605,-3.4851,-3.5152,-3.5629,-3.5855,-3.5956,-3.6031,-3.6304,-3.6405,-3.6405,-3.6405,-3.6405,-3.6405,-3.6455,-3.6505,-3.7086,-3.7513,-3.8316,-3.927,-3.9597,-3.9697,-3.9697,-3.9697,-3.5304,-3.631,-3.6528,-3.7304,-3.8339,-3.8517,-3.8421,-3.8157,-3.7846,-3.7483,-3.7048,-3.669,-3.6367,-3.6148,-3.5888,-3.5878,-3.601,-3.58,-3.5734,-3.5711,-3.5644,-3.6163,-3.711,-3.7652,-3.8396,-3.9276,-3.9842,-4.0087,-4.0037,-3.9935,-3.9833,-3.9711,-3.9362,-3.8952,-3.8567,-3.8173,-3.7711,-3.7208,-3.6754,-3.6352,-3.6038,-3.5752,-3.5589,-3.5522,-3.5489,-3.5489,-3.5489,-3.5489,-3.5489,-3.5489,-3.5489,-3.5489,-3.5489,-3.5489,-3.5489,-3.5489,-3.5489,-3.5489,-3.5489,-3.5489,-3.5489,-3.5489,-3.5489,-3.5326,-3.4935,-3.4568,-3.4059,-3.3593,-3.3661,-3.356,-3.2987,-3.3266,-3.3556,-3.3197,-3.3136,-3.3136,-3.3136,-3.3136,-3.3136,-3.3136,-3.3136,-3.3136,-3.3136,-3.3136,-3.3136,-3.3136,-3.3136,-3.3136,-3.3187,-3.3345,-3.3721,-3.3872,-3.4022,-3.4198,-3.4449,-3.4776,-3.5353,-3.5554,-3.578,-3.6056,-3.6405,-3.6405,-3.6405,-3.6405,-3.6455,-3.6505,-3.6883,-3.7462,-3.8115,-3.8768,-3.927,-3.9672,-3.9697,-3.9697,-3.9697,-3.4772,-3.5565,-3.6145,-3.6816,-3.7594,-3.802,-3.8121,-3.7864,-3.7502,-3.7087,-3.669,-3.6423,-3.6148,-3.5878,-3.5778,-3.5711,-3.5667,-3.5644,-3.5622,-3.5622,-3.56,-3.6434,-3.7753,-3.7855,-3.8667,-3.9943,-4.0079,-4.0037,-3.9943,-3.9858,-3.9677,-3.9335,-3.9094,-3.8678,-3.8116,-3.7831,-3.7359,-3.6816,-3.6383,-3.6038,-3.572,-3.5587,-3.5489,-3.5489,-3.5489,-3.5489,-3.5489,-3.5489,-3.5489,-3.5489,-3.5489,-3.5489,-3.5489,-3.5489,-3.5489,-3.5489,-3.5489,-3.5489,-3.5489,-3.5489,-3.5489,-3.5489,-3.5489,-3.5326,-3.4935,-3.4568,-3.4122,-3.3621,-3.3661,-3.356,-3.2947,-3.3292,-3.3556,-3.3197,-3.3136,-3.3136,-3.3136,-3.3136,-3.3136,-3.3136,-3.3136,-3.3136,-3.3136,-3.3136,-3.3136,-3.3136,-3.3136,-3.3136,-3.3136,-3.3212,-3.337,-3.3596,-3.3621,-3.3596,-3.3746,-3.3972,-3.4625,-3.5157,-3.5433,-3.5734,-3.6207,-3.6405,-3.6405,-3.6405,-3.6405,-3.6505,-3.7161,-3.7789,-3.8291,-3.8868,-3.932,-3.9697,-3.9697,-3.9697,-3.9697,-3.4637,-3.5209,-3.5345,-3.6186,-3.7207,-3.7281,-3.7375,-3.7649,-3.7317,-3.6895,-3.6547,-3.6318,-3.6096,-3.5822,-3.5711,-3.5644,-3.56,-3.56,-3.56,-3.56,-3.56,-3.6411,-3.7628,-3.7922,-3.8667,-3.991,-4.0113,-4.0037,-3.9858,-3.9703,-3.9448,-3.9094,-3.8738,-3.8319,-3.7831,-3.7387,-3.6937,-3.6569,-3.607,-3.5784,-3.5688,-3.5557,-3.5489,-3.5489,-3.5489,-3.5489,-3.5489,-3.5489,-3.5489,-3.5489,-3.5489,-3.5489,-3.5489,-3.5489,-3.5489,-3.5489,-3.5489,-3.5489,-3.5489,-3.5489,-3.5489,-3.5489,-3.5489,-3.5294,-3.4935,-3.4601,-3.4261,-3.3923,-3.3898,-3.3695,-3.338,-3.3472,-3.353,-3.3111,-3.3136,-3.3136,-3.3136,-3.3136,-3.3136,-3.3136,-3.3136,-3.3136,-3.3136,-3.3136,-3.3136,-3.3136,-3.3136,-3.3136,-3.3136,-3.3136,-3.3136,-3.3269,-3.3162,-3.3119,-3.3345,-3.3621,-3.4098,-3.4801,-3.5182,-3.5633,-3.6107,-3.6405,-3.6405,-3.6405,-3.6405,-3.6782,-3.7437,-3.7965,-3.8391,-3.8994,-3.9521,-3.9697,-3.9697,-3.9697,-3.9697,-3.4312,-3.4632,-3.4844,-3.5411,-3.6287,-3.6555,-3.686,-3.7021,-3.6946,-3.6696,-3.6381,-3.6161,-3.5944,-3.5734,-3.5644,-3.56,-3.56,-3.56,-3.56,-3.56,-3.56,-3.6445,-3.7855,-3.8531,-3.9082,-3.9834,-4.0011,-3.991,-3.9685,-3.9501,-3.9202,-3.8794,-3.8403,-3.7947,-3.7417,-3.6967,-3.6569,-3.6226,-3.5879,-3.5655,-3.5621,-3.5554,-3.5489,-3.5489,-3.5489,-3.5489,-3.5489,-3.5489,-3.5489,-3.5489,-3.5489,-3.5489,-3.5489,-3.5489,-3.5489,-3.5489,-3.5489,-3.5489,-3.5489,-3.5489,-3.5489,-3.5489,-3.5489,-3.5326,-3.4935,-3.4568,-3.4347,-3.4205,-3.4008,-3.3802,-3.3564,-3.3643,-3.353,-3.3154,-3.3136,-3.3136,-3.3136,-3.3136,-3.3136,-3.3136,-3.3136,-3.3136,-3.3136,-3.3136,-3.3136,-3.3136,-3.3136,-3.3136,-3.3136,-3.3136,-3.3136,-3.3136,-3.3136,-3.3136,-3.3136,-3.3319,-3.3596,-3.4299,-3.4956,-3.5579,-3.6179,-3.6355,-3.6405,-3.6405,-3.6405,-3.6933,-3.7538,-3.7839,-3.8266,-3.8969,-3.9697,-3.9697,-3.9697,-3.9697,-3.9697,-3.3873,-3.3903,-3.4531,-3.4725,-3.4847,-3.5902,-3.6185,-3.6089,-3.6357,-3.6305,-3.6045,-3.5898,-3.5734,-3.5622,-3.56,-3.56,-3.56,-3.56,-3.56,-3.56,-3.5701,-3.6411,-3.7889,-3.9208,-3.9834,-3.9901,-3.991,-3.9737,-3.9395,-3.9288,-3.8958,-3.8403,-3.803,-3.7533,-3.6966,-3.6631,-3.6258,-3.5847,-3.5688,-3.5621,-3.5522,-3.5489,-3.5489,-3.5489,-3.5489,-3.5489,-3.5489,-3.5489,-3.5489,-3.5489,-3.5489,-3.5489,-3.5489,-3.5489,-3.5489,-3.5489,-3.5489,-3.5489,-3.5489,-3.5489,-3.5489,-3.5489,-3.5457,-3.5356,-3.5019,-3.467,-3.4444,-3.4405,-3.4125,-3.3831,-3.3628,-3.3627,-3.3488,-3.3197,-3.3136,-3.3136,-3.3136,-3.3136,-3.3136,-3.3136,-3.3136,-3.3136,-3.3136,-3.3136,-3.3136,-3.3136,-3.3136,-3.3136,-3.3136,-3.3136,-3.3136,-3.3136,-3.3136,-3.3136,-3.3136,-3.342,-3.3721,-3.4349,-3.4956,-3.5604,-3.6153,-3.6329,-3.6405,-3.6405,-3.6606,-3.7086,-3.7588,-3.7965,-3.8517,-3.9295,-3.9672,-3.9697,-3.9697,-3.9697,-3.9697,-3.3793,-3.3748,-3.3785,-3.3994,-3.4355,-3.4579,-3.4694,-3.4888,-3.5382,-3.5442,-3.5215,-3.5618,-3.5711,-3.56,-3.56,-3.56,-3.56,-3.56,-3.56,-3.56,-3.56,-3.6479,-3.7956,-3.9377,-4.0011,-3.9884,-3.9833,-3.9711,-3.9315,-3.904,-3.8595,-3.803,-3.7682,-3.7238,-3.6662,-3.6383,-3.607,-3.5752,-3.5589,-3.5554,-3.5489,-3.5489,-3.5489,-3.5489,-3.5489,-3.5489,-3.5489,-3.5489,-3.5489,-3.5489,-3.5489,-3.5489,-3.5489,-3.5489,-3.5489,-3.5489,-3.5489,-3.5489,-3.5489,-3.5489,-3.5489,-3.5457,-3.5419,-3.5337,-3.5405,-3.4923,-3.4803,-3.4843,-3.4477,-3.402,-3.3892,-3.3623,-3.3343,-3.3154,-3.3136,-3.3136,-3.3136,-3.3136,-3.3136,-3.3136,-3.3136,-3.3136,-3.3136,-3.3136,-3.3136,-3.3136,-3.3136,-3.3136,-3.3136,-3.3136,-3.3136,-3.3136,-3.3136,-3.3136,-3.3237,-3.352,-3.3947,-3.455,-3.5127,-3.5705,-3.6107,-3.638,-3.6405,-3.6405,-3.6782,-3.7211,-3.7814,-3.8316,-3.8994,-3.9572,-3.9672,-3.9697,-3.9697,-3.9697,-3.9697,-3.3698,-3.3623,-3.3386,-3.3414,-3.3645,-3.365,-3.3739,-3.4017,-3.4711,-3.4932,-3.4891,-3.5428,-3.5667,-3.56,-3.56,-3.56,-3.56,-3.56,-3.56,-3.5735,-3.6309,-3.7064,-3.8053,-3.9302,-3.9884,-3.9651,-3.9625,-3.9335,-3.8931,-3.8623,-3.823,-3.7711,-3.7298,-3.6846,-3.6414,-3.6101,-3.5878,-3.5653,-3.5522,-3.5489,-3.5489,-3.5489,-3.5489,-3.5489,-3.5489,-3.5489,-3.5489,-3.5489,-3.5489,-3.5489,-3.5489,-3.5489,-3.5489,-3.5489,-3.5489,-3.5489,-3.5489,-3.5489,-3.5489,-3.5489,-3.5489,-3.5517,-3.5535,-3.5592,-3.557,-3.528,-3.5289,-3.5283,-3.459,-3.419,-3.4017,-3.3624,-3.3283,-3.3111,-3.3136,-3.3136,-3.3136,-3.3136,-3.3136,-3.3136,-3.3136,-3.3136,-3.3136,-3.3136,-3.3136,-3.3136,-3.3136,-3.3136,-3.3136,-3.3136,-3.3162,-3.3187,-3.3287,-3.3294,-3.347,-3.3796,-3.4374,-3.4951,-3.5429,-3.5956,-3.6132,-3.6405,-3.6405,-3.6531,-3.691,-3.7362,-3.7914,-3.8467,-3.9044,-3.9446,-3.9597,-3.9697,-3.9697,-3.9697,-3.9697,-3.3601,-3.3481,-3.3268,-3.2972,-3.2827,-3.3142,-3.3139,-3.319,-3.4034,-3.4512,-3.4623,-3.5193,-3.5487,-3.56,-3.56,-3.56,-3.56,-3.56,-3.56,-3.6005,-3.6749,-3.758,-3.7806,-3.9236,-3.967,-3.9388,-3.9282,-3.8931,-3.8516,-3.8173,-3.7799,-3.7328,-3.6876,-3.6538,-3.6164,-3.5847,-3.5653,-3.5554,-3.5489,-3.5489,-3.5489,-3.5489,-3.5489,-3.5489,-3.5489,-3.5489,-3.5489,-3.5489,-3.5489,-3.5489,-3.5489,-3.5489,-3.5489,-3.5489,-3.5489,-3.5489,-3.5489,-3.5489,-3.5489,-3.5489,-3.5579,-3.5696,-3.5978,-3.6094,-3.5881,-3.5813,-3.5629,-3.5487,-3.4619,-3.4132,-3.3808,-3.3411,-3.3154,-3.3136,-3.3136,-3.3136,-3.3136,-3.3136,-3.3136,-3.3136,-3.3136,-3.3136,-3.3136,-3.3136,-3.3136,-3.3136,-3.3136,-3.3136,-3.3212,-3.3312,-3.3294,-3.3319,-3.342,-3.3545,-3.3822,-3.4123,-3.4801,-3.5429,-3.5855,-3.6279,-3.6279,-3.6405,-3.6405,-3.6606,-3.7061,-3.7487,-3.7914,-3.8467,-3.912,-3.9421,-3.9647,-3.9697,-3.9697,-3.9697,-3.9697,-3.3553,-3.3393,-3.3117,-3.2882,-3.2606,-3.2494,-3.2243,-3.2032,-3.2744,-3.3366,-3.377,-3.446,-3.5081,-3.5566,-3.5566,-3.56,-3.56,-3.56,-3.56,-3.5735,-3.6535,-3.7239,-3.7767,-3.9068,-3.9584,-3.9309,-3.9121,-3.8733,-3.823,-3.7831,-3.7449,-3.6876,-3.6631,-3.6289,-3.5879,-3.5752,-3.5623,-3.5522,-3.5489,-3.5489,-3.5489,-3.5489,-3.5489,-3.5489,-3.5489,-3.5489,-3.5489,-3.5489,-3.5489,-3.5489,-3.5489,-3.5489,-3.5489,-3.5489,-3.5489,-3.5489,-3.5489,-3.5489,-3.5489,-3.5519,-3.5729,-3.6144,-3.6115,-3.6246,-3.678,-3.6265,-3.5906,-3.5556,-3.4872,-3.4074,-3.3445,-3.324,-3.3111,-3.3136,-3.3136,-3.3136,-3.3136,-3.3136,-3.3136,-3.3136,-3.3136,-3.3136,-3.3136,-3.3136,-3.3136,-3.3136,-3.3136,-3.3136,-3.3312,-3.347,-3.3621,-3.3721,-3.3897,-3.4098,-3.4449,-3.4751,-3.5303,-3.5755,-3.6179,-3.6405,-3.6405,-3.6405,-3.6405,-3.6782,-3.7262,-3.7663,-3.799,-3.8818,-3.9546,-3.9647,-3.9697,-3.9697,-3.9697,-3.9697,-3.9697,-3.3452,-3.3244,-3.293,-3.2639,-3.2335,-3.2002,-3.171,-3.1621,-3.2128,-3.2571,-3.3106,-3.3964,-3.4709,-3.5092,-3.543,-3.56,-3.56,-3.56,-3.56,-3.5769,-3.64,-3.6868,-3.719,-3.8355,-3.9042,-3.8914,-3.8678,-3.8258,-3.774,-3.7358,-3.6937,-3.6476,-3.6258,-3.5975,-3.572,-3.5623,-3.5587,-3.5522,-3.5489,-3.5489,-3.5489,-3.5489,-3.5489,-3.5489,-3.5489,-3.5489,-3.5489,-3.5489,-3.5489,-3.5489,-3.5489,-3.5489,-3.5489,-3.5489,-3.5489,-3.5489,-3.5489,-3.5489,-3.5489,-3.5519,-3.5789,-3.6447,-3.6378,-3.6641,-3.6961,-3.6694,-3.6225,-3.5641,-3.4909,-3.4063,-3.324,-3.3136,-3.3136,-3.3136,-3.3136,-3.3136,-3.3136,-3.3136,-3.3136,-3.3136,-3.3136,-3.3136,-3.3136,-3.3136,-3.3162,-3.3162,-3.352,-3.352,-3.3696,-3.3922,-3.4173,-3.4324,-3.4455,-3.4705,-3.5056,-3.5454,-3.5855,-3.6132,-3.6304,-3.6405,-3.6405,-3.6405,-3.6405,-3.6832,-3.7211,-3.7713,-3.8165,-3.9044,-3.9672,-3.9697,-3.9697,-3.9697,-3.9697,-3.9697,-3.9697,-3.3283,-3.3024,-3.2721,-3.2387,-3.2037,-3.1747,-3.1504,-3.1434,-3.1893,-3.2158,-3.2496,-3.366,-3.4134,-3.4607,-3.5115,-3.543,-3.56,-3.56,-3.56,-3.5701,-3.6197,-3.6474,-3.6788,-3.7536,-3.8223,-3.8372,-3.8222,-3.7767,-3.7268,-3.6815,-3.6569,-3.6133,-3.5879,-3.572,-3.5653,-3.5587,-3.5489,-3.5489,-3.5489,-3.5489,-3.5489,-3.5489,-3.5489,-3.5489,-3.5489,-3.5489,-3.5489,-3.5489,-3.5489,-3.5489,-3.5489,-3.5489,-3.5489,-3.5489,-3.5489,-3.5489,-3.5489,-3.5489,-3.5489,-3.5549,-3.5818,-3.6503,-3.6635,-3.6921,-3.7111,-3.692,-3.633,-3.5534,-3.4729,-3.3852,-3.3197,-3.3136,-3.3136,-3.3136,-3.3136,-3.3136,-3.3136,-3.3136,-3.3136,-3.3136,-3.3136,-3.3136,-3.3136,-3.3136,-3.3162,-3.3244,-3.3671,-3.3997,-3.4173,-3.4399,-3.47,-3.4977,-3.5177,-3.5353,-3.568,-3.5755,-3.6254,-3.6329,-3.6405,-3.6405,-3.6405,-3.6405,-3.6455,-3.6707,-3.7061,-3.7638,-3.8291,-3.9019,-3.9471,-3.9622,-3.9697,-3.9697,-3.9697,-3.9697,-3.9697,-3.305,-3.275,-3.2589,-3.2284,-3.193,-3.1691,-3.1485,-3.1312,-3.1419,-3.1752,-3.2293,-3.2598,-3.3423,-3.4201,-3.4573,-3.5013,-3.5498,-3.56,-3.56,-3.56,-3.587,-3.5969,-3.6406,-3.6871,-3.7288,-3.7551,-3.7644,-3.7469,-3.7028,-3.6693,-3.6258,-3.5879,-3.572,-3.5653,-3.5587,-3.5519,-3.5489,-3.5489,-3.5489,-3.5489,-3.5489,-3.5489,-3.5489,-3.5489,-3.5489,-3.5489,-3.5489,-3.5489,-3.5489,-3.5489,-3.5489,-3.5489,-3.5489,-3.5489,-3.5489,-3.5489,-3.5489,-3.5489,-3.5489,-3.5549,-3.6048,-3.662,-3.6816,-3.6932,-3.7157,-3.6827,-3.6123,-3.5182,-3.4272,-3.3454,-3.3154,-3.3136,-3.3136,-3.3136,-3.3136,-3.3136,-3.3136,-3.3136,-3.3162,-3.3194,-3.3187,-3.3187,-3.3262,-3.3319,-3.347,-3.3696,-3.4098,-3.4424,-3.4625,-3.4931,-3.5307,-3.5604,-3.5855,-3.6031,-3.6232,-3.6254,-3.638,-3.638,-3.6405,-3.6405,-3.6405,-3.6405,-3.6531,-3.6807,-3.7211,-3.7839,-3.8467,-3.9094,-3.9421,-3.9672,-3.9697,-3.9697,-3.9697,-3.9697,-3.9697,-3.2271,-3.1988,-3.2194,-3.2073,-3.1765,-3.1542,-3.137,-3.1288,-3.123,-3.1413,-3.1785,-3.2124,-3.2666,-3.3444,-3.4269,-3.4912,-3.543,-3.56,-3.56,-3.56,-3.5566,-3.5564,-3.5809,-3.6125,-3.6333,-3.6538,-3.6819,-3.6985,-3.6662,-3.6383,-3.6037,-3.5716,-3.5589,-3.5587,-3.5522,-3.5489,-3.5489,-3.5489,-3.5489,-3.5489,-3.5489,-3.5489,-3.5489,-3.5489,-3.5489,-3.5489,-3.5489,-3.5489,-3.5489,-3.5489,-3.5489,-3.5489,-3.5489,-3.5489,-3.5489,-3.5489,-3.5489,-3.5489,-3.5579,-3.5789,-3.6376,-3.6976,-3.7011,-3.7186,-3.7244,-3.6794,-3.5763,-3.4729,-3.3979,-3.3326,-3.3111,-3.3136,-3.3136,-3.3136,-3.3136,-3.3162,-3.3136,-3.3162,-3.3269,-3.342,-3.3294,-3.3345,-3.3545,-3.3671,-3.3847,-3.4148,-3.448,-3.4781,-3.5056,-3.5479,-3.5855,-3.5981,-3.6157,-3.6207,-3.6405,-3.6405,-3.6405,-3.6405,-3.643,-3.643,-3.6556,-3.6631,-3.6757,-3.6983,-3.7462,-3.8115,-3.8617,-3.922,-3.9471,-3.9697,-3.9697,-3.9697,-3.9697,-3.9697,-3.9697,-3.13,-3.1051,-3.1429,-3.1458,-3.1302,-3.1132,-3.1118,-3.1176,-3.119,-3.119,-3.1258,-3.1785,-3.2158,-3.2699,-3.3761,-3.481,-3.5419,-3.5464,-3.56,-3.5577,-3.5543,-3.5394,-3.5281,-3.5424,-3.5721,-3.5929,-3.6181,-3.6283,-3.6353,-3.6195,-3.5876,-3.5619,-3.5489,-3.5489,-3.5489,-3.5489,-3.5489,-3.5489,-3.5489,-3.5489,-3.5489,-3.5489,-3.5489,-3.5489,-3.5489,-3.5489,-3.5489,-3.5489,-3.5489,-3.5489,-3.5489,-3.5489,-3.5489,-3.5489,-3.5489,-3.5489,-3.5489,-3.5489,-3.5639,-3.6022,-3.6484,-3.6891,-3.7155,-3.7255,-3.6985,-3.6243,-3.5237,-3.4189,-3.3581,-3.3283,-3.3111,-3.3136,-3.3212,-3.3269,-3.3294,-3.3319,-3.3495,-3.3621,-3.3796,-3.3771,-3.3545,-3.3696,-3.4022,-3.4123,-3.4299,-3.463,-3.5006,-3.5353,-3.5629,-3.5906,-3.6254,-3.6304,-3.638,-3.638,-3.6405,-3.6405,-3.6405,-3.6405,-3.6455,-3.648,-3.6707,-3.686,-3.7111,-3.7437,-3.7864,-3.8467,-3.8919,-3.927,-3.9546,-3.9697,-3.9697,-3.9697,-3.9697,-3.9697,-3.9697,-3.0238,-2.9964,-2.985,-3.0003,-3.0348,-3.036,-3.0711,-3.1123,-3.1157,-3.119,-3.119,-3.1326,-3.1752,-3.253,-3.3783,-3.4472,-3.481,-3.5351,-3.56,-3.5611,-3.5498,-3.5314,-3.5157,-3.5449,-3.5578,-3.5664,-3.5972,-3.6162,-3.6198,-3.6068,-3.5844,-3.5554,-3.5489,-3.5489,-3.5489,-3.5489,-3.5489,-3.5489,-3.5489,-3.5489,-3.5489,-3.5489,-3.5489,-3.5489,-3.5489,-3.5489,-3.5489,-3.5489,-3.5489,-3.5489,-3.5489,-3.5489,-3.5489,-3.5489,-3.5489,-3.5489,-3.5489,-3.5489,-3.5636,-3.6075,-3.6492,-3.6728,-3.6808,-3.6647,-3.6219,-3.5359,-3.4314,-3.3598,-3.3283,-3.323,-3.3212,-3.3187,-3.3345,-3.3621,-3.3796,-3.4048,-3.4274,-3.4098,-3.4274,-3.45,-3.4374,-3.4474,-3.4726,-3.4705,-3.4756,-3.5157,-3.5508,-3.583,-3.6056,-3.6304,-3.6405,-3.6405,-3.6405,-3.6405,-3.6405,-3.6405,-3.643,-3.643,-3.6556,-3.6631,-3.6933,-3.7262,-3.7814,-3.8165,-3.8542,-3.8743,-3.912,-3.9371,-3.9622,-3.9697,-3.9697,-3.9697,-3.9697,-3.9697,-3.9697,-2.8682,-2.9019,-2.9283,-2.9451,-2.9631,-2.9965,-3.0315,-3.0635,-3.1021,-3.119,-3.119,-3.119,-3.1616,-3.2429,-3.3423,-3.41,-3.4573,-3.5261,-3.5554,-3.5543,-3.5406,-3.5198,-3.4976,-3.5142,-3.5368,-3.553,-3.5741,-3.5951,-3.6012,-3.6005,-3.5844,-3.5522,-3.5489,-3.5489,-3.5489,-3.5489,-3.5489,-3.5489,-3.5489,-3.5489,-3.5489,-3.5489,-3.5489,-3.5489,-3.5489,-3.5489,-3.5489,-3.5489,-3.5489,-3.5489,-3.5489,-3.5489,-3.5489,-3.5489,-3.5489,-3.5489,-3.5489,-3.5669,-3.6055,-3.6454,-3.6709,-3.6996,-3.6991,-3.6775,-3.5776,-3.4729,-3.3894,-3.3454,-3.324,-3.3262,-3.347,-3.3545,-3.3872,-3.4148,-3.4349,-3.4525,-3.4726,-3.4655,-3.4655,-3.4931,-3.5157,-3.5278,-3.5303,-3.5232,-3.5378,-3.5705,-3.5931,-3.6081,-3.6254,-3.6355,-3.6405,-3.6405,-3.6405,-3.6405,-3.6405,-3.6405,-3.643,-3.6505,-3.6883,-3.7008,-3.7285,-3.7638,-3.8241,-3.8718,-3.9044,-3.922,-3.9372,-3.9446,-3.9672,-3.9697,-3.9697,-3.9697,-3.9697,-3.9697,-3.9798,-2.7495,-2.808,-2.8528,-2.8731,-2.8813,-2.9333,-2.9751,-3.0156,-3.0649,-3.1021,-3.1157,-3.1224,-3.1549,-3.2192,-3.2949,-3.3761,-3.4269,-3.516,-3.5498,-3.5475,-3.5291,-3.5034,-3.4849,-3.489,-3.5048,-3.5197,-3.5507,-3.5738,-3.5855,-3.591,-3.575,-3.5489,-3.5489,-3.5489,-3.5489,-3.5489,-3.5489,-3.5489,-3.5489,-3.5489,-3.5489,-3.5489,-3.5489,-3.5489,-3.5489,-3.5489,-3.5489,-3.5489,-3.5489,-3.5489,-3.5489,-3.5489,-3.5489,-3.5489,-3.5489,-3.5549,-3.5669,-3.6085,-3.6428,-3.6793,-3.704,-3.715,-3.6873,-3.6108,-3.5073,-3.4298,-3.3922,-3.3553,-3.3474,-3.3621,-3.3947,-3.4098,-3.4399,-3.4655,-3.4881,-3.5002,-3.5102,-3.5203,-3.5353,-3.5579,-3.5805,-3.5906,-3.5906,-3.5855,-3.5981,-3.6304,-3.6405,-3.6405,-3.6405,-3.6405,-3.6405,-3.6405,-3.6405,-3.6405,-3.6405,-3.643,-3.6455,-3.6681,-3.6985,-3.7437,-3.7789,-3.8191,-3.8693,-3.912,-3.9446,-3.9521,-3.9521,-3.9622,-3.9697,-3.9697,-3.9697,-3.9697,-3.9697,-3.9697,-3.9998,-2.6926,-2.6994,-2.7096,-2.7437,-2.7909,-2.7925,-2.8804,-2.9905,-3.0142,-3.0615,-3.1157,-3.119,-3.1258,-3.1664,-3.2713,-3.3457,-3.3592,-3.4957,-3.5431,-3.5406,-3.5222,-3.4916,-3.4734,-3.4749,-3.4868,-3.4938,-3.5364,-3.5645,-3.5696,-3.572,-3.5621,-3.5522,-3.5489,-3.5489,-3.5489,-3.5489,-3.5489,-3.5489,-3.5489,-3.5489,-3.5489,-3.5489,-3.5489,-3.5489,-3.5489,-3.5489,-3.5489,-3.5489,-3.5489,-3.5489,-3.5489,-3.5489,-3.5489,-3.5489,-3.5489,-3.5579,-3.6028,-3.6436,-3.6832,-3.6845,-3.6635,-3.6409,-3.5974,-3.5263,-3.4465,-3.381,-3.3571,-3.3758,-3.3715,-3.4048,-3.4424,-3.4726,-3.4906,-3.5278,-3.5529,-3.5629,-3.5755,-3.5977,-3.6128,-3.6279,-3.6329,-3.6304,-3.6304,-3.6132,-3.6107,-3.638,-3.6405,-3.6405,-3.6405,-3.6405,-3.6405,-3.6405,-3.6405,-3.6405,-3.6405,-3.648,-3.6681,-3.7033,-3.741,-3.7939,-3.8542,-3.8894,-3.917,-3.9346,-3.9622,-3.9672,-3.9697,-3.9697,-3.9697,-3.9697,-3.9697,-3.9697,-3.9697,-3.9697,-4.0249,-2.6859,-2.6792,-2.6775,-2.6894,-2.7148,-2.7587,-2.8128,-2.8804,-2.9683,-3.0514,-3.119,-3.119,-3.119,-3.1596,-3.2645,-3.3389,-3.3605,-3.4891,-3.5307,-3.5314,-3.5105,-3.4739,-3.4651,-3.4844,-3.5162,-3.5007,-3.546,-3.5766,-3.5691,-3.5653,-3.5587,-3.5519,-3.5489,-3.5489,-3.5489,-3.5489,-3.5489,-3.5489,-3.5489,-3.5489,-3.5489,-3.5489,-3.5489,-3.5489,-3.5489,-3.5489,-3.5489,-3.5489,-3.5489,-3.5489,-3.5489,-3.5489,-3.5489,-3.5489,-3.5489,-3.5579,-3.6178,-3.6637,-3.6956,-3.6957,-3.6909,-3.6291,-3.5614,-3.4797,-3.4131,-3.3666,-3.3647,-3.3758,-3.3972,-3.4349,-3.5031,-3.5207,-3.5382,-3.5855,-3.6081,-3.6157,-3.6279,-3.638,-3.6405,-3.638,-3.6405,-3.638,-3.638,-3.638,-3.638,-3.6405,-3.6405,-3.6405,-3.6405,-3.6405,-3.6405,-3.648,-3.6505,-3.6531,-3.6531,-3.6732,-3.6983,-3.741,-3.7813,-3.8341,-3.8919,-3.927,-3.9521,-3.9672,-3.9697,-3.9697,-3.9697,-3.9697,-3.9697,-3.9697,-3.9697,-3.9697,-3.9697,-3.9722,-4.0375,-2.6792,-2.6691,-2.6691,-2.6691,-2.6759,-2.7266,-2.7621,-2.8027,-2.9176,-3.0345,-3.1157,-3.119,-3.119,-3.1596,-3.2713,-3.3389,-3.3753,-3.4734,-3.5238,-3.5222,-3.5011,-3.4618,-3.4688,-3.4904,-3.5187,-3.5047,-3.5554,-3.5943,-3.5621,-3.5554,-3.5489,-3.5489,-3.5489,-3.5489,-3.5489,-3.5489,-3.5489,-3.5489,-3.5489,-3.5489,-3.5489,-3.5489,-3.5489,-3.5489,-3.5489,-3.5489,-3.5489,-3.5489,-3.5489,-3.5489,-3.5489,-3.5489,-3.5489,-3.5489,-3.5489,-3.5759,-3.6234,-3.6752,-3.691,-3.7034,-3.694,-3.6172,-3.5332,-3.4605,-3.4089,-3.3709,-3.3777,-3.4167,-3.4324,-3.4751,-3.5633,-3.5805,-3.5855,-3.6207,-3.6279,-3.6355,-3.6355,-3.6405,-3.6405,-3.6405,-3.6405,-3.6405,-3.643,-3.643,-3.648,-3.6455,-3.6405,-3.6405,-3.6405,-3.6405,-3.6405,-3.6505,-3.6631,-3.6656,-3.6707,-3.7134,-3.7538,-3.8014,-3.8416,-3.8718,-3.9195,-3.9546,-3.9697,-3.9697,-3.9697,-3.9697,-3.9697,-3.9697,-3.9697,-3.9697,-3.9697,-3.9697,-3.9798,-3.9898,-4.045,-2.6708,-2.6691,-2.6691,-2.6691,-2.6691,-2.6725,-2.7131,-2.7756,-2.8721,-2.9924,-3.1089,-3.119,-3.119,-3.1495,-3.2645,-3.322,-3.3651,-3.4745,-3.5316,-3.5188,-3.4835,-3.4472,-3.4549,-3.4822,-3.5089,-3.4844,-3.54,-3.5814,-3.5522,-3.5489,-3.5489,-3.5489,-3.5489,-3.5489,-3.5489,-3.5489,-3.5489,-3.5489,-3.5489,-3.5489,-3.5489,-3.5489,-3.5489,-3.5489,-3.5489,-3.5489,-3.5489,-3.5489,-3.5489,-3.5489,-3.5489,-3.5489,-3.5489,-3.5489,-3.5519,-3.5669,-3.6716,-3.7109,-3.6928,-3.7014,-3.6615,-3.5884,-3.51,-3.4356,-3.3913,-3.3842,-3.4042,-3.4449,-3.4931,-3.5579,-3.6056,-3.6329,-3.6355,-3.638,-3.6405,-3.6405,-3.6405,-3.6405,-3.6405,-3.6405,-3.6405,-3.643,-3.643,-3.648,-3.6531,-3.6531,-3.6455,-3.6455,-3.6531,-3.6732,-3.6832,-3.6908,-3.7036,-3.7086,-3.7262,-3.7688,-3.814,-3.8567,-3.8919,-3.9195,-3.9371,-3.9597,-3.9697,-3.9697,-3.9697,-3.9697,-3.9697,-3.9697,-3.9697,-3.9697,-3.9697,-3.9722,-3.9848,-4.0124,-4.0651,-2.6691,-2.6691,-2.6691,-2.6691,-2.6691,-2.6691,-2.686,-2.7266,-2.8434,-2.9822,-3.0954,-3.119,-3.119,-3.1529,-3.2138,-3.2949,-3.355,-3.4063,-3.4666,-3.5095,-3.4691,-3.4558,-3.4579,-3.4766,-3.4953,-3.5094,-3.5548,-3.5718,-3.5489,-3.5489,-3.5489,-3.5489,-3.5489,-3.5489,-3.5489,-3.5489,-3.5489,-3.5489,-3.5489,-3.5489,-3.5489,-3.5489,-3.5489,-3.5489,-3.5489,-3.5489,-3.5489,-3.5489,-3.5489,-3.5489,-3.5489,-3.5489,-3.5489,-3.5489,-3.5699,-3.6118,-3.7041,-3.754,-3.7456,-3.7377,-3.6598,-3.575,-3.4936,-3.423,-3.3777,-3.3857,-3.4167,-3.47,-3.5303,-3.583,-3.6254,-3.6355,-3.6405,-3.6405,-3.6405,-3.6405,-3.6405,-3.6405,-3.6405,-3.6405,-3.6405,-3.6681,-3.6782,-3.691,-3.696,-3.7086,-3.7159,-3.7008,-3.7033,-3.7362,-3.7588,-3.7588,-3.7663,-3.7713,-3.7864,-3.8266,-3.8517,-3.8843,-3.9195,-3.9496,-3.9647,-3.9697,-3.9697,-3.9697,-3.9697,-3.9697,-3.9697,-3.9697,-3.9697,-3.9697,-3.9772,-3.9948,-4.0174,-4.045,-4.0852,-2.6319,-2.6353,-2.659,-2.6691,-2.6691,-2.6691,-2.6826,-2.7266,-2.8468,-2.9721,-3.0683,-3.1055,-3.119,-3.1393,-3.1955,-3.2699,-3.3415,-3.3973,-3.4497,-3.4934,-3.4546,-3.4522,-3.4611,-3.4764,-3.4959,-3.5248,-3.5484,-3.5653,-3.5489,-3.5489,-3.5489,-3.5489,-3.5489,-3.5489,-3.5489,-3.5489,-3.5489,-3.5489,-3.5489,-3.5489,-3.5489,-3.5489,-3.5489,-3.5489,-3.5489,-3.5489,-3.5489,-3.5489,-3.5489,-3.5489,-3.5489,-3.5489,-3.5519,-3.5579,-3.5848,-3.6447,-3.707,-3.7575,-3.7659,-3.7127,-3.6322,-3.5507,-3.4771,-3.4334,-3.4059,-3.4211,-3.4519,-3.4956,-3.5479,-3.5881,-3.6329,-3.6405,-3.6405,-3.6405,-3.6405,-3.6405,-3.6405,-3.6405,-3.6405,-3.6405,-3.6505,-3.6807,-3.7235,-3.7387,-3.7538,-3.7713,-3.7864,-3.7713,-3.7563,-3.7864,-3.8165,-3.8165,-3.8241,-3.8291,-3.8492,-3.8843,-3.9044,-3.9145,-3.9396,-3.9672,-3.9697,-3.9697,-3.9697,-3.9697,-3.9697,-3.9697,-3.9697,-3.9697,-3.9722,-3.9823,-3.9948,-4.0174,-4.0475,-4.0827,-4.1178,-2.5609,-2.5694,-2.6387,-2.6657,-2.6691,-2.6691,-2.7097,-2.7824,-2.8619,-2.9431,-3.0176,-3.092,-3.119,-3.1326,-3.1921,-3.2611,-3.3271,-3.3851,-3.4407,-3.4707,-3.4448,-3.4542,-3.4659,-3.477,-3.4995,-3.5278,-3.5514,-3.5589,-3.5489,-3.5489,-3.5489,-3.5489,-3.5489,-3.5489,-3.5489,-3.5489,-3.5489,-3.5489,-3.5489,-3.5489,-3.5489,-3.5489,-3.5489,-3.5489,-3.5489,-3.5489,-3.5489,-3.5489,-3.5489,-3.5489,-3.5489,-3.5549,-3.5549,-3.5549,-3.5968,-3.6552,-3.7299,-3.7579,-3.7501,-3.6844,-3.6044,-3.5304,-3.4688,-3.45,-3.4469,-3.4471,-3.4821,-3.5328,-3.583,-3.6107,-3.6405,-3.6405,-3.6405,-3.6405,-3.6405,-3.6405,-3.6405,-3.6405,-3.6405,-3.6455,-3.6531,-3.6857,-3.7536,-3.7814,-3.814,-3.8442,-3.8567,-3.8542,-3.8391,-3.8291,-3.8517,-3.8542,-3.8642,-3.8919,-3.9145,-3.9295,-3.9371,-3.9421,-3.9496,-3.9697,-3.9697,-3.9697,-3.9697,-3.9697,-3.9697,-3.9697,-3.9697,-3.9722,-3.9747,-3.9898,-4.0149,-4.0425,-4.0752,-4.1178,-4.158,-2.5101,-2.5609,-2.5812,-2.6218,-2.6657,-2.6691,-2.7114,-2.7858,-2.8653,-2.9397,-3.0123,-3.0886,-3.1123,-3.1224,-3.1447,-3.2246,-3.2841,-3.3372,-3.3948,-3.4206,-3.4243,-3.4599,-3.4731,-3.4792,-3.5063,-3.5429,-3.5659,-3.5554,-3.5489,-3.5489,-3.5489,-3.5489,-3.5489,-3.5489,-3.5489,-3.5489,-3.5489,-3.5489,-3.5489,-3.5489,-3.5489,-3.5489,-3.5489,-3.5489,-3.5489,-3.5489,-3.5489,-3.5489,-3.5489,-3.5489,-3.5519,-3.5639,-3.6207,-3.6267,-3.6563,-3.755,-3.7987,-3.8094,-3.7567,-3.6794,-3.5924,-3.5141,-3.4522,-3.4314,-3.4328,-3.4603,-3.4956,-3.5579,-3.6031,-3.6329,-3.6405,-3.6405,-3.6405,-3.6405,-3.6405,-3.6405,-3.6405,-3.6405,-3.643,-3.6631,-3.6707,-3.736,-3.7989,-3.8391,-3.8743,-3.9094,-3.9245,-3.9195,-3.912,-3.8994,-3.8944,-3.8944,-3.9044,-3.9245,-3.9371,-3.9546,-3.9622,-3.9672,-3.9697,-3.9697,-3.9697,-3.9697,-3.9697,-3.9697,-3.9697,-3.9697,-3.9697,-3.9772,-3.9923,-4.0174,-4.045,-4.0727,-4.1053,-4.148,-4.1957,-2.4338,-2.4797,-2.5356,-2.6015,-2.6623,-2.6691,-2.6996,-2.7469,-2.818,-2.8958,-2.9702,-3.0412,-3.09,-3.1098,-3.1179,-3.1672,-3.2545,-3.2818,-3.3323,-3.3728,-3.3953,-3.4484,-3.4726,-3.4744,-3.5064,-3.5517,-3.5716,-3.5489,-3.5489,-3.5489,-3.5489,-3.5489,-3.5489,-3.5489,-3.5489,-3.5489,-3.5489,-3.5489,-3.5489,-3.5489,-3.5489,-3.5489,-3.5489,-3.5489,-3.5489,-3.5489,-3.5489,-3.5489,-3.5519,-3.5579,-3.5639,-3.6028,-3.6626,-3.6896,-3.7173,-3.8003,-3.8135,-3.7898,-3.7327,-3.652,-3.5683,-3.4977,-3.4298,-3.4212,-3.435,-3.4645,-3.5203,-3.5805,-3.6107,-3.6405,-3.6405,-3.6405,-3.6405,-3.6405,-3.6405,-3.6405,-3.6405,-3.6405,-3.6581,-3.6807,-3.7285,-3.7964,-3.8467,-3.8919,-3.9245,-3.9421,-3.9521,-3.9521,-3.9496,-3.9446,-3.9396,-3.9396,-3.9471,-3.9597,-3.9697,-3.9697,-3.9697,-3.9697,-3.9697,-3.9697,-3.9697,-3.9697,-3.9697,-3.9697,-3.9697,-3.9722,-3.9772,-3.9998,-4.0199,-4.0501,-4.0902,-4.1329,-4.158,-4.1781,-4.2283,-2.3361,-2.3579,-2.4984,-2.5981,-2.659,-2.6657,-2.6725,-2.6793,-2.7435,-2.8213,-2.9077,-2.9785,-3.047,-3.0951,-3.1026,-3.1286,-3.1953,-3.2387,-3.2774,-3.3185,-3.3565,-3.4143,-3.4623,-3.4597,-3.4973,-3.5485,-3.5716,-3.5489,-3.5489,-3.5489,-3.5489,-3.5489,-3.5489,-3.5489,-3.5489,-3.5489,-3.5489,-3.5489,-3.5489,-3.5489,-3.5489,-3.5489,-3.5489,-3.5489,-3.5489,-3.5489,-3.5489,-3.5519,-3.5549,-3.5789,-3.6058,-3.6417,-3.7105,-3.7764,-3.8121,-3.8066,-3.8201,-3.7776,-3.7134,-3.631,-3.5399,-3.4647,-3.4004,-3.4066,-3.4224,-3.4575,-3.5152,-3.5906,-3.6355,-3.6405,-3.6405,-3.6405,-3.6405,-3.6405,-3.6405,-3.6405,-3.6405,-3.6581,-3.6908,-3.7186,-3.7764,-3.8417,-3.8919,-3.9346,-3.9421,-3.9647,-3.9697,-3.9697,-3.9697,-3.9697,-3.9697,-3.9697,-3.9697,-3.9697,-3.9697,-3.9697,-3.9697,-3.9697,-3.9697,-3.9697,-3.9697,-3.9697,-3.9697,-3.9697,-3.9697,-3.9798,-3.9898,-4.0149,-4.0526,-4.0978,-4.143,-4.2011,-4.2263,-4.2258,-4.2459,-2.2815,-2.3471,-2.4968,-2.5728,-2.5947,-2.6454,-2.6641,-2.6657,-2.6775,-2.767,-2.8924,-2.9661,-3.0292,-3.0804,-3.0818,-3.1054,-3.145,-3.1997,-3.2414,-3.2779,-3.3131,-3.3779,-3.4488,-3.4358,-3.482,-3.5389,-3.5619,-3.5489,-3.5489,-3.5489,-3.5489,-3.5489,-3.5489,-3.5489,-3.5489,-3.5489,-3.5489,-3.5489,-3.5489,-3.5489,-3.5489,-3.5489,-3.5489,-3.5489,-3.5489,-3.5489,-3.5489,-3.5489,-3.5818,-3.6207,-3.639,-3.7019,-3.7883,-3.8721,-3.8865,-3.859,-3.831,-3.7729,-3.7056,-3.6191,-3.5345,-3.4605,-3.4056,-3.3972,-3.4098,-3.4469,-3.5077,-3.5881,-3.6405,-3.6405,-3.6405,-3.6405,-3.6405,-3.6405,-3.6405,-3.6405,-3.643,-3.6807,-3.7161,-3.7713,-3.8266,-3.8793,-3.9295,-3.9546,-3.9647,-3.9697,-3.9697,-3.9697,-3.9697,-3.9697,-3.9697,-3.9697,-3.9697,-3.9697,-3.9697,-3.9697,-3.9697,-3.9697,-3.9697,-3.9697,-3.9697,-3.9697,-3.9697,-3.9697,-3.9722,-3.9948,-4.0199,-4.0375,-4.0802,-4.1354,-4.1831,-4.2363,-4.264,-4.2685,-4.2785,-2.2281,-2.2847,-2.4016,-2.4922,-2.5529,-2.5949,-2.6286,-2.6521,-2.6486,-2.7141,-2.8303,-2.9024,-2.9705,-3.0343,-3.0468,-3.0516,-3.0915,-3.1602,-3.1814,-3.2137,-3.2736,-3.3353,-3.3732,-3.4057,-3.4516,-3.5053,-3.5437,-3.5489,-3.5489,-3.5489,-3.5489,-3.5489,-3.5489,-3.5489,-3.5489,-3.5489,-3.5489,-3.5489,-3.5489,-3.5489,-3.5489,-3.5489,-3.5489,-3.5489,-3.5489,-3.5489,-3.5489,-3.5519,-3.5878,-3.6567,-3.7015,-3.7823,-3.8601,-3.914,-3.9133,-3.8804,-3.836,-3.7834,-3.7056,-3.6191,-3.5345,-3.4605,-3.3979,-3.3819,-3.3985,-3.4354,-3.4931,-3.573,-3.6304,-3.6405,-3.6405,-3.6405,-3.6405,-3.6405,-3.6405,-3.6405,-3.6556,-3.6857,-3.7287,-3.7839,-3.8417,-3.8969,-3.9396,-3.9622,-3.9697,-3.9697,-3.9697,-3.9697,-3.9697,-3.9697,-3.9697,-3.9697,-3.9697,-3.9697,-3.9697,-3.9697,-3.9697,-3.9697,-3.9697,-3.9722,-3.9722,-3.9697,-3.9697,-3.9948,-4.0174,-4.0375,-4.0601,-4.0877,-4.1254,-4.1861,-4.2288,-4.269,-4.2836,-4.2986,-4.2986,-2.1886,-2.203,-2.2839,-2.3974,-2.5146,-2.5363,-2.5765,-2.6315,-2.6312,-2.654,-2.7271,-2.8177,-2.8832,-2.945,-3.0021,-2.9956,-3.0257,-3.1133,-3.1324,-3.1483,-3.2178,-3.2838,-3.3291,-3.3636,-3.4302,-3.4871,-3.5314,-3.5429,-3.5489,-3.5489,-3.5489,-3.5489,-3.5489,-3.5489,-3.5489,-3.5489,-3.5489,-3.5489,-3.5489,-3.5489,-3.5489,-3.5489,-3.5489,-3.5489,-3.5489,-3.5489,-3.5489,-3.5699,-3.5968,-3.6836,-3.7764,-3.8571,-3.902,-3.9313,-3.9096,-3.8833,-3.8427,-3.7825,-3.7056,-3.6191,-3.5345,-3.4538,-3.3995,-3.3785,-3.3928,-3.4374,-3.4906,-3.5403,-3.5956,-3.6405,-3.6405,-3.6405,-3.6405,-3.643,-3.643,-3.6505,-3.6732,-3.6985,-3.7538,-3.809,-3.8642,-3.922,-3.9421,-3.9647,-3.9697,-3.9697,-3.9697,-3.9697,-3.9697,-3.9697,-3.9697,-3.9697,-3.9697,-3.9697,-3.9697,-3.9697,-3.9697,-3.9697,-3.9697,-3.9747,-3.9823,-3.9948,-4.0174,-4.0526,-4.0727,-4.0902,-4.1254,-4.1605,-4.1982,-4.2288,-4.2564,-4.2866,-4.2861,-4.2986,-4.2986,-2.1708,-2.1908,-2.2682,-2.3532,-2.4315,-2.4946,-2.5561,-2.6033,-2.6008,-2.6034,-2.6386,-2.7388,-2.8335,-2.9165,-2.9696,-2.9738,-2.9671,-3.06,-3.0767,-3.0758,-3.1801,-3.241,-3.2879,-3.3427,-3.436,-3.4986,-3.5432,-3.5459,-3.5489,-3.5489,-3.5489,-3.5489,-3.5489,-3.5489,-3.5489,-3.5489,-3.5489,-3.5489,-3.5489,-3.5489,-3.5489,-3.5489,-3.5489,-3.5489,-3.5489,-3.5489,-3.5609,-3.6058,-3.6596,-3.7404,-3.8392,-3.908,-3.9313,-3.9373,-3.9192,-3.8833,-3.8427,-3.7787,-3.7017,-3.6191,-3.5345,-3.4481,-3.3979,-3.3539,-3.382,-3.4274,-3.4726,-3.5052,-3.5604,-3.6279,-3.6405,-3.6405,-3.6405,-3.643,-3.6455,-3.6732,-3.7008,-3.7487,-3.8065,-3.8592,-3.9094,-3.9421,-3.9572,-3.9697,-3.9697,-3.9697,-3.9697,-3.9697,-3.9697,-3.9697,-3.9697,-3.9697,-3.9697,-3.9697,-3.9697,-3.9697,-3.9697,-3.9697,-3.9772,-3.9948,-4.0124,-4.035,-4.0601,-4.1053,-4.1254,-4.1404,-4.1781,-4.2183,-4.2384,-4.2665,-4.2785,-4.2961,-4.2986,-4.3087,-4.3162]},{"header":{"parameterUnit":"m.s-1","parameterCategory":1,"la1":31.0,"la2":29.5877,"lo1":-88.7671,"lo2":-86.6584,"dy":0.0162,"dx":0.0185,"nx":115,"ny":88,"refTime":"2023-03-07T18:00:00:Z","depth":0,"parameterNumber":3,"parameterNumberName":"V-component_of_WINDS"},"data":[0.0,0.0,0.0,0.0,0.0,0.0,0.0,0.0,0.0,0.0,0.0,0.0,0.0,0.0,0.0,0.0,0.0,0.0,0.0,0.0,0.0,0.0,0.0,0.0,0.0,0.0,0.0,0.0,0.0,0.0,0.0,0.0,0.0,0.0,0.0,0.0,0.0,0.0,0.0,0.0,0.0,0.0,0.0,0.0,0.0,0.0,0.0,0.0,0.0,0.0,0.0,0.0,0.0,0.0,0.0,0.0,0.0,0.0,0.0,0.0,0.0,0.0,0.0,0.0,0.0,0.0,0.0,0.0,0.0,0.0,0.0,0.0,0.0,0.0,0.0,0.0,0.0,0.0,0.0,0.0,0.0,0.0,0.0,0.0,0.0,0.0,0.0,0.0,0.0,0.0,0.0,0.0,0.0,0.0,0.0,0.0,0.0,0.0,0.0,0.0,0.0,0.0,0.0,0.0,0.0,0.0,0.0,0.0,0.0,0.0,0.0,0.0,0.0,0.0,0.0,0.0,0.0,0.0,0.0,0.0,0.0,0.0,0.0,0.0,0.0,0.0,0.0,0.0,0.0,0.0,0.0,0.0,0.0,0.0,0.0,0.0,0.0,0.0,0.0,0.0,0.0,0.0,0.0,0.0,0.0,0.0,0.0,0.0,0.0,0.0,0.0,0.0,0.0,0.0,0.0,0.0,0.0,0.0,0.0,0.0,0.0,0.0,0.0,0.0,0.0,0.0,0.0,0.0,0.0,0.0,0.0,0.0,0.0,0.0,0.0,0.0,0.0,0.0,0.0,0.0,0.0,0.0,0.0,0.0,0.0,0.0,0.0,0.0,0.0,0.0,0.0,0.0,0.0,0.0,0.0,0.0,0.0,0.0,0.0,0.0,0.0,0.0,0.0,0.0,0.0,0.0,0.0,0.0,0.0,0.0,0.0,0.0,0.0,0.0,0.0,0.0,0.0,0.0,0.0,0.0,0.0,0.0,0.0,0.0,0.0,0.0,0.0,0.0,0.0,0.0,0.0,0.0,0.0,0.0,0.0,0.0,0.0,0.0,0.0,0.0,0.0,0.0,0.0,0.0,0.0,0.0,0.0,0.0,0.0,0.0,0.0,0.0,0.0,0.0,0.0,0.0,0.0,0.0,0.0,0.0,0.0,0.0,0.0,0.0,0.0,0.0,0.0,0.0,0.0,0.0,0.0,0.0,0.0,0.0,0.0,0.0,0.0,0.0,0.0,0.0,0.0,0.0,0.0,0.0,0.0,0.0,0.0,0.0,0.0,0.0,0.0,0.0,0.0,0.0,0.0,0.0,0.0,0.0,0.0,0.0,0.0,0.0,0.0,0.0,0.0,0.0,0.0,0.0,0.0,0.0,0.0,0.0,0.0,0.0,0.0,0.0,0.0,0.0,0.0,0.0,0.0,0.0,0.0,0.0,0.0,0.0,0.0,0.0,0.0,0.0,0.0,0.0,0.0,0.0,0.0,0.0,0.0,0.0,0.0,0.0,0.0,0.0,0.0,0.0,0.0,0.0,0.0,0.0,0.0,0.0,0.0,0.0,0.0,0.0,0.0,0.0,0.0,0.0,0.0,0.0,0.0,0.0,0.0,0.0,0.0,0.0,0.0,0.0,0.0,0.0,0.0,0.0,0.0,0.0,0.0,0.0,0.0,0.0,0.0,0.0,0.0,0.0,0.0,0.0,0.0,0.0,0.0,0.0,0.0,0.0,0.0,0.0,0.0,0.0,0.0,0.0,0.0,0.0,0.0,0.0,0.0,0.0,0.0,0.0,0.0,0.0,0.0,0.0,0.0,0.0,0.0,0.0,0.0,0.0,0.0,0.0,0.0,0.0,0.0,0.0,0.0,0.0,0.0,0.0,0.0,0.0,0.0,0.0,0.0,0.0,0.0,0.0,0.0,0.0,0.0,0.0,0.0,0.0,0.0,0.0,0.0,0.0,0.0,0.0,0.0,0.0,0.0,0.0,0.0,0.0,0.0,0.0,0.0,0.0,0.0,0.0,0.0,0.0,0.0,0.0,0.0,0.0,0.0,0.0,0.0,0.0,0.0,0.0,0.0,0.0,0.0,0.0,0.0,0.0,0.0,0.0,0.0,0.0,0.0,0.0,0.0,0.0,0.0,0.0,0.0,0.0,0.0,0.0,0.0,0.0,0.0,0.0,0.0,0.0,0.0,0.0,0.0,0.0,0.0,0.0,0.0,0.0,0.0,0.0,0.0,0.0,0.0,0.0,0.0,0.0,0.0,0.0,0.0,0.0,0.0,0.0,0.0,0.0,0.0,0.0,0.0,0.0,0.0,0.0,0.0,0.0,0.0,0.0,0.0,0.0,0.0,0.0,0.0,0.0,0.0,0.0,0.0,0.0,0.0,0.0,0.0,0.0,0.0,0.0,0.0,0.0,0.0,0.0,0.0,0.0,0.0,0.0,0.0,0.0,0.0,0.0,0.0,0.0,0.0,0.0,0.0,0.0,0.0,0.0,0.0,0.0,0.0,0.0,0.0,0.0,0.0,0.0,0.0,0.0,0.0,0.0,0.0,0.0,0.0,0.0,0.0,0.0,0.0,0.0,0.0,0.0,0.0,0.0,0.0,0.0,0.0,0.0,0.0,0.0,0.0,0.0,0.0,0.0,0.0,0.0,0.0,0.0,0.0,0.0,0.0,0.0,0.0,0.0,0.0,0.0,0.0,0.0,0.0,0.0,0.0,0.0,0.0,0.0,0.0,0.0,0.0,0.0,0.0,0.0,0.0,0.0,0.0,0.0,0.0,0.0,0.0,0.0,0.0,0.0,0.0,0.0,0.0,0.0,0.0,0.0,0.0,0.0,0.0,0.0,0.0,0.0,0.0,0.0,0.0,0.0,0.0,0.0,0.0,0.0,0.0,0.0,0.0,0.0,0.0,0.0,0.0,0.0,0.0,0.0,0.0,0.0,0.0,0.0,0.0,0.0,0.0,0.0,0.0,0.0,0.0,0.0,0.0,0.0,0.0,0.0,0.0,0.0,0.0,0.0,0.0,0.0,0.0,0.0,0.0,0.0,0.0,0.0,0.0,0.0,0.0,0.0,0.0,0.0,0.0,0.0,0.0,0.0,0.0,0.0,0.0,0.0,0.0,0.0,0.0,0.0,0.0,0.0,0.0,0.0,0.0,0.0,0.0,0.0,0.0,0.0,0.0,0.0,0.0,0.0,0.0,0.0,0.0,0.0,0.0,0.0,0.0,0.0,0.0,0.0,0.0,0.0,0.0,0.0,0.0,0.0,0.0,0.0,0.0,0.0,0.0,0.0,0.0,0.0,0.0,0.0,0.0,0.0,0.0,0.0,0.0,0.0,0.0,0.0,0.0,0.0,0.0,0.0,0.0,0.0,0.0,0.0,0.0,0.0,0.0,0.0,0.0,0.0,0.0,0.0,0.0,0.0,0.0,0.0,0.0,0.0,0.0,0.0,0.0,0.0,0.0,0.0,0.0,0.0,0.0,0.0,0.0,0.0,0.0,0.0,0.0,0.0,0.0,0.0,0.0,0.0,0.0,0.0,0.0,0.0,0.0,0.0,0.0,0.0,0.0,0.0,0.0,0.0,0.0,0.0,0.0,0.0,0.0,0.0,0.0,0.0,0.0,0.0,0.0,0.0,0.0,0.0,0.0,0.0,0.0,0.0,0.0,0.0,0.0,0.0,0.0,0.0,0.0,0.0,0.0,0.0,0.0,0.0,0.0,0.0,0.0,0.0,0.0,0.0,0.0,0.0,0.0,0.0,0.0,0.0,0.0,0.0,0.0,0.0,0.0,0.0,0.0,0.0,0.0,0.0,0.0,0.0,0.0,0.0,0.0,0.0,0.0,0.0,0.0,0.0,0.0,0.0,0.0,0.0,0.0,0.0,0.0,0.0,0.0,0.0,0.0,0.0,0.0,0.0,0.0,0.0,0.0,0.0,0.0,0.0,0.0,0.0,0.0,0.0,0.0,0.0,0.0,0.0,0.0,0.0,0.0,0.0,0.0,0.0,0.0,0.0,0.0,0.0,0.0,0.0,0.0,0.0,0.0,0.0,0.0,0.0,0.0,0.0,0.0,0.0,0.0,0.0,0.0,0.0,0.0,0.0,0.0,0.0,0.0,0.0,0.0,0.0,0.0,0.0,0.0,0.0,0.0,0.0,0.0,0.0,0.0,0.0,0.0,0.0,0.0,0.0,0.0,0.0,0.0,0.0,0.0,0.0,0.0,0.0,0.0,0.0,0.0,0.0,0.0,0.0,0.0,0.0,1.2177,0.0,0.0,0.0,0.0,0.0,0.0,0.0,0.0,0.0,0.0,0.0,0.0,0.0,0.0,0.0,0.0,0.0,0.0,0.0,0.0,0.0,0.0,0.0,0.0,0.0,0.0,0.0,0.0,0.0,0.0,0.0,0.0,0.0,0.0,0.0,0.0,0.0,0.0,0.0,0.0,0.0,0.0,0.0,0.0,0.0,0.0,0.0,0.0,0.0,0.0,0.0,0.0,0.0,0.0,0.0,0.0,0.0,0.0,0.0,0.0,0.0,0.0,0.0,0.0,0.0,0.0,0.0,0.0,0.0,0.0,0.0,0.0,0.0,0.0,0.0,0.0,0.0,0.0,0.0,0.0,0.0,0.0,0.0,0.0,0.0,0.0,0.0,0.0,0.0,0.0,0.0,0.0,0.0,0.0,0.0,0.0,0.0,0.0,0.0,0.0,0.0,0.0,0.0,0.0,0.0,0.0,0.0,0.0,0.0,0.0,0.9731,1.0404,1.1192,1.1827,1.2266,0.0,0.0,0.0,0.0,0.0,0.0,0.0,0.0,0.0,0.0,0.0,0.0,0.0,0.0,0.0,0.0,0.0,0.0,0.0,0.0,0.0,0.0,0.0,0.0,0.0,0.0,0.0,0.0,0.0,0.0,0.0,0.0,0.0,0.0,0.0,0.0,0.0,0.0,0.0,0.0,0.0,0.0,0.0,0.0,0.0,0.0,0.0,0.0,0.0,0.0,0.0,0.0,0.0,0.0,0.0,0.0,0.0,0.0,0.0,0.0,0.0,0.0,0.0,0.0,0.0,0.0,0.0,0.0,0.0,0.0,0.0,0.0,0.0,0.0,0.0,0.0,0.0,0.0,0.0,0.0,0.0,0.0,0.0,0.0,0.0,0.0,0.0,0.0,0.0,0.0,0.0,0.0,0.0,0.0,0.0,0.0,0.0,0.0,0.0,0.0,0.0,0.0,0.0,0.0,0.0,0.0,0.0,0.0,0.0,0.0,0.0,0.0,1.153,1.2198,1.2734,0.0,0.0,0.0,0.0,0.0,0.0,0.0,0.0,0.0,0.0,0.0,0.0,0.0,0.0,0.0,0.0,0.0,0.0,0.0,0.0,0.0,0.0,0.0,0.0,0.0,0.0,0.0,0.0,0.0,0.0,0.0,0.0,0.0,0.0,0.0,0.0,0.0,0.0,0.0,0.0,0.0,0.0,0.0,0.0,0.0,0.0,0.0,0.0,0.0,0.0,0.0,0.0,0.0,0.0,0.0,0.0,0.0,0.0,0.0,0.0,0.0,0.0,0.0,0.0,0.0,0.0,0.0,0.0,0.0,0.0,0.0,0.0,0.0,0.0,0.0,0.0,0.0,0.0,0.0,0.0,0.0,0.0,0.0,0.0,0.0,0.0,0.0,0.0,0.0,0.0,0.0,0.0,0.0,0.0,0.0,0.0,0.0,0.0,0.0,0.0,0.0,0.0,0.0,0.0,0.0,0.0,0.0,0.0,0.0,0.0,1.1051,1.1834,1.2543,0.0,1.394,0.0,0.0,0.0,0.0,0.0,0.0,0.0,0.0,0.0,0.0,0.0,0.0,0.0,0.0,0.0,0.0,0.0,0.0,0.0,0.0,0.0,0.0,0.0,0.0,0.0,0.0,0.0,0.0,0.0,0.0,0.0,0.0,0.0,0.0,0.0,0.0,0.0,0.0,0.0,0.0,0.0,0.0,0.0,0.0,0.0,0.0,0.0,0.0,0.0,0.0,0.0,0.0,0.0,0.0,0.0,0.0,0.0,0.0,0.0,0.0,0.0,0.0,0.0,0.0,0.0,0.0,0.0,0.0,0.0,0.0,0.0,0.0,0.0,0.0,0.0,0.0,0.0,0.0,0.0,0.0,0.0,0.0,0.0,0.0,0.0,0.0,0.0,0.0,0.0,0.0,0.0,0.0,0.0,0.0,0.0,0.0,0.0,0.0,0.0,0.0,0.0,0.0,0.0,0.0,0.0,0.0,0.0,0.0,0.0,0.0,1.1736,1.2224,1.2953,1.3691,0.0,0.0,0.0,0.0,0.0,0.0,0.0,0.0,0.0,0.0,0.0,0.0,0.0,0.0,0.0,0.0,0.0,0.0,0.0,0.0,0.0,0.0,0.0,0.0,0.0,0.0,0.0,0.0,0.0,0.0,0.0,0.0,0.0,0.0,0.0,0.0,0.0,0.0,0.0,0.0,0.0,0.0,0.0,0.0,0.0,0.0,0.0,0.0,0.0,0.0,0.0,0.0,0.0,0.0,0.0,0.0,0.0,0.0,0.0,0.0,0.0,0.0,0.0,0.0,0.0,0.0,0.0,0.0,0.0,0.0,0.0,0.0,0.0,0.0,0.0,0.0,0.0,0.0,0.0,0.0,0.0,0.0,0.0,0.0,0.0,0.0,0.0,0.0,0.0,0.0,0.0,0.0,0.0,0.0,0.0,0.0,0.0,0.0,0.0,0.0,0.0,0.0,0.0,0.0,0.0,0.0,0.0,0.0,0.0,0.0,1.197,1.2603,1.3028,1.3553,1.405,1.4591,0.0,0.0,0.0,0.0,0.0,0.0,0.0,0.0,0.0,0.0,0.0,0.0,0.0,0.0,0.0,0.0,0.0,0.0,0.0,0.0,0.0,0.0,0.0,0.0,0.0,0.0,0.0,0.0,0.0,0.0,0.0,0.0,0.0,0.0,0.0,0.0,0.0,0.0,0.0,0.0,0.0,0.0,0.0,0.0,0.0,0.0,0.0,0.0,0.0,0.0,0.0,0.0,0.0,0.0,0.0,0.0,0.0,0.0,0.0,0.0,0.0,0.0,0.0,0.0,0.0,0.0,0.0,0.0,0.0,0.0,0.0,0.0,0.0,0.0,0.0,0.0,0.0,0.0,0.0,0.0,0.0,0.0,0.0,0.0,0.0,0.0,0.0,0.0,0.0,0.0,0.0,0.0,0.0,0.0,0.0,0.0,0.0,0.0,0.0,0.0,0.0,0.0,0.0,0.0,0.0,0.0,0.0,0.0,1.198,1.2942,1.3811,1.4532,1.4569,1.4591,0.0,0.0,0.0,0.0,0.0,0.0,0.0,0.0,0.0,0.0,0.0,0.0,0.0,0.0,0.0,0.0,0.0,0.0,0.0,0.0,0.0,0.0,0.0,0.0,0.0,0.0,0.0,0.0,0.0,0.0,0.0,0.0,0.0,0.0,0.0,0.0,0.0,0.0,0.0,0.0,0.0,0.0,0.0,0.0,0.0,0.0,0.0,0.0,0.0,0.0,0.0,0.0,0.0,0.0,0.0,0.0,0.0,0.0,0.0,0.0,0.0,0.0,0.0,0.0,0.0,0.0,0.0,0.0,0.0,0.0,0.0,0.0,0.0,0.0,0.0,0.0,0.0,0.0,0.0,0.0,0.0,0.0,0.0,0.0,0.0,0.0,0.0,0.0,0.0,0.0,0.0,0.0,0.0,0.0,0.0,0.0,0.0,0.0,0.0,0.0,0.0,0.0,0.0,0.0,0.0,0.0,0.0,0.0,0.0,1.299,1.3811,1.458,1.5188,1.4845,1.4681,0.0,0.0,0.0,0.0,0.0,0.0,0.0,0.0,0.0,0.0,0.0,0.0,0.0,0.0,0.0,0.0,0.0,0.0,0.0,0.0,0.0,0.0,0.0,0.0,0.0,0.0,0.0,0.0,0.0,0.0,0.0,0.0,0.0,0.0,0.0,0.0,0.0,0.0,0.0,0.0,0.0,0.0,0.0,0.0,0.0,0.0,0.0,0.0,0.0,0.0,0.0,0.0,0.0,0.0,0.0,0.0,0.0,0.0,0.0,0.0,0.0,0.0,0.0,0.0,0.0,0.0,0.0,0.0,0.0,0.0,0.0,0.0,0.0,0.0,0.0,0.0,0.0,0.0,0.0,0.0,0.0,0.0,0.0,0.0,0.0,0.0,0.0,0.0,0.0,0.0,0.0,0.0,0.0,0.0,0.0,0.0,0.0,0.0,0.0,0.0,0.0,0.0,0.0,0.0,0.0,0.0,0.0,0.0,0.0,1.4136,0.0,1.5166,1.5568,1.5028,1.4815,0.0,0.0,0.0,0.0,0.0,0.0,0.0,0.0,0.0,0.0,0.0,0.0,0.0,0.0,0.0,0.0,0.0,0.0,0.0,0.0,0.0,0.0,0.0,0.0,0.0,0.0,0.0,0.0,0.0,0.0,0.0,0.0,0.0,0.0,0.0,0.0,0.0,0.0,0.0,0.0,0.0,0.0,0.0,0.0,0.0,0.0,0.0,0.0,0.0,0.0,0.0,0.0,0.0,0.0,0.0,0.0,0.0,0.0,0.0,0.0,0.0,0.0,0.0,0.0,0.0,0.0,0.0,0.0,0.0,0.0,0.0,0.0,0.0,0.0,0.0,0.0,0.0,0.0,0.0,0.0,0.0,0.0,0.0,0.0,0.0,0.0,0.0,0.0,0.0,0.0,0.0,0.0,0.0,0.0,0.0,0.0,0.0,0.0,0.0,0.0,0.0,0.0,0.0,0.0,0.0,0.0,0.0,0.0,1.4975,1.5452,1.5452,1.5594,1.5771,1.5284,1.5022,0.0,0.0,0.0,0.0,0.0,0.0,0.0,0.0,0.0,0.0,0.0,0.0,0.0,0.0,0.0,0.0,0.0,0.0,0.0,0.0,0.0,0.0,0.0,0.0,0.0,0.0,0.0,0.0,0.0,0.0,0.0,0.0,0.0,0.0,0.0,0.0,0.0,0.0,0.0,0.0,0.0,0.0,0.0,0.0,0.0,0.0,0.0,0.0,0.0,0.0,0.0,0.0,0.0,0.0,0.0,0.0,0.0,0.0,0.0,0.0,0.0,0.0,0.0,0.0,0.0,0.0,0.0,0.0,0.0,0.0,0.0,0.0,0.0,0.0,0.0,0.0,0.0,0.0,0.0,0.0,0.0,0.0,0.0,0.0,0.0,0.0,0.0,0.0,0.0,0.0,0.0,0.0,0.0,0.0,0.0,0.0,0.0,0.0,0.0,0.0,0.0,0.0,0.0,0.0,0.0,0.0,0.0,0.0,0.0,1.5787,1.5734,1.583,1.6112,1.5565,1.5164,0.0,0.0,0.0,0.0,0.0,0.0,0.0,0.0,0.0,0.0,0.0,0.0,0.0,0.0,0.0,0.0,0.0,0.0,0.0,0.0,0.0,0.0,0.0,0.0,0.0,0.0,0.0,0.0,0.0,0.0,0.0,0.0,0.0,0.0,0.0,0.0,0.0,0.0,0.0,0.0,0.0,0.0,0.0,0.0,0.0,0.0,0.0,0.0,0.0,0.0,0.0,0.0,0.0,0.0,0.0,0.0,0.0,0.0,0.0,0.0,0.0,0.0,0.0,0.0,0.0,0.0,0.0,0.0,0.0,0.0,0.0,0.0,0.0,0.0,0.0,0.0,0.0,0.0,0.0,0.0,0.0,0.0,0.0,0.0,0.0,0.0,0.0,0.0,0.0,0.0,0.0,0.0,0.0,0.0,0.0,0.0,0.0,0.0,0.0,0.0,0.0,0.0,0.0,0.0,0.0,0.0,0.0,0.0,0.0,1.6223,1.6149,1.6192,1.6273,1.5805,1.5418,1.5124,0.0,0.0,0.0,0.0,0.0,0.0,0.0,0.0,0.0,0.0,0.0,0.0,0.0,0.0,0.0,0.0,0.0,0.0,0.0,0.0,0.0,0.0,0.0,0.0,0.0,0.0,0.0,0.0,0.0,0.0,0.0,0.0,0.0,0.0,0.0,0.0,0.0,0.0,0.0,0.0,0.0,0.0,0.0,0.0,0.0,0.0,0.0,0.0,0.0,0.0,0.0,0.0,0.0,0.0,0.0,0.0,0.0,0.0,0.0,0.0,0.0,0.0,0.0,0.0,0.0,0.0,0.0,0.0,0.0,0.0,0.0,0.0,0.0,0.0,0.0,0.0,0.0,0.0,0.0,0.0,0.0,0.0,0.0,0.0,0.0,0.0,0.0,0.0,0.0,0.0,0.0,0.0,0.0,0.0,0.0,0.0,0.0,0.0,0.0,0.0,0.0,0.0,0.0,0.0,0.0,0.0,0.0,0.0,1.67,1.674,1.662,1.6339,1.6019,1.5712,0.0,0.0,0.0,0.0,0.0,0.0,0.0,0.0,0.0,0.0,0.0,0.0,0.0,0.0,0.0,0.0,0.0,0.0,0.0,0.0,0.0,0.0,0.0,0.0,0.0,0.0,0.0,0.0,0.0,0.0,0.0,0.0,0.0,0.0,0.0,0.0,0.0,0.0,0.0,0.0,0.0,0.0,0.0,0.0,0.0,0.0,0.0,0.0,0.0,0.0,0.0,0.0,0.0,0.0,0.0,0.0,0.0,0.0,0.0,0.0,0.0,0.0,0.0,0.0,0.0,0.0,0.0,0.0,0.0,0.0,0.0,0.0,0.0,0.0,0.0,0.0,0.0,0.0,0.0,0.0,0.0,0.0,0.0,0.0,0.0,0.0,0.0,0.0,0.0,0.0,0.0,0.0,0.0,0.0,0.0,0.0,0.0,0.0,0.0,0.0,0.0,0.0,0.0,0.0,0.0,0.0,0.0,0.0,0.0,1.6714,1.7128,1.7208,1.6978,1.6469,1.6019,0.0,0.0,0.0,0.0,0.0,0.0,0.0,0.0,0.0,0.0,0.0,0.0,0.0,0.0,0.0,0.0,0.0,0.0,0.0,0.0,0.0,0.0,0.0,0.0,0.0,0.0,0.0,0.0,0.0,0.0,0.0,0.0,0.0,0.0,0.0,0.0,0.0,0.0,0.0,0.0,0.0,0.0,0.0,0.0,0.0,0.0,0.0,0.0,0.0,0.0,0.0,0.0,0.0,0.0,0.0,0.0,0.0,0.0,0.0,0.0,0.0,0.0,0.0,0.0,0.0,0.0,0.0,0.0,0.0,0.0,0.0,0.0,0.0,0.0,0.0,0.0,0.0,0.0,0.0,0.0,0.0,0.0,0.0,0.0,0.0,0.0,0.0,0.0,0.0,0.0,0.0,0.0,0.0,0.0,0.0,0.0,0.0,0.0,0.0,0.0,0.0,0.0,0.0,0.0,0.0,0.0,0.0,0.0,1.6767,1.6938,1.7341,1.7554,1.738,1.6817,1.6313,0.0,0.0,0.0,0.0,0.0,0.0,0.0,0.0,0.0,0.0,0.0,0.0,0.0,0.0,0.0,0.0,0.0,0.0,0.0,0.0,0.0,0.0,0.0,0.0,0.0,0.0,0.0,0.0,0.0,0.0,0.0,0.0,0.0,0.0,0.0,0.0,0.0,0.0,0.0,0.0,0.0,0.0,0.0,0.0,0.0,0.0,0.0,0.0,0.0,0.0,0.0,0.0,0.0,0.0,0.0,0.0,0.0,0.0,0.0,0.0,0.0,0.0,0.0,0.0,0.0,0.0,0.0,0.0,0.0,0.0,0.0,0.0,0.0,0.0,0.0,0.0,0.0,0.0,0.0,0.0,0.0,0.0,0.0,0.0,0.0,0.0,0.0,0.0,0.0,0.0,0.0,0.0,0.0,0.0,0.0,0.0,0.0,0.0,0.0,0.0,0.0,0.0,0.0,0.0,0.0,0.0,0.0,0.0,1.6834,1.7152,1.7422,1.7582,1.7569,1.7034,1.6607,0.0,0.0,0.0,0.0,0.0,0.0,0.0,0.0,0.0,0.0,0.0,0.0,0.0,0.0,0.0,0.0,0.0,0.0,0.0,0.0,0.0,0.0,0.0,0.0,0.0,0.0,0.0,0.0,0.0,0.0,0.0,0.0,0.0,0.0,0.0,0.0,0.0,0.0,0.0,0.0,0.0,0.0,0.0,0.0,0.0,0.0,0.0,0.0,0.0,0.0,0.0,0.0,0.0,0.0,0.0,0.0,0.0,0.0,0.0,0.0,0.0,0.0,0.0,0.0,0.0,0.0,0.0,0.0,0.0,0.0,0.0,0.0,0.0,0.0,0.0,0.0,0.0,0.0,0.0,0.0,0.0,0.0,0.0,0.0,0.0,0.0,0.0,0.0,0.0,0.0,0.0,0.0,0.0,0.0,0.0,0.0,0.0,0.0,0.0,0.0,0.0,0.0,0.0,0.0,0.0,0.0,0.0,0.0,1.674,1.6807,1.7315,1.7582,1.7635,1.7248,1.6965,0.0,0.0,0.0,0.0,0.0,0.0,0.0,0.0,0.0,0.0,0.0,0.0,0.0,0.0,0.0,0.0,0.0,0.0,0.0,0.0,0.0,0.0,0.0,0.0,0.0,0.0,0.0,0.0,0.0,0.0,0.0,0.0,0.0,0.0,0.0,0.0,0.0,0.0,0.0,0.0,0.0,0.0,0.0,0.0,0.0,0.0,0.0,0.0,3.3878,0.0,0.0,0.0,0.0,0.0,0.0,0.0,0.0,0.0,0.0,0.0,0.0,0.0,0.0,0.0,0.0,0.0,0.0,0.0,0.0,0.0,0.0,0.0,0.0,0.0,0.0,0.0,0.0,0.0,0.0,0.0,0.0,0.0,0.0,0.0,0.0,0.0,0.0,0.0,0.0,0.0,0.0,0.0,0.0,0.0,0.0,0.0,0.0,0.0,0.0,0.0,0.0,0.0,0.0,0.0,0.0,0.0,0.0,0.0,1.678,1.6914,1.7355,1.7582,1.7582,1.7487,1.7206,0.0,0.0,0.0,0.0,0.0,0.0,0.0,0.0,0.0,0.0,0.0,0.0,0.0,0.0,0.0,0.0,0.0,0.0,0.0,0.0,0.0,0.0,0.0,0.0,0.0,0.0,0.0,0.0,0.0,0.0,0.0,0.0,0.0,0.0,0.0,0.0,0.0,0.0,0.0,0.0,0.0,0.0,0.0,0.0,0.0,0.0,0.0,0.0,0.0,0.0,0.0,0.0,0.0,0.0,0.0,0.0,0.0,0.0,0.0,0.0,0.0,0.0,0.0,0.0,0.0,0.0,0.0,0.0,0.0,0.0,0.0,0.0,0.0,0.0,0.0,0.0,0.0,0.0,0.0,0.0,0.0,0.0,0.0,0.0,0.0,0.0,0.0,0.0,0.0,0.0,0.0,0.0,0.0,0.0,0.0,0.0,0.0,0.0,0.0,0.0,0.0,0.0,0.0,0.0,0.0,0.0,0.0,1.6526,1.6834,1.7139,1.746,1.7582,1.7635,1.7687,1.7405,1.6827,0.0,0.0,0.0,0.0,0.0,0.0,0.0,0.0,0.0,0.0,0.0,0.0,0.0,0.0,0.0,0.0,0.0,0.0,0.0,0.0,0.0,0.0,0.0,0.0,0.0,0.0,0.0,0.0,0.0,0.0,0.0,0.0,0.0,0.0,0.0,0.0,0.0,0.0,3.4386,3.5212,0.0,0.0,0.0,0.0,0.0,0.0,0.0,0.0,3.5921,0.0,0.0,0.0,0.0,0.0,0.0,0.0,0.0,0.0,0.0,0.0,0.0,0.0,0.0,0.0,0.0,0.0,0.0,0.0,0.0,0.0,0.0,0.0,0.0,0.0,0.0,0.0,0.0,0.0,0.0,0.0,0.0,0.0,0.0,0.0,0.0,0.0,0.0,0.0,0.0,0.0,0.0,0.0,0.0,0.0,0.0,0.0,0.0,0.0,0.0,0.0,0.0,0.0,0.0,0.0,0.0,1.5912,1.6433,1.6727,1.678,1.7301,1.7687,1.7911,1.7911,1.7781,1.7391,0.0,0.0,0.0,0.0,0.0,0.0,0.0,0.0,0.0,0.0,0.0,0.0,0.0,0.0,0.0,0.0,0.0,0.0,0.0,0.0,0.0,0.0,0.0,0.0,0.0,0.0,0.0,0.0,0.0,0.0,0.0,0.0,0.0,0.0,0.0,0.0,0.0,0.0,0.0,3.6115,3.6541,0.0,0.0,0.0,0.0,0.0,0.0,0.0,0.0,3.8007,0.0,0.0,0.0,0.0,0.0,0.0,0.0,0.0,0.0,0.0,0.0,0.0,0.0,0.0,0.0,0.0,0.0,0.0,0.0,0.0,0.0,0.0,0.0,0.0,0.0,0.0,0.0,0.0,0.0,0.0,0.0,0.0,0.0,0.0,0.0,0.0,0.0,0.0,0.0,0.0,0.0,0.0,0.0,0.0,0.0,0.0,0.0,0.0,0.0,0.0,0.0,0.0,0.0,0.0,0.0,1.5858,1.6406,1.6764,1.6927,1.7495,1.8003,1.8422,1.8216,1.8091,0.0,0.0,0.0,0.0,0.0,0.0,0.0,0.0,0.0,0.0,0.0,0.0,0.0,0.0,0.0,0.0,0.0,0.0,0.0,0.0,0.0,0.0,0.0,0.0,0.0,0.0,0.0,0.0,0.0,0.0,0.0,0.0,0.0,0.0,0.0,0.0,0.0,0.0,0.0,0.0,3.7332,3.7925,3.8194,0.0,0.0,0.0,0.0,0.0,0.0,3.9084,3.9247,0.0,0.0,0.0,0.0,0.0,0.0,0.0,0.0,0.0,0.0,0.0,0.0,0.0,0.0,0.0,0.0,0.0,0.0,0.0,0.0,0.0,0.0,0.0,0.0,0.0,0.0,0.0,0.0,0.0,0.0,0.0,0.0,0.0,0.0,0.0,0.0,0.0,0.0,0.0,0.0,0.0,0.0,0.0,0.0,0.0,0.0,0.0,0.0,0.0,0.0,0.0,0.0,0.0,0.0,0.0,1.5893,1.6451,1.6896,1.7277,1.7801,1.8338,1.8896,1.8716,1.8498,0.0,0.0,0.0,0.0,0.0,0.0,0.0,0.0,0.0,0.0,0.0,0.0,0.0,0.0,0.0,0.0,0.0,0.0,0.0,0.0,0.0,0.0,0.0,0.0,0.0,0.0,0.0,0.0,0.0,0.0,0.0,0.0,0.0,0.0,0.0,0.0,0.0,0.0,0.0,0.0,0.0,3.941,3.9721,4.0285,0.0,0.0,0.0,0.0,4.1136,4.067,0.0,0.0,0.0,0.0,0.0,0.0,0.0,0.0,0.0,0.0,0.0,0.0,0.0,0.0,0.0,0.0,0.0,0.0,0.0,0.0,0.0,0.0,0.0,0.0,0.0,0.0,0.0,0.0,0.0,0.0,0.0,0.0,0.0,0.0,0.0,0.0,0.0,0.0,0.0,0.0,0.0,0.0,0.0,0.0,0.0,0.0,0.0,0.0,0.0,0.0,0.0,0.0,0.0,0.0,0.0,0.0,1.6191,1.6684,1.7218,1.7782,1.8152,1.8695,1.9406,1.9361,1.9292,0.0,0.0,0.0,0.0,0.0,0.0,0.0,0.0,0.0,0.0,0.0,0.0,0.0,0.0,0.0,0.0,0.0,0.0,0.0,0.0,0.0,0.0,0.0,0.0,0.0,0.0,0.0,0.0,0.0,0.0,0.0,0.0,0.0,0.0,0.0,0.0,0.0,0.0,0.0,0.0,0.0,4.083,4.1271,4.1875,4.2446,0.0,0.0,4.3126,4.3772,4.3332,0.0,0.0,0.0,0.0,0.0,0.0,0.0,0.0,0.0,0.0,0.0,0.0,0.0,0.0,0.0,0.0,0.0,0.0,0.0,0.0,0.0,0.0,0.0,0.0,0.0,0.0,0.0,0.0,0.0,0.0,0.0,0.0,0.0,0.0,0.0,0.0,0.0,0.0,0.0,0.0,0.0,0.0,0.0,0.0,0.0,0.0,0.0,0.0,0.0,0.0,0.0,0.0,0.0,0.0,0.0,1.6201,1.665,1.704,1.7592,1.8271,1.8597,1.9208,2.0098,1.9892,1.9894,0.0,0.0,0.0,0.0,0.0,0.0,0.0,0.0,0.0,0.0,0.0,0.0,0.0,0.0,0.0,0.0,0.0,0.0,0.0,0.0,0.0,0.0,0.0,0.0,0.0,0.0,0.0,0.0,0.0,0.0,0.0,0.0,0.0,0.0,0.0,0.0,0.0,0.0,0.0,0.0,0.0,0.0,4.2195,4.3154,0.0,0.0,0.0,4.4487,4.4663,0.0,0.0,0.0,0.0,0.0,0.0,0.0,0.0,0.0,0.0,0.0,0.0,0.0,0.0,0.0,0.0,0.0,0.0,0.0,0.0,0.0,0.0,0.0,0.0,0.0,0.0,0.0,0.0,0.0,0.0,0.0,0.0,0.0,0.0,0.0,0.0,0.0,0.0,0.0,0.0,0.0,0.0,0.0,0.0,0.0,0.0,0.0,0.0,0.0,0.0,0.0,0.0,0.0,0.0,0.0,0.0,0.0,1.7153,1.7494,1.807,1.8924,1.9157,1.9781,2.0791,2.0506,0.0,0.0,0.0,0.0,0.0,0.0,0.0,0.0,0.0,0.0,0.0,0.0,0.0,0.0,0.0,0.0,0.0,0.0,0.0,0.0,0.0,0.0,0.0,0.0,0.0,0.0,0.0,2.9779,0.0,0.0,0.0,0.0,0.0,0.0,0.0,0.0,0.0,0.0,0.0,0.0,0.0,0.0,4.284,4.3139,4.4385,4.523,0.0,0.0,4.5695,4.5578,4.4995,4.456,0.0,0.0,0.0,0.0,0.0,0.0,0.0,0.0,0.0,0.0,0.0,0.0,0.0,0.0,0.0,0.0,0.0,0.0,0.0,0.0,0.0,0.0,0.0,0.0,0.0,0.0,0.0,0.0,0.0,0.0,0.0,0.0,0.0,0.0,0.0,0.0,0.0,0.0,0.0,0.0,0.0,0.0,0.0,0.0,0.0,0.0,0.0,0.0,0.0,0.0,0.0,0.0,0.0,0.0,1.7095,1.7638,1.8179,1.8925,1.995,2.003,2.0453,2.1386,2.1415,2.1451,0.0,0.0,0.0,0.0,0.0,0.0,0.0,0.0,0.0,0.0,0.0,0.0,0.0,0.0,0.0,0.0,0.0,0.0,0.0,0.0,0.0,0.0,0.0,0.0,0.0,0.0,0.0,0.0,0.0,0.0,0.0,0.0,0.0,0.0,0.0,0.0,0.0,0.0,0.0,0.0,0.0,4.4035,4.4418,4.5652,4.6535,0.0,4.6725,4.6886,4.7073,4.6548,4.592,4.5334,0.0,0.0,0.0,0.0,0.0,0.0,0.0,0.0,0.0,0.0,0.0,0.0,0.0,0.0,0.0,0.0,0.0,0.0,0.0,0.0,0.0,0.0,0.0,0.0,0.0,0.0,0.0,0.0,0.0,0.0,0.0,0.0,0.0,0.0,0.0,0.0,0.0,0.0,0.0,0.0,0.0,0.0,0.0,0.0,0.0,0.0,0.0,0.0,0.0,0.0,0.0,0.0,0.0,1.7325,1.8297,1.8883,1.9658,2.0572,2.0663,2.1046,2.1861,2.1861,2.1941,0.0,0.0,0.0,0.0,0.0,0.0,0.0,0.0,0.0,0.0,0.0,0.0,0.0,0.0,0.0,0.0,0.0,0.0,0.0,0.0,0.0,0.0,0.0,0.0,0.0,0.0,0.0,0.0,2.9972,3.0292,3.0785,0.0,0.0,0.0,0.0,0.0,0.0,0.0,0.0,0.0,0.0,4.4676,4.4803,4.61,0.0,0.0,4.7179,4.7179,4.7309,4.677,4.6082,4.5394,4.4736,0.0,0.0,0.0,0.0,0.0,0.0,0.0,0.0,0.0,0.0,0.0,0.0,0.0,0.0,0.0,0.0,0.0,0.0,0.0,0.0,0.0,0.0,0.0,0.0,0.0,0.0,0.0,0.0,0.0,0.0,0.0,0.0,0.0,0.0,0.0,0.0,0.0,0.0,0.0,0.0,0.0,0.0,0.0,0.0,0.0,0.0,0.0,0.0,0.0,0.0,0.0,0.0,1.7676,1.8987,1.9595,2.032,2.1177,2.1266,2.1624,2.2264,2.2309,2.234,0.0,0.0,0.0,0.0,0.0,0.0,0.0,0.0,0.0,0.0,0.0,0.0,0.0,0.0,0.0,0.0,0.0,0.0,0.0,0.0,0.0,0.0,0.0,0.0,0.0,0.0,0.0,0.0,3.0241,3.0785,3.1569,0.0,0.0,0.0,0.0,0.0,0.0,0.0,0.0,0.0,0.0,4.5013,4.5084,4.6356,4.7309,4.7309,4.7309,4.7309,4.7309,4.692,4.6381,4.5723,0.0,0.0,0.0,0.0,0.0,0.0,0.0,0.0,0.0,0.0,0.0,0.0,0.0,0.0,0.0,0.0,0.0,0.0,0.0,0.0,0.0,0.0,0.0,0.0,0.0,0.0,0.0,0.0,0.0,0.0,0.7143,0.0,0.0,0.0,0.0,0.0,0.0,0.0,0.0,0.0,0.0,0.0,0.0,0.0,0.0,0.0,0.0,0.0,0.0,0.0,0.0,0.0,0.0,1.8157,1.9559,2.0257,2.0952,2.1642,2.1954,2.2309,2.2769,2.2794,2.2689,2.2496,0.0,0.0,0.0,0.0,0.0,0.0,0.0,0.0,0.0,0.0,0.0,0.0,0.0,0.0,0.0,0.0,0.0,0.0,0.0,0.0,0.0,0.0,0.0,0.0,0.0,0.0,3.0088,3.0785,3.1569,0.0,0.0,0.0,0.0,0.0,0.0,0.0,0.0,0.0,0.0,4.3367,4.5054,4.5293,4.6441,4.7309,4.7309,4.7309,4.7309,4.7309,4.7279,4.707,0.0,0.0,0.0,0.0,0.0,0.0,0.0,0.0,0.0,0.0,0.0,0.0,0.0,0.0,0.0,0.0,0.0,0.0,0.0,0.0,0.0,0.0,0.0,0.0,0.0,0.0,0.0,0.5941,0.6428,0.0,0.0,0.0,0.0,0.0,0.0,0.0,0.0,0.0,0.0,0.0,1.3857,1.4357,0.0,0.0,0.0,0.0,0.0,0.0,0.0,0.0,0.0,0.0,0.0,0.0,1.8835,2.0147,2.0962,2.1687,2.2397,2.2549,2.2706,2.3013,2.3013,2.2726,2.2129,0.0,0.0,0.0,0.0,0.0,0.0,0.0,0.0,0.0,0.0,0.0,0.0,0.0,0.0,0.0,0.0,0.0,0.0,0.0,0.0,0.0,0.0,0.0,0.0,0.0,2.9972,0.0,0.0,0.0,0.0,0.0,0.0,0.0,0.0,0.0,0.0,0.0,4.1281,4.2268,4.4035,4.5371,4.5903,4.6741,4.7309,0.0,0.0,0.0,0.0,0.0,0.0,0.0,0.0,0.0,0.0,0.0,0.0,0.0,0.0,4.4556,4.4347,4.3958,4.3599,4.3389,0.0,0.0,0.0,0.0,0.0,0.0,0.0,0.0,0.0,0.0,0.0,0.0,0.0,0.0,0.612,0.0,0.701,0.0,0.0,0.0,0.0,0.0,0.0,0.0,0.0,1.3197,1.3863,1.4374,1.4781,1.5053,0.0,1.525,1.5147,0.0,0.0,0.0,0.0,0.0,0.0,0.0,0.0,1.9451,2.0783,2.1496,2.215,2.275,2.2882,2.2969,2.3101,2.2945,2.2613,2.2129,2.1816,2.1427,0.0,0.0,0.0,0.0,0.0,0.0,0.0,0.0,0.0,0.0,0.0,0.0,0.0,0.0,0.0,0.0,0.0,0.0,0.0,0.0,0.0,0.0,0.0,3.0356,0.0,0.0,0.0,0.0,0.0,0.0,0.0,0.0,0.0,3.9802,4.0664,4.1671,4.2981,4.4385,4.5544,4.619,0.0,0.0,0.0,0.0,0.0,0.0,0.0,4.716,4.6741,4.6471,4.6172,4.5723,4.5633,4.5723,4.5963,0.0,0.0,4.5394,4.4945,4.4646,4.4646,4.3958,4.3429,4.3429,4.3099,4.288,0.0,0.0,0.0,0.0,0.0,0.0,0.0,0.0,0.5955,0.6479,0.0,0.7289,0.0,0.0,0.0,0.0,0.0,1.11,0.0,0.0,1.3611,1.4186,1.4649,1.4945,1.517,1.5322,1.538,1.5634,1.6094,1.5821,0.0,0.0,0.0,0.0,0.0,0.0,2.0076,2.1382,2.1909,2.2353,2.2794,2.3013,2.3101,2.3081,2.2754,2.2539,2.248,2.1738,2.135,2.1491,2.1154,0.0,0.0,0.0,0.0,0.0,0.0,0.0,0.0,0.0,0.0,0.0,0.0,0.0,0.0,0.0,0.0,0.0,0.0,0.0,0.0,3.0356,0.0,0.0,0.0,0.0,0.0,0.0,0.0,0.0,0.0,0.0,4.0107,4.0882,4.1923,4.32,0.0,0.0,0.0,0.0,4.7309,4.7309,4.7309,4.7309,4.7309,4.7309,4.7309,4.7309,0.0,0.0,4.6352,4.6352,4.6531,4.7189,4.7249,4.689,4.5633,4.5364,4.5334,4.5334,4.5244,4.5244,4.5244,4.5035,4.5095,0.2681,0.0,0.0,0.0,0.0,0.4378,0.5069,0.5842,0.6178,0.6624,0.7253,0.7419,0.0,0.0,0.0,0.0,0.0,0.0,1.285,1.3611,1.4396,1.4891,1.5179,1.5637,1.5871,1.5951,1.6462,1.6793,1.6906,1.7517,1.7389,1.6632,0.0,0.0,0.0,0.0,2.0889,2.1847,2.2353,2.2706,2.3013,2.3057,2.3101,2.3101,2.2984,2.2875,2.2794,2.2537,2.2267,2.2028,2.2024,0.0,0.0,0.0,0.0,0.0,0.0,0.0,0.0,0.0,0.0,0.0,0.0,0.0,0.0,0.0,0.0,0.0,0.0,0.0,3.0011,3.0584,3.1086,0.0,0.0,0.0,0.0,0.0,0.0,0.0,0.0,0.0,4.092,4.1654,4.277,0.0,0.0,4.5723,4.686,4.7189,4.7309,4.7309,4.7309,0.0,4.7309,4.7309,4.7309,4.7309,4.716,4.704,4.701,4.704,4.707,4.7279,4.7309,4.716,4.68,4.6352,4.6052,4.5992,4.5633,4.5304,4.5274,4.5274,4.5454,0.3987,0.3818,0.4127,0.4462,0.4852,0.5153,0.5758,0.6477,0.659,0.7014,0.7542,0.7701,0.8113,0.8771,0.9561,0.0,0.0,0.0,1.3643,1.4396,1.5014,1.5425,1.5731,1.6176,1.6447,1.6683,1.7293,1.7748,1.8009,1.8917,1.9117,1.8709,0.0,0.0,1.9991,2.0747,2.1581,2.2353,2.2662,2.2882,2.3101,2.3101,2.3101,2.3101,2.3188,2.3201,2.3137,2.315,2.3102,2.3019,2.3052,2.309,0.0,0.0,0.0,0.0,0.0,0.0,0.0,0.0,0.0,0.0,0.0,2.9599,2.9779,0.0,0.0,0.0,2.9856,3.0049,3.0318,3.0898,0.0,0.0,0.0,0.0,0.0,0.0,0.0,3.8852,4.0017,4.1025,4.1722,4.2381,4.3359,4.5065,4.5274,4.5783,4.713,0.0,4.7309,4.7309,4.7309,4.7309,4.7309,4.7309,4.7309,4.7309,4.7309,4.7309,4.7309,4.7309,4.7309,4.7309,4.7309,4.7309,4.7309,4.698,4.6668,4.6668,4.6381,4.6112,4.6082,4.6082,4.6232,0.507,0.5417,0.5165,0.5278,0.5688,0.6021,0.6465,0.7003,0.7158,0.7403,0.7762,0.8145,0.8552,0.9183,1.08,0.0,1.2892,1.3664,1.4372,1.5153,1.5416,1.5784,1.6272,1.6541,1.6918,1.7387,1.7947,1.8596,1.9271,2.0019,2.0637,2.1024,2.0536,2.0509,2.0938,2.1504,2.2132,2.2813,2.2794,2.2925,2.3101,2.3101,2.3101,2.3101,2.3363,2.3493,2.3537,2.3608,2.3805,2.4281,2.4124,2.4189,2.4437,0.0,0.0,0.0,0.0,0.0,0.0,0.0,0.0,0.0,0.0,0.0,0.0,0.0,0.0,0.0,3.0011,0.0,3.0698,3.1362,0.0,0.0,0.0,3.5396,3.7128,3.7703,3.8523,3.9862,0.0,0.0,4.2261,4.288,4.3778,4.5065,4.5214,4.5723,4.704,4.7219,4.7249,4.7309,4.7309,4.7309,4.7309,4.7309,4.7309,4.7309,4.7309,4.7309,4.7309,4.7309,4.7309,4.7309,4.7309,4.7309,4.7309,4.7279,4.7309,4.7279,4.7279,4.7279,4.7219,4.7189,4.7189,0.5509,0.5879,0.6089,0.6216,0.6244,0.638,0.6758,0.7152,0.725,0.7629,0.8223,0.8589,0.9384,1.0559,1.1882,1.2818,1.3435,1.436,1.5092,1.5631,1.59,1.6319,1.6838,1.7246,1.7606,1.7947,1.8812,1.95,2.0065,2.0772,2.1356,2.182,2.1843,2.185,2.1824,2.2271,2.2618,2.2813,2.2925,2.3057,2.3101,2.3101,2.3101,2.3101,2.3363,2.3687,2.4013,2.4383,2.4745,2.5185,2.5275,2.5504,2.589,2.6094,0.0,0.0,0.0,0.0,0.0,0.0,0.0,0.0,0.0,2.9779,2.9779,0.0,2.9779,0.0,3.0241,3.0736,3.1123,3.2267,0.0,0.0,3.5407,3.6678,3.7463,3.8296,3.9,3.951,4.0629,4.1482,4.1632,4.2611,4.3589,4.4436,4.4526,4.5035,4.6352,4.6518,4.6698,4.7189,4.7279,4.7309,4.7309,4.7309,4.7309,4.7309,4.7309,4.7309,4.7309,4.7309,4.7309,4.7309,4.7309,4.7309,4.7309,4.7309,4.7309,4.7309,4.7309,4.7309,4.7309,4.7309,4.7309,0.5926,0.6322,0.6759,0.6871,0.67,0.6734,0.7039,0.753,0.7611,0.8049,0.8767,0.9517,1.0506,1.165,1.2552,1.3282,1.39,1.4793,1.5438,1.5832,1.6344,1.6824,1.734,1.7777,1.8303,1.8765,1.9546,2.0201,2.0772,2.1401,2.1954,2.2416,2.2618,2.2662,2.2574,2.2706,2.2838,2.2925,2.3013,2.3101,2.3101,2.3101,2.3144,2.3276,2.3624,2.4013,2.4487,2.5147,2.5648,2.6088,2.649,2.6757,2.699,2.7157,2.7621,0.0,0.0,0.0,0.0,0.0,0.0,0.0,0.0,0.0,0.0,0.0,2.9843,2.9934,3.0394,3.1029,3.1792,3.2833,3.3974,3.5094,3.6335,3.7434,3.8164,3.8736,3.9281,3.9792,4.0756,4.1542,4.1841,4.2701,4.3439,4.3798,4.3868,4.4347,4.5574,4.5873,4.6112,4.6741,4.686,4.698,4.7249,4.7309,4.7309,4.7309,4.7309,4.7309,4.7309,4.7309,4.7309,4.7309,4.7309,4.7309,4.7309,4.7309,4.7309,4.7309,4.7309,4.7309,4.7309,4.7309,4.7309,0.6316,0.6657,0.7158,0.7265,0.7105,0.706,0.7375,0.7848,0.8071,0.8599,0.9347,1.0596,1.1628,1.2466,1.3,1.3605,1.4244,1.5038,1.5535,1.587,1.6686,1.7328,1.781,1.8319,1.9026,1.9774,2.0246,2.0817,2.1535,2.1954,2.2397,2.2838,2.3013,2.3101,2.3101,2.2925,2.2925,2.3101,2.3101,2.3101,2.3144,2.3144,2.3276,2.36,2.4077,2.4529,2.502,2.5863,2.655,2.7044,2.7592,2.7901,2.7927,2.8072,2.8379,0.0,2.8862,0.0,0.0,0.0,0.0,0.0,0.0,0.0,0.0,2.9843,2.9934,3.0139,3.0636,3.1401,3.2519,3.3495,3.4826,3.6585,3.7258,3.7923,3.8957,3.9126,3.9437,4.0217,4.0846,4.1504,4.2141,4.2791,4.317,4.3319,4.3349,4.3768,4.4766,4.5095,4.5424,4.604,4.616,4.6352,4.68,4.698,4.698,4.701,4.695,4.704,4.698,4.707,4.716,4.716,4.7219,4.7309,4.7309,4.7309,4.7309,4.7309,4.7309,4.7309,4.7309,4.7309,4.7309,0.6418,0.6789,0.705,0.7125,0.7143,0.731,0.7478,0.7633,0.8263,0.9165,1.0391,1.1348,1.21,1.2723,1.3597,1.4073,1.423,1.4972,1.5538,1.6,1.6813,1.7629,1.8534,1.9278,2.0002,2.0727,2.1195,2.1687,2.222,2.253,2.2794,2.3057,2.3081,2.3101,2.3101,0.0,0.0,0.0,2.3101,2.3232,2.3406,2.3406,2.3644,2.4034,2.4529,0.0,2.5695,2.6385,2.7126,2.7898,2.8219,0.0,0.0,0.0,0.0,0.0,0.0,0.0,0.0,0.0,0.0,0.0,2.9779,2.9779,2.9779,2.9934,3.0203,3.0584,3.1543,3.2541,3.3422,3.5087,3.6433,3.7105,3.8113,3.8862,3.909,3.9265,3.9433,3.9589,4.0187,4.0846,4.1542,4.2171,4.2731,4.317,4.329,4.3409,4.3648,4.4197,4.4736,4.5334,4.5514,4.5544,4.5633,4.5723,4.5813,4.5693,4.5693,4.5723,4.5783,4.6202,4.6459,4.6531,4.695,4.7279,4.7279,4.7309,4.7309,4.7309,4.7309,4.7309,4.7309,4.7309,4.7309,0.6412,0.0,0.701,0.7187,0.0,0.768,0.7988,0.8208,0.8727,0.9854,1.1327,1.2057,1.2656,1.3222,1.3716,1.4081,1.4352,1.5097,1.566,1.6155,1.7186,1.8049,1.8754,1.9696,2.0447,2.1067,2.164,2.2132,2.2574,2.275,2.2925,2.3101,2.3101,2.3101,2.3101,2.3101,2.3101,2.3101,2.3232,2.3382,2.3493,2.3711,2.4057,2.4529,2.5105,0.0,0.0,0.0,0.0,0.0,0.0,0.0,0.0,0.0,0.0,2.9779,2.9779,2.9779,2.9779,2.9779,2.9779,2.9779,2.9779,2.9779,2.9779,2.9972,3.0279,3.0686,3.18,3.2971,3.4047,3.5676,3.7028,3.782,3.862,3.9156,3.9228,3.9337,3.9403,3.9433,4.0008,4.0546,4.0846,4.1811,4.247,4.2821,4.315,4.329,4.3319,4.3559,4.4007,4.4706,4.5125,4.5304,4.5274,4.5274,4.5274,4.5274,4.5274,4.5274,4.5274,4.5574,4.5813,4.5873,4.6352,4.683,4.686,4.707,4.7309,4.7309,4.7309,4.7309,4.7309,4.7309,4.7309,0.6485,0.6928,0.7098,0.7326,0.7635,0.812,0.8684,0.9305,0.0,0.0,0.0,1.2583,1.3137,1.3743,1.3815,1.4068,1.4587,1.5262,1.5861,1.6329,1.7568,1.8417,1.8965,2.0026,2.0804,2.1318,2.1945,2.2441,2.2838,2.2838,2.2925,2.3101,2.3101,2.3101,2.3101,2.3144,2.3188,2.3188,2.3363,2.3537,2.3667,2.412,2.4572,2.5105,2.5737,2.6404,2.7085,2.7857,2.8379,2.8657,2.9106,2.9419,2.9457,2.9702,2.9779,2.9779,2.9779,2.9779,2.9779,2.9779,2.9779,2.9779,2.9779,2.9779,2.9779,3.0011,3.0318,3.0736,3.1955,3.3328,3.4574,3.6099,3.7399,3.8472,3.8936,3.9228,3.9373,3.9403,3.9403,3.9433,3.9888,4.0277,4.0427,4.1324,4.2171,4.241,4.2821,4.32,4.326,4.3319,4.3529,4.4007,4.4496,4.4885,4.4915,4.4855,4.4945,4.4825,4.4855,4.4945,4.4975,4.5035,4.5125,4.5125,4.5693,4.6082,4.6172,4.6651,4.71,4.713,4.7219,4.7309,4.7309,4.7309,4.7309,0.6972,0.7415,0.7415,0.768,0.8157,0.8596,0.9515,1.0679,1.0722,1.1327,1.2369,1.2839,1.3434,1.4039,1.4237,1.4573,1.5006,1.5452,1.6008,1.6702,1.7762,1.8724,1.9531,2.0503,2.1386,2.2026,2.2471,2.2838,2.3013,2.3057,2.3101,2.3101,2.3101,2.3101,2.3144,2.3319,2.345,2.345,2.345,2.3797,2.4335,2.4658,2.5211,2.5988,2.6509,2.7167,2.7978,2.8299,2.8736,2.9223,2.938,2.9521,2.974,2.974,2.9779,2.9779,2.9779,2.9779,2.9779,2.9779,2.9779,2.9779,2.9779,2.9779,2.9804,3.0164,3.052,3.0988,3.2669,3.4169,3.5097,3.6842,3.8132,3.8694,3.9119,3.9373,3.9403,3.9403,3.9403,3.9403,3.9463,3.9828,4.0277,4.0606,4.1175,4.2081,4.247,4.2701,4.311,4.329,4.3319,4.3409,4.3499,4.3559,4.3708,4.3589,4.3678,4.3559,4.3648,4.3738,4.3738,4.4097,4.4436,4.4436,4.5005,4.5394,4.5454,4.5992,4.6441,4.6561,4.692,4.7279,4.7309,4.7309,4.7309,0.7061,0.7503,0.7635,0.7937,0.8508,0.9428,1.0463,1.1542,1.18,1.2314,1.2966,1.3434,1.3955,1.4419,1.4657,1.5033,1.545,1.5891,1.6468,1.7278,1.8121,1.8859,1.9498,2.0727,2.1499,2.1851,2.2616,2.3013,2.3101,2.3101,2.3101,2.3101,2.3101,2.3188,2.3319,2.345,2.3687,2.4013,2.4034,2.4229,2.47,2.5274,2.5904,2.6592,2.7249,2.7857,2.8339,2.8776,2.9106,2.938,2.956,2.9663,2.9779,2.9779,2.9779,2.9779,2.9779,2.9779,2.9779,2.9779,2.9779,2.9779,2.9779,2.9856,2.9934,3.0356,3.0915,3.1759,3.3355,3.4806,3.59,3.7428,3.8501,3.8907,3.9228,3.9403,3.9403,3.9403,3.9403,3.9403,3.9403,3.9523,3.9828,4.0187,4.0546,4.1302,4.1871,4.25,4.2791,4.312,4.329,4.329,4.329,4.329,4.329,4.329,4.329,4.329,4.329,4.329,4.329,4.3589,4.3708,4.3768,4.4317,4.4706,4.4766,4.5633,4.613,4.6339,4.686,4.7249,4.7309,4.7309,4.7309,0.7238,0.768,0.7944,0.8464,0.9244,1.0376,1.1327,1.2186,1.2711,1.3222,1.3688,1.4039,1.4405,1.4866,1.52,1.559,1.6015,1.6484,1.7164,1.7974,1.8576,1.9054,1.9622,2.0897,2.1546,2.1684,2.2629,2.3101,2.3101,2.3101,2.3101,2.3101,2.3101,2.3232,2.3493,2.36,2.397,2.4572,2.4786,2.4999,2.5189,2.5946,2.661,2.7208,2.7898,2.8419,2.8697,2.9145,2.9419,2.9521,2.9702,2.9779,2.9779,2.9779,2.9779,2.9779,2.9779,2.9779,2.9779,2.9779,2.9779,2.9779,2.9779,2.9895,3.0164,3.0546,3.1246,3.2406,3.3755,3.5152,3.6465,3.7759,3.8679,3.9083,3.9301,3.9403,3.9403,3.9403,3.9403,3.9403,3.9403,3.9403,3.9463,3.9858,4.0247,4.0546,4.1452,4.2171,4.241,4.2821,4.312,4.326,4.329,4.329,4.329,4.329,4.329,4.329,4.329,4.329,4.329,4.329,4.3319,4.3409,4.3708,4.4047,4.4197,4.5005,4.5711,4.592,4.6531,4.707,4.7279,4.7309,4.7309,0.7716,0.8157,0.8588,0.9559,1.0766,1.137,1.1972,1.2668,1.3349,1.3984,1.4573,1.4433,1.4768,1.5352,1.5824,1.6376,1.6976,1.7367,1.8031,1.8794,1.9152,1.9587,2.0214,2.112,2.1649,2.1931,2.2691,2.3101,2.3101,2.3101,2.3101,2.3101,2.3101,2.3276,2.3493,2.3947,2.4358,2.485,2.5653,2.6071,2.6113,2.6592,2.7249,2.8059,2.8339,2.8736,2.9263,2.938,2.9521,2.974,2.9779,2.9779,2.9779,2.9779,2.9779,2.9779,2.9779,2.9779,2.9779,2.9779,2.9779,2.9779,2.9779,2.9972,3.033,3.071,3.1397,3.2508,3.382,3.5218,3.6559,3.7788,3.8686,3.9053,3.9301,3.9403,3.9403,3.9403,3.9403,3.9403,3.9403,3.9403,3.9403,3.9493,3.9768,4.0247,4.0965,4.1662,4.2111,4.244,4.2731,4.315,4.329,4.329,4.329,4.329,4.329,4.329,4.329,4.329,4.329,4.329,4.329,4.3319,4.3349,4.3469,4.3589,4.4007,4.4766,4.5514,4.6082,4.6651,4.713,4.7309,4.7309,0.782,0.8336,0.9033,1.0215,1.1531,1.1972,1.2571,1.3307,1.3899,1.4559,1.5269,1.5616,1.585,1.6015,1.6607,1.7115,1.7489,1.8055,1.8616,1.9192,1.9508,1.9902,2.0351,2.1302,2.1792,2.1953,2.2691,2.3101,2.3101,2.3101,2.3101,2.3144,2.3276,2.3537,2.3904,2.4249,2.4764,2.5506,2.6071,2.6652,2.7121,2.751,2.7898,2.8339,2.8791,2.9106,2.938,2.956,2.9702,2.9779,2.9779,2.9779,2.9779,2.9779,2.9779,2.9779,2.9779,2.9779,2.9779,2.9779,2.9779,2.9779,2.9779,2.9972,3.0368,3.0748,3.151,3.2772,3.4093,3.5554,3.6893,3.8047,3.8833,3.9192,3.9337,3.9403,3.9403,3.9403,3.9403,3.9403,3.9403,3.9403,3.9403,3.9403,3.9493,3.9858,4.0397,4.0935,4.1235,4.1871,4.247,4.2731,4.306,4.329,4.329,4.329,4.329,4.329,4.329,4.329,4.329,4.329,4.329,4.329,4.329,4.329,4.3319,4.3828,4.4526,4.5214,4.6232,4.701,4.7279,4.7309,4.7309,0.8098,0.8667,0.9711,1.0932,1.2186,1.2613,1.3179,1.3942,1.4531,1.5186,1.6015,1.6689,1.7,1.7082,1.7546,1.787,1.8095,1.8656,1.9192,1.9587,1.9863,2.0195,2.0623,2.1463,2.1953,2.2168,2.2793,2.3101,2.3101,2.3101,2.3144,2.3232,2.3426,2.3774,2.4229,2.4529,2.5126,2.601,2.6569,2.7226,2.7931,2.8355,2.8618,2.8776,2.9145,2.9419,2.9521,2.9702,2.9779,2.9779,2.9779,2.9779,2.9779,2.9779,2.9779,2.9779,2.9779,2.9779,2.9779,2.9779,2.9779,2.9779,2.9779,2.9972,3.0368,3.0748,3.1532,3.2678,3.4233,3.5776,3.7113,3.8194,3.8914,3.9337,3.9403,3.9403,3.9403,3.9403,3.9403,3.9403,3.9403,3.9403,3.9403,3.9403,3.9403,3.9493,3.9828,4.0247,4.0457,4.1235,4.1931,4.2321,4.2641,4.2871,4.32,4.329,4.329,4.329,4.329,4.329,4.329,4.329,4.329,4.329,4.329,4.329,4.329,4.3768,4.4436,4.5274,4.6322,4.7219,4.7309,4.7309,4.7309,0.8641,0.9346,1.0875,1.1901,1.2699,1.3349,1.3899,1.4447,1.5242,1.5989,1.6689,1.7367,1.7974,1.8536,1.8616,1.8754,1.8953,1.9369,1.9803,2.0177,2.0274,2.0604,2.119,2.168,2.209,2.2441,2.2847,2.3101,2.3101,2.3101,2.3232,2.347,2.3557,2.3861,2.4507,2.4956,2.5611,2.6445,2.7284,2.7955,2.8459,2.9028,2.9302,2.9341,2.938,2.956,2.974,2.9779,2.9779,2.9779,2.9779,2.9779,2.9779,2.9779,2.9779,2.9779,2.9779,2.9779,2.9779,2.9779,2.9779,2.9779,2.9779,2.9972,3.0368,3.0785,3.1336,3.2136,3.4076,3.5776,3.7055,3.8201,3.8943,3.9337,3.9403,3.9403,3.9403,3.9403,3.9403,3.9403,3.9403,3.9403,3.9403,3.9403,3.9403,3.9403,3.9433,3.9642,4.0187,4.0457,4.1085,4.1811,4.1991,4.1923,4.2961,4.314,4.317,4.32,4.314,4.329,4.329,4.329,4.329,4.329,4.329,4.329,4.329,4.3648,4.4246,4.5185,4.6441,4.716,4.7309,4.7309,4.7309,0.9557,1.0829,1.1578,1.2436,1.3336,1.3786,1.4292,1.4908,1.5616,1.6417,1.718,1.7974,1.8616,1.9112,1.9548,1.9587,1.9448,1.9843,2.0157,2.0294,2.0411,2.0722,2.121,2.168,2.2109,2.2519,2.2886,2.3101,2.3144,2.3276,2.3406,2.358,2.3947,2.4401,2.4956,2.5527,2.6174,2.694,2.7672,2.8235,2.8697,2.9145,2.9457,2.9638,2.9663,2.9702,2.9779,2.9779,2.9779,2.9779,2.9779,2.9779,2.9779,2.9779,2.9779,2.9779,2.9779,2.9779,2.9779,2.9779,2.9779,2.9779,2.9779,2.9972,3.0368,3.0785,3.131,3.2272,3.3983,3.5605,3.6707,3.7967,3.8943,3.9301,3.9403,3.9403,3.9403,3.9403,3.9403,3.9403,3.9403,3.9403,3.9403,3.9403,3.9403,3.9403,3.9403,3.9523,3.9768,4.0098,4.0606,4.0995,4.1332,4.1534,4.1893,4.2462,4.2731,4.2851,4.294,4.317,4.329,4.329,4.329,4.329,4.329,4.3349,4.3409,4.4197,4.4706,4.5562,4.68,4.7189,4.7309,4.7309,4.7309,1.0374,1.1623,1.2089,1.2845,1.3671,1.421,1.4797,1.5465,1.6211,1.7033,1.787,1.8594,1.9134,1.9627,2.0098,2.0196,1.996,2.0255,2.0372,2.0411,2.0527,2.0879,2.1426,2.1738,2.2168,2.2676,2.2945,2.3144,2.3232,2.3406,2.358,2.3861,2.4358,2.4935,2.5527,2.6113,2.6775,2.747,2.8075,2.8593,2.8988,2.9341,2.9599,2.974,2.9779,2.9779,2.9779,2.9779,2.9779,2.9779,2.9779,2.9779,2.9779,2.9779,2.9779,2.9779,2.9779,2.9779,2.9779,2.9779,2.9779,2.9779,2.9779,2.9972,3.0368,3.0785,3.1347,3.2299,3.3956,3.552,3.6476,3.7849,3.8943,3.9301,3.9403,3.9403,3.9403,3.9403,3.9403,3.9403,3.9403,3.9403,3.9403,3.9403,3.9403,3.9403,3.9403,3.9403,3.9463,3.9738,4.0187,4.0367,4.0546,4.0756,4.1055,4.1444,4.2132,4.2372,4.2641,4.297,4.329,4.329,4.329,4.329,4.3349,4.3409,4.3858,4.4646,4.5424,4.6202,4.68,4.7279,4.7309,4.7309,4.7309,1.1047,1.1642,1.249,1.3173,1.3776,1.4642,1.545,1.617,1.6992,1.7789,1.8594,1.9112,1.9627,2.0196,2.0294,2.0411,2.0489,2.0527,2.0566,2.0566,2.0605,2.1035,2.1797,2.1855,2.2324,2.3003,2.3081,2.3232,2.347,2.3537,2.3841,2.4401,2.4786,2.5359,2.6196,2.6674,2.733,2.8059,2.8554,2.8988,2.938,2.9663,2.9779,2.9779,2.9779,2.9779,2.9779,2.9779,2.9779,2.9779,2.9779,2.9779,2.9779,2.9779,2.9779,2.9779,2.9779,2.9779,2.9779,2.9779,2.9779,2.9779,2.9779,2.9972,3.0368,3.0785,3.1336,3.2326,3.3956,3.552,3.6512,3.7879,3.8943,3.9301,3.9403,3.9403,3.9403,3.9403,3.9403,3.9403,3.9403,3.9403,3.9403,3.9403,3.9403,3.9403,3.9403,3.9403,3.9403,3.9493,3.9768,4.0038,4.0068,4.0038,4.0217,4.0487,4.1265,4.1991,4.2321,4.268,4.315,4.329,4.329,4.329,4.329,4.3409,4.4287,4.5035,4.5633,4.6322,4.686,4.7309,4.7309,4.7309,4.7309,1.1463,1.2209,1.2646,1.3305,1.4143,1.4921,1.5721,1.6566,1.7302,1.8095,1.8873,1.9311,1.9803,2.0216,2.0411,2.0527,2.0605,2.0605,2.0605,2.0605,2.0605,2.1075,2.1779,2.1894,2.2324,2.2984,2.3101,2.3232,2.3537,2.3797,2.4292,2.4786,2.5338,2.5968,2.6674,2.7226,2.7834,2.8379,2.8949,2.9302,2.9419,2.9638,2.9779,2.9779,2.9779,2.9779,2.9779,2.9779,2.9779,2.9779,2.9779,2.9779,2.9779,2.9779,2.9779,2.9779,2.9779,2.9779,2.9779,2.9779,2.9779,2.9779,2.9779,3.0011,3.0368,3.0748,3.1532,3.2688,3.427,3.5662,3.691,3.8084,3.8914,3.9373,3.9403,3.9403,3.9403,3.9403,3.9403,3.9403,3.9403,3.9403,3.9403,3.9403,3.9403,3.9403,3.9403,3.9403,3.9403,3.9403,3.9403,3.9649,3.9433,3.9469,3.9738,4.0068,4.0636,4.1474,4.2021,4.256,4.303,4.329,4.329,4.329,4.329,4.3738,4.4616,4.5244,4.5753,4.6471,4.71,4.7309,4.7309,4.7309,4.7309,1.1815,1.2434,1.2768,1.3372,1.4248,1.5048,1.5932,1.6823,1.7721,1.8496,1.9192,1.9685,2.0078,2.0372,2.0527,2.0605,2.0605,2.0605,2.0605,2.0605,2.0605,2.1094,2.1855,2.2246,2.2621,2.3114,2.3276,2.345,2.3904,2.4206,2.4615,2.5253,2.5843,2.6509,2.7185,2.7794,2.8315,2.8816,2.9184,2.9457,2.956,2.9702,2.9779,2.9779,2.9779,2.9779,2.9779,2.9779,2.9779,2.9779,2.9779,2.9779,2.9779,2.9779,2.9779,2.9779,2.9779,2.9779,2.9779,2.9779,2.9779,2.9779,2.9779,2.9972,3.0368,3.0785,3.1611,3.2959,3.4381,3.5776,3.7113,3.8194,3.8914,3.9337,3.9403,3.9403,3.9403,3.9403,3.9403,3.9403,3.9403,3.9403,3.9403,3.9403,3.9403,3.9403,3.9403,3.9403,3.9403,3.9403,3.9403,3.9403,3.9403,3.9403,3.9403,3.9709,4.0038,4.0876,4.1752,4.2402,4.3021,4.323,4.329,4.329,4.329,4.3917,4.4736,4.5095,4.5603,4.6441,4.7309,4.7309,4.7309,4.7309,4.7309,1.212,1.2382,1.2825,1.3417,1.4168,1.5193,1.6111,1.7069,1.8127,1.9,1.9571,2.0001,2.0372,2.0566,2.0605,2.0605,2.0605,2.0605,2.0605,2.0605,2.0664,2.1075,2.1875,2.2637,2.3114,2.3387,2.345,2.3817,2.4378,2.455,2.4999,2.5843,2.6321,2.6958,2.773,2.8299,2.8776,2.9223,2.9419,2.956,2.974,2.9779,2.9779,2.9779,2.9779,2.9779,2.9779,2.9779,2.9779,2.9779,2.9779,2.9779,2.9779,2.9779,2.9779,2.9779,2.9779,2.9779,2.9779,2.9779,2.9779,2.9779,2.9818,2.9997,3.0509,3.1081,3.1909,3.337,3.465,3.5963,3.7266,3.826,3.895,3.9301,3.9403,3.9403,3.9403,3.9403,3.9403,3.9403,3.9403,3.9403,3.9403,3.9403,3.9403,3.9403,3.9403,3.9403,3.9403,3.9403,3.9403,3.9403,3.9403,3.9403,3.9403,3.9828,4.0187,4.0935,4.1752,4.2432,4.2991,4.32,4.329,4.329,4.3529,4.4197,4.4796,4.5244,4.5903,4.683,4.7279,4.7309,4.7309,4.7309,4.7309,1.2342,1.2576,1.3138,1.3778,1.4539,1.5396,1.6363,1.7395,1.8321,1.9044,1.9621,2.01,2.0411,2.0605,2.0605,2.0605,2.0605,2.0605,2.0605,2.0605,2.0605,2.1114,2.1914,2.2734,2.3276,2.3493,2.358,2.3861,2.4507,2.4871,2.5485,2.6321,2.6816,2.7429,2.8259,2.8618,2.8949,2.9341,2.9599,2.9702,2.9779,2.9779,2.9779,2.9779,2.9779,2.9779,2.9779,2.9779,2.9779,2.9779,2.9779,2.9779,2.9779,2.9779,2.9779,2.9779,2.9779,2.9779,2.9779,2.9779,2.9779,2.9818,2.9984,3.0381,3.1255,3.1792,3.2955,3.4541,3.578,3.6802,3.7973,3.8679,3.9126,3.9337,3.9403,3.9403,3.9403,3.9403,3.9403,3.9403,3.9403,3.9403,3.9403,3.9403,3.9403,3.9403,3.9403,3.9403,3.9403,3.9403,3.9403,3.9403,3.9403,3.9403,3.9523,3.9948,4.0457,4.1175,4.1863,4.2551,4.303,4.326,4.329,4.329,4.3738,4.4347,4.5065,4.5663,4.6471,4.716,4.7279,4.7309,4.7309,4.7309,4.7309,1.2599,1.2907,1.3404,1.4055,1.4804,1.5646,1.6547,1.7473,1.8505,1.9164,1.964,2.0198,2.0489,2.0605,2.0605,2.0605,2.0605,2.0605,2.0605,2.0683,2.1016,2.1507,2.2136,2.2863,2.3493,2.3884,2.3927,2.4401,2.5041,2.5443,2.603,2.6775,2.7348,2.7955,2.8578,2.891,2.9248,2.9521,2.974,2.9779,2.9779,2.9779,2.9779,2.9779,2.9779,2.9779,2.9779,2.9779,2.9779,2.9779,2.9779,2.9779,2.9779,2.9779,2.9779,2.9779,2.9779,2.9779,2.9779,2.9779,2.9779,2.9868,3.0149,3.0803,3.1539,3.2328,3.3634,3.5206,3.6212,3.723,3.8281,3.8936,3.9228,3.9373,3.9403,3.9403,3.9403,3.9403,3.9403,3.9403,3.9403,3.9403,3.9403,3.9403,3.9403,3.9403,3.9403,3.9403,3.9403,3.9403,3.9433,3.9463,3.9582,3.9679,3.9888,4.0277,4.0965,4.1654,4.2222,4.2851,4.306,4.329,4.329,4.3439,4.3988,4.4526,4.5185,4.5843,4.6531,4.701,4.7189,4.7309,4.7309,4.7309,4.7309,1.2856,1.3273,1.3695,1.4294,1.5004,1.5897,1.6613,1.737,1.8527,1.9278,1.9639,2.0216,2.0488,2.0605,2.0605,2.0605,2.0605,2.0605,2.0605,2.084,2.1271,2.1861,2.2325,2.3054,2.3777,2.4315,2.4487,2.5041,2.5675,2.6113,2.6652,2.7307,2.7914,2.8419,2.8831,2.9223,2.9521,2.9702,2.9779,2.9779,2.9779,2.9779,2.9779,2.9779,2.9779,2.9779,2.9779,2.9779,2.9779,2.9779,2.9779,2.9779,2.9779,2.9779,2.9779,2.9779,2.9779,2.9779,2.9779,2.9779,2.9854,3.0019,3.0593,3.1238,3.1954,3.296,3.4182,3.572,3.6401,3.7494,3.8465,3.9119,3.9337,3.9403,3.9403,3.9403,3.9403,3.9403,3.9403,3.9403,3.9403,3.9403,3.9403,3.9403,3.9403,3.9403,3.9403,3.9403,3.9493,3.9612,3.9679,3.9709,3.9828,3.9978,4.0307,4.0666,4.1474,4.2222,4.2731,4.314,4.314,4.329,4.329,4.3529,4.4167,4.4676,4.5185,4.5843,4.6621,4.698,4.7249,4.7309,4.7309,4.7309,4.7309,1.309,1.3492,1.4057,1.4597,1.5204,1.598,1.6651,1.7302,1.8197,1.8925,1.9399,1.9845,2.0254,2.0586,2.0586,2.0605,2.0605,2.0605,2.0605,2.0683,2.1094,2.1826,2.2469,2.3185,2.3844,2.4444,2.4743,2.5274,2.603,2.6674,2.7208,2.7914,2.8299,2.8736,2.9184,2.9341,2.9496,2.974,2.9779,2.9779,2.9779,2.9779,2.9779,2.9779,2.9779,2.9779,2.9779,2.9779,2.9779,2.9779,2.9779,2.9779,2.9779,2.9779,2.9779,2.9779,2.9779,2.9779,2.9779,2.9804,2.998,3.0396,3.0913,3.1717,3.3117,3.3966,3.5131,3.642,3.7396,3.8177,3.8987,3.9265,3.9373,3.9403,3.9403,3.9403,3.9403,3.9403,3.9403,3.9403,3.9403,3.9403,3.9403,3.9403,3.9403,3.9403,3.9403,3.9403,3.9612,3.9888,4.0068,4.0187,4.0397,4.0636,4.1055,4.1414,4.2073,4.2611,4.3021,4.329,4.329,4.329,4.329,4.3738,4.4407,4.4885,4.5274,4.6262,4.713,4.7249,4.7309,4.7309,4.7309,4.7309,4.7309,1.3346,1.3855,1.4489,1.5133,1.5771,1.6438,1.6994,1.7483,1.8177,1.8663,1.9065,1.9609,2.0039,2.0312,2.0507,2.0605,2.0605,2.0605,2.0605,2.0703,2.1016,2.1609,2.2291,2.316,2.3984,2.4851,2.5359,2.5988,2.6734,2.7267,2.7834,2.8435,2.8776,2.9067,2.938,2.9496,2.9663,2.974,2.9779,2.9779,2.9779,2.9779,2.9779,2.9779,2.9779,2.9779,2.9779,2.9779,2.9779,2.9779,2.9779,2.9779,2.9779,2.9779,2.9779,2.9779,2.9779,2.9779,2.9779,2.9804,3.003,3.0583,3.1207,3.2275,3.3499,3.4594,3.5754,3.6827,3.7682,3.8501,3.9265,3.9403,3.9403,3.9403,3.9403,3.9403,3.9403,3.9403,3.9403,3.9403,3.9403,3.9403,3.9403,3.9403,3.9433,3.9433,3.9948,3.9948,4.0157,4.0427,4.0726,4.0905,4.1153,4.1452,4.1871,4.2252,4.2731,4.306,4.317,4.329,4.329,4.329,4.329,4.3798,4.4347,4.4945,4.5484,4.6531,4.7279,4.7309,4.7309,4.7309,4.7309,4.7309,4.7309,1.3659,1.4274,1.4955,1.5665,1.6368,1.6925,1.7373,1.7739,1.8275,1.852,1.8715,1.9434,1.9707,1.998,2.0273,2.0507,2.0605,2.0605,2.0605,2.0664,2.0898,2.1431,2.205,2.3002,2.4117,2.5398,2.5902,2.6629,2.7389,2.7995,2.8379,2.887,2.9184,2.938,2.9521,2.9663,2.9779,2.9779,2.9779,2.9779,2.9779,2.9779,2.9779,2.9779,2.9779,2.9779,2.9779,2.9779,2.9779,2.9779,2.9779,2.9779,2.9779,2.9779,2.9779,2.9779,2.9779,2.9779,2.9779,2.9829,3.0055,3.0698,3.1567,3.2665,3.3857,3.5036,3.6093,3.7039,3.7901,3.8686,3.9301,3.9403,3.9403,3.9403,3.9403,3.9403,3.9403,3.9403,3.9403,3.9403,3.9403,3.9403,3.9403,3.9403,3.9433,3.9619,4.0127,4.0516,4.0726,4.0995,4.1354,4.1683,4.1923,4.2132,4.2521,4.2611,4.311,4.32,4.329,4.329,4.329,4.329,4.3349,4.3648,4.4167,4.4855,4.5633,4.6501,4.704,4.7219,4.7309,4.7309,4.7309,4.7309,4.7309,1.4114,1.4796,1.524,1.5877,1.6577,1.7028,1.7407,1.7716,1.8003,1.8286,1.8598,1.8773,1.9297,1.9746,1.9961,2.0215,2.0546,2.0605,2.0605,2.0605,2.0762,2.1135,2.1929,2.2816,2.3985,2.515,2.6054,2.6912,2.7713,2.8219,2.8776,2.9184,2.938,2.9521,2.9663,2.9804,2.9779,2.9779,2.9779,2.9779,2.9779,2.9779,2.9779,2.9779,2.9779,2.9779,2.9779,2.9779,2.9779,2.9779,2.9779,2.9779,2.9779,2.9779,2.9779,2.9779,2.9779,2.9779,2.9779,2.9829,3.045,3.1345,3.2074,3.3181,3.4498,3.5641,3.652,3.7481,3.8315,3.9083,3.9337,3.9403,3.9403,3.9403,3.9403,3.9403,3.9403,3.9403,3.9433,3.9559,3.9463,3.9463,3.9553,3.9709,3.9888,4.0157,4.0636,4.1025,4.1265,4.1722,4.2171,4.2432,4.2731,4.294,4.318,4.311,4.326,4.326,4.329,4.329,4.329,4.329,4.3439,4.3768,4.4347,4.5095,4.5843,4.6591,4.698,4.7279,4.7309,4.7309,4.7309,4.7309,4.7309,1.4241,1.4959,1.5615,1.6298,1.689,1.7304,1.7613,1.7837,1.794,1.8091,1.8305,1.85,1.8812,1.926,1.9785,2.0156,2.0507,2.0605,2.0605,2.0605,2.0741,2.1053,2.1783,2.2683,2.3877,2.5112,2.6142,2.718,2.8131,2.8618,2.9052,2.9507,2.9599,2.9663,2.974,2.9779,2.9779,2.9779,2.9779,2.9779,2.9779,2.9779,2.9779,2.9779,2.9779,2.9779,2.9779,2.9779,2.9779,2.9779,2.9779,2.9779,2.9779,2.9779,2.9779,2.9779,2.9779,2.9779,2.9854,3.003,3.0727,3.165,3.2386,3.3483,3.4807,3.5843,3.6872,3.7901,3.8575,3.9192,3.9373,3.9403,3.9403,3.9403,3.9403,3.9433,3.9403,3.9433,3.9649,3.9828,3.9679,3.9738,3.9978,4.0127,4.0337,4.0696,4.1183,4.1542,4.1871,4.2282,4.2731,4.288,4.309,4.315,4.329,4.329,4.329,4.329,4.3319,4.3319,4.3469,4.3559,4.3708,4.3977,4.4646,4.5424,4.6022,4.6741,4.704,4.7309,4.7309,4.7309,4.7309,4.7309,4.7309,1.4305,1.5019,1.5841,1.6551,1.7173,1.7479,1.7741,1.7954,1.8008,1.8008,1.8047,1.8305,1.852,1.8831,1.9492,2.0098,2.0449,2.0527,2.0605,2.0644,2.078,2.1109,2.1673,2.2622,2.3811,2.51,2.6227,2.7403,2.8402,2.8855,2.9312,2.9624,2.9779,2.9779,2.9779,2.9779,2.9779,2.9779,2.9779,2.9779,2.9779,2.9779,2.9779,2.9779,2.9779,2.9779,2.9779,2.9779,2.9779,2.9779,2.9779,2.9779,2.9779,2.9779,2.9779,2.9779,2.9779,2.9779,2.9905,3.036,3.1023,3.1928,3.2872,3.3989,3.5251,3.6401,3.7376,3.8389,3.8973,3.9228,3.9373,3.9403,3.9493,3.9649,3.9679,3.9709,3.9918,4.0068,4.0277,4.0247,3.9978,4.0157,4.0546,4.0666,4.0876,4.1362,4.1811,4.2132,4.2462,4.2791,4.311,4.317,4.326,4.326,4.329,4.329,4.329,4.329,4.3349,4.3379,4.3648,4.3928,4.4227,4.4616,4.5125,4.5843,4.6381,4.68,4.713,4.7309,4.7309,4.7309,4.7309,4.7309,4.7309,1.4545,1.5103,1.558,1.629,1.7039,1.7177,1.7508,1.7969,1.7988,1.8008,1.8008,1.8086,1.8286,1.8734,1.9455,1.9902,2.0098,2.041,2.0605,2.0664,2.0858,2.1167,2.165,2.2583,2.3885,2.5205,2.6316,2.7498,2.8536,2.9013,2.9351,2.9702,2.9779,2.9779,2.9779,2.9779,2.9779,2.9779,2.9779,2.9779,2.9779,2.9779,2.9779,2.9779,2.9779,2.9779,2.9779,2.9779,2.9779,2.9779,2.9779,2.9779,2.9779,2.9779,2.9779,2.9779,2.9779,2.9779,2.9969,3.0539,3.1374,3.2352,3.3434,3.47,3.5983,3.726,3.8277,3.8907,3.9228,3.9427,3.9493,3.9463,3.9738,4.0068,4.0277,4.0576,4.0846,4.0636,4.0846,4.1115,4.0965,4.1085,4.1384,4.1452,4.1512,4.1991,4.241,4.2701,4.297,4.317,4.329,4.329,4.329,4.329,4.329,4.329,4.3319,4.3319,4.3469,4.3559,4.3917,4.4407,4.5065,4.5484,4.5933,4.6172,4.6518,4.692,4.7219,4.7309,4.7309,4.7309,4.7309,4.7309,4.7309,1.4693,1.5147,1.5734,1.6241,1.6722,1.7083,1.7414,1.7642,1.791,1.8008,1.8008,1.8008,1.8208,1.8676,1.9297,1.9687,1.9961,2.041,2.0683,2.078,2.1012,2.1359,2.2015,2.2986,2.4194,2.5461,2.6628,2.7774,2.8645,2.9091,2.9351,2.974,2.9779,2.9779,2.9779,2.9779,2.9779,2.9779,2.9779,2.9779,2.9779,2.9779,2.9779,2.9779,2.9779,2.9779,2.9779,2.9779,2.9779,2.9779,2.9779,2.9779,2.9779,2.9779,2.9779,2.9779,2.9779,2.993,3.0321,3.0998,3.184,3.2875,3.4045,3.5358,3.6805,3.7901,3.8649,3.9083,3.9265,3.9553,3.9888,3.9978,4.0367,4.0696,4.0935,4.1145,4.1384,4.1392,4.1392,4.1722,4.1991,4.2043,4.2073,4.2081,4.2162,4.2551,4.2821,4.3,4.311,4.323,4.329,4.329,4.329,4.329,4.329,4.329,4.3319,4.3409,4.3858,4.4007,4.4336,4.4855,4.5574,4.6142,4.6531,4.6741,4.6817,4.701,4.7279,4.7309,4.7309,4.7309,4.7309,4.7309,4.7429,1.4851,1.5167,1.5732,1.609,1.6343,1.685,1.722,1.7455,1.7695,1.791,1.7988,1.8027,1.8169,1.8539,1.9023,1.9492,1.9785,2.0351,2.0702,2.0896,2.1205,2.1627,2.2362,2.3368,2.4655,2.5985,2.6939,2.8047,2.8841,2.9209,2.9404,2.9779,2.9779,2.9779,2.9779,2.9779,2.9779,2.9779,2.9779,2.9779,2.9779,2.9779,2.9779,2.9779,2.9779,2.9779,2.9779,2.9779,2.9779,2.9779,2.9779,2.9779,2.9779,2.9779,2.9779,2.9829,2.993,3.0346,3.0907,3.1563,3.2412,3.3523,3.4915,3.6425,3.7529,3.8344,3.8937,3.946,3.9629,4.0068,4.0457,4.0636,4.0995,4.1392,4.1662,4.1713,4.1833,4.1953,4.2132,4.2402,4.2671,4.2791,4.2791,4.2731,4.288,4.317,4.329,4.329,4.329,4.329,4.329,4.329,4.329,4.329,4.329,4.3319,4.3349,4.3618,4.4077,4.4616,4.5035,4.5514,4.6112,4.6621,4.701,4.71,4.71,4.7219,4.7309,4.7309,4.7309,4.7309,4.7309,4.7309,4.7668,1.5156,1.5195,1.5252,1.5602,1.6113,1.6163,1.6672,1.7266,1.7402,1.7676,1.7988,1.8008,1.8047,1.8281,1.8887,1.9316,1.9394,2.0233,2.0663,2.1012,2.132,2.1818,2.2611,2.3715,2.5044,2.6268,2.732,2.8354,2.91,2.938,2.956,2.974,2.9779,2.9779,2.9779,2.9779,2.9779,2.9779,2.9779,2.9779,2.9779,2.9779,2.9779,2.9779,2.9779,2.9779,2.9779,2.9779,2.9779,2.9779,2.9779,2.9779,2.9779,2.9779,2.9779,2.9854,3.0231,3.0777,3.1458,3.21,3.2986,3.4326,3.5896,3.7404,3.8194,3.8723,3.9393,4.0054,4.0091,4.0576,4.1025,4.1384,4.1692,4.2043,4.2342,4.2462,4.2611,4.2781,4.2961,4.314,4.32,4.317,4.317,4.306,4.303,4.326,4.329,4.329,4.329,4.329,4.329,4.329,4.329,4.329,4.329,4.3379,4.3618,4.4037,4.4485,4.5214,4.5831,4.6352,4.6681,4.689,4.7219,4.7279,4.7309,4.7309,4.7309,4.7309,4.7309,4.7309,4.7309,4.7309,4.7967,1.5274,1.5313,1.5342,1.5449,1.5713,1.5968,1.6281,1.6672,1.7181,1.7617,1.8008,1.8008,1.8008,1.8242,1.8848,1.9277,1.9451,2.0348,2.0797,2.1167,2.1512,2.2025,2.288,2.406,2.5371,2.65,2.7642,2.8641,2.9291,2.9521,2.9663,2.9804,2.9779,2.9779,2.9779,2.9779,2.9779,2.9779,2.9779,2.9779,2.9779,2.9779,2.9779,2.9779,2.9779,2.9779,2.9779,2.9779,2.9779,2.9779,2.9779,2.9779,2.9779,2.9779,2.9779,2.9854,3.0357,3.1084,3.1913,3.2625,3.3673,3.5353,3.6799,3.7891,3.8493,3.89,3.9483,4.0054,4.0487,4.0935,4.1841,4.2051,4.2261,4.2731,4.3,4.309,4.314,4.326,4.329,4.326,4.329,4.326,4.326,4.326,4.326,4.329,4.329,4.329,4.329,4.329,4.329,4.3379,4.3409,4.3439,4.3439,4.3678,4.3977,4.4485,4.4964,4.5693,4.6381,4.68,4.71,4.7279,4.7309,4.7309,4.7309,4.7309,4.7309,4.7309,4.7309,4.7309,4.7309,4.7339,4.8117,1.5313,1.541,1.541,1.541,1.5449,1.5742,1.5987,1.6222,1.6887,1.7519,1.7988,1.8008,1.8008,1.8242,1.8887,1.9277,1.9585,2.0307,2.0913,2.132,2.1665,2.2214,2.3178,2.4384,2.58,2.6771,2.8028,2.9106,2.956,2.9702,2.9779,2.9779,2.9779,2.9779,2.9779,2.9779,2.9779,2.9779,2.9779,2.9779,2.9779,2.9779,2.9779,2.9779,2.9779,2.9779,2.9779,2.9779,2.9779,2.9779,2.9779,2.9779,2.9779,2.9779,2.9779,3.0005,3.0471,3.1251,3.2085,3.3418,3.4674,3.6251,3.7232,3.8014,3.853,3.9121,3.9987,4.0629,4.0905,4.1414,4.256,4.2671,4.2731,4.315,4.314,4.323,4.323,4.329,4.329,4.329,4.329,4.329,4.3319,4.3319,4.3379,4.3349,4.329,4.329,4.329,4.329,4.329,4.3409,4.3559,4.3589,4.3648,4.4157,4.4736,4.5203,4.5681,4.6142,4.6711,4.713,4.7309,4.7309,4.7309,4.7309,4.7309,4.7309,4.7309,4.7309,4.7309,4.7309,4.7429,4.7549,4.8207,1.5381,1.541,1.541,1.541,1.541,1.543,1.5664,1.6065,1.6582,1.7233,1.7949,1.8008,1.8008,1.8184,1.8848,1.918,1.9527,2.0365,2.1011,2.13,2.1873,2.244,2.3523,2.4839,2.6262,2.7162,2.8348,2.9326,2.974,2.9779,2.9779,2.9779,2.9779,2.9779,2.9779,2.9779,2.9779,2.9779,2.9779,2.9779,2.9779,2.9779,2.9779,2.9779,2.9779,2.9779,2.9779,2.9779,2.9779,2.9779,2.9779,2.9779,2.9779,2.9779,2.9804,2.993,3.0809,3.1554,3.2243,3.4365,3.5747,3.6755,3.7558,3.824,3.8841,3.9624,4.0479,4.1055,4.1722,4.2402,4.297,4.32,4.323,4.326,4.329,4.329,4.329,4.329,4.329,4.329,4.329,4.3319,4.3319,4.3379,4.3439,4.3439,4.3349,4.3349,4.3439,4.3678,4.3798,4.3888,4.4137,4.4197,4.4407,4.4915,4.5454,4.5963,4.6381,4.6711,4.692,4.7189,4.7309,4.7309,4.7309,4.7309,4.7309,4.7309,4.7309,4.7309,4.7309,4.7339,4.7489,4.7818,4.8446,1.541,1.541,1.541,1.541,1.541,1.541,1.5508,1.5742,1.6375,1.7174,1.7871,1.8008,1.8008,1.8203,1.8555,1.9023,1.9468,2.0215,2.0881,2.1454,2.2101,2.3091,2.41,2.5317,2.67,2.7728,2.8786,2.9443,2.9779,2.9779,2.9779,2.9779,2.9779,2.9779,2.9779,2.9779,2.9779,2.9779,2.9779,2.9779,2.9779,2.9779,2.9779,2.9779,2.9779,2.9779,2.9779,2.9779,2.9779,2.9779,2.9779,2.9779,2.9779,2.9779,2.9955,3.0306,3.115,3.2133,3.3357,3.5007,3.6044,3.694,3.7711,3.8352,3.8856,3.9817,4.0629,4.1354,4.2073,4.2701,4.311,4.323,4.329,4.329,4.329,4.329,4.329,4.329,4.329,4.329,4.329,4.3618,4.3738,4.3988,4.4047,4.4197,4.4186,4.4007,4.4037,4.4526,4.4796,4.4796,4.4885,4.4945,4.5125,4.5603,4.5903,4.6292,4.6711,4.707,4.7249,4.7309,4.7309,4.7309,4.7309,4.7309,4.7309,4.7309,4.7309,4.7309,4.7399,4.7608,4.7878,4.8207,4.8686,1.5195,1.5215,1.5352,1.541,1.541,1.541,1.5488,1.5742,1.6395,1.7116,1.7715,1.793,1.8008,1.8125,1.8403,1.8831,1.9389,2.0212,2.0933,2.1565,2.2327,2.3285,2.4461,2.5783,2.6885,2.8037,2.8927,2.9521,2.9779,2.9779,2.9779,2.9779,2.9779,2.9779,2.9779,2.9779,2.9779,2.9779,2.9779,2.9779,2.9779,2.9779,2.9779,2.9779,2.9779,2.9779,2.9779,2.9779,2.9779,2.9779,2.9779,2.9779,2.9804,2.9854,3.008,3.0583,3.1661,3.2808,3.4357,3.5386,3.6322,3.7173,3.7863,3.8468,3.918,4.0234,4.1047,4.1752,4.2282,4.2761,4.32,4.329,4.329,4.329,4.329,4.329,4.329,4.329,4.329,4.329,4.3409,4.3768,4.4276,4.4556,4.4736,4.4945,4.5125,4.4945,4.4766,4.5125,4.5484,4.5484,4.5574,4.5633,4.5873,4.6292,4.6531,4.6651,4.695,4.7279,4.7309,4.7309,4.7309,4.7309,4.7309,4.7309,4.7309,4.7309,4.7339,4.7459,4.7608,4.7878,4.8237,4.8656,4.9075,1.4785,1.4872,1.5234,1.5391,1.541,1.541,1.5644,1.6105,1.6523,1.6992,1.7422,1.7852,1.8008,1.8086,1.8383,1.8828,1.9403,2.0189,2.093,2.1635,2.2478,2.3464,2.4665,2.5905,2.7157,2.8125,2.8952,2.9599,2.9779,2.9779,2.9779,2.9779,2.9779,2.9779,2.9779,2.9779,2.9779,2.9779,2.9779,2.9779,2.9779,2.9779,2.9779,2.9779,2.9779,2.9779,2.9779,2.9779,2.9779,2.9779,2.9779,2.9829,2.9829,2.9829,3.0181,3.0943,3.2352,3.3688,3.4817,3.5736,3.6598,3.7366,3.7938,3.8739,3.9652,4.0628,4.1406,4.2102,4.2701,4.303,4.329,4.329,4.329,4.329,4.329,4.329,4.329,4.329,4.329,4.3349,4.3439,4.3828,4.4635,4.5065,4.5454,4.5813,4.5963,4.5933,4.5753,4.5633,4.5903,4.5933,4.6052,4.6279,4.6548,4.683,4.692,4.698,4.707,4.7309,4.7309,4.7309,4.7309,4.7309,4.7309,4.7309,4.7309,4.7339,4.7369,4.7549,4.7848,4.8177,4.8566,4.9075,4.9553,1.4492,1.4785,1.4902,1.5137,1.5391,1.541,1.5694,1.6124,1.6543,1.6973,1.7435,1.7832,1.7969,1.8027,1.811,1.8758,1.9441,2.0151,2.1007,2.1844,2.2718,2.4002,2.5233,2.6396,2.7579,2.8562,2.933,2.9702,2.9779,2.9779,2.9779,2.9779,2.9779,2.9779,2.9779,2.9779,2.9779,2.9779,2.9779,2.9779,2.9779,2.9779,2.9779,2.9779,2.9779,2.9779,2.9779,2.9779,2.9779,2.9779,2.9804,2.9905,3.0382,3.0432,3.0748,3.2,3.3168,3.4225,3.5032,3.5843,3.6716,3.7519,3.8089,3.8956,3.9928,4.0875,4.1752,4.2402,4.294,4.32,4.329,4.329,4.329,4.329,4.329,4.329,4.329,4.329,4.3319,4.3559,4.3648,4.4426,4.5173,4.5753,4.6172,4.6591,4.677,4.6711,4.6621,4.6471,4.6411,4.6411,4.6531,4.677,4.692,4.713,4.7219,4.7279,4.7309,4.7309,4.7309,4.7309,4.7309,4.7309,4.7309,4.7309,4.7309,4.7399,4.7578,4.7878,4.8207,4.8536,4.8925,4.9434,5.0002,1.4016,1.4316,1.4676,1.5019,1.5371,1.541,1.5586,1.5859,1.6269,1.6719,1.7148,1.7559,1.7885,1.809,1.8183,1.8656,1.9555,2.016,2.0975,2.2008,2.301,2.4371,2.5637,2.678,2.7829,2.8825,2.9507,2.9779,2.9779,2.9779,2.9779,2.9779,2.9779,2.9779,2.9779,2.9779,2.9779,2.9779,2.9779,2.9779,2.9779,2.9779,2.9779,2.9779,2.9779,2.9779,2.9779,2.9779,2.9804,2.9854,2.9905,3.0231,3.0733,3.0959,3.1539,3.2673,3.3591,3.45,3.5345,3.6123,3.695,3.7672,3.8344,3.9357,4.0218,4.1197,4.1953,4.2671,4.303,4.329,4.329,4.329,4.329,4.329,4.329,4.329,4.329,4.329,4.3499,4.3768,4.4336,4.5143,4.5843,4.6381,4.677,4.698,4.71,4.71,4.707,4.701,4.695,4.695,4.704,4.7189,4.7309,4.7309,4.7309,4.7309,4.7309,4.7309,4.7309,4.7309,4.7309,4.7309,4.7309,4.7339,4.7399,4.7668,4.7908,4.8267,4.8745,4.9254,4.9553,4.9793,5.0391,1.3522,1.3613,1.4461,1.5,1.5352,1.5391,1.543,1.5469,1.5919,1.6289,1.6746,1.7239,1.777,1.8186,1.8367,1.8845,1.9629,2.0336,2.1182,2.2121,2.3231,2.458,2.5972,2.697,2.8006,2.8864,2.9507,2.9779,2.9779,2.9779,2.9779,2.9779,2.9779,2.9779,2.9779,2.9779,2.9779,2.9779,2.9779,2.9779,2.9779,2.9779,2.9779,2.9779,2.9779,2.9779,2.9779,2.9804,2.9829,3.003,3.0256,3.0557,3.1135,3.1687,3.2415,3.3018,3.3871,3.4692,3.5548,3.6389,3.7222,3.7976,3.8604,3.9535,4.0427,4.1205,4.1893,4.2791,4.323,4.329,4.329,4.329,4.329,4.329,4.329,4.329,4.329,4.3499,4.3888,4.4317,4.5005,4.5783,4.6381,4.689,4.698,4.7249,4.7309,4.7309,4.7309,4.7309,4.7309,4.7309,4.7309,4.7309,4.7309,4.7309,4.7309,4.7309,4.7309,4.7309,4.7309,4.7309,4.7309,4.7309,4.7309,4.7429,4.7549,4.7848,4.8297,4.8835,4.9374,4.9956,5.0255,5.0361,5.0601,1.3372,1.3722,1.4488,1.4891,1.498,1.5273,1.5497,1.5624,1.5732,1.6136,1.6699,1.7298,1.7843,1.8281,1.8563,1.9076,1.9844,2.0729,2.1659,2.2581,2.3578,2.4881,2.6344,2.7085,2.8071,2.9043,2.9624,2.9779,2.9779,2.9779,2.9779,2.9779,2.9779,2.9779,2.9779,2.9779,2.9779,2.9779,2.9779,2.9779,2.9779,2.9779,2.9779,2.9779,2.9779,2.9779,2.9779,2.9779,3.0055,3.0382,3.0468,3.0994,3.1788,3.2491,3.3047,3.3546,3.4043,3.48,3.5629,3.6508,3.7327,3.8014,3.8663,3.9513,4.0278,4.0988,4.1803,4.2761,4.329,4.329,4.329,4.329,4.329,4.329,4.329,4.329,4.3319,4.3768,4.4287,4.4945,4.5603,4.6232,4.683,4.713,4.7249,4.7309,4.7309,4.7309,4.7309,4.7309,4.7309,4.7309,4.7309,4.7309,4.7309,4.7309,4.7309,4.7309,4.7309,4.7309,4.7309,4.7309,4.7309,4.7309,4.7339,4.7608,4.7908,4.8117,4.8626,4.9284,4.9853,5.0375,5.0704,5.087,5.099,1.3355,1.3626,1.4182,1.4644,1.5,1.5209,1.5484,1.5778,1.5836,1.6187,1.6755,1.7224,1.776,1.8367,1.8762,1.9348,2.0172,2.1116,2.1917,2.2818,2.4058,2.519,2.6236,2.7212,2.8013,2.896,2.9538,2.9779,2.9779,2.9779,2.9779,2.9779,2.9779,2.9779,2.9779,2.9779,2.9779,2.9779,2.9779,2.9779,2.9779,2.9779,2.9779,2.9779,2.9779,2.9779,2.9779,2.9804,3.0105,3.0683,3.106,3.1738,3.239,3.2842,3.3275,3.3658,3.4163,3.4744,3.5629,3.6508,3.7327,3.8014,3.8575,3.9336,4.0323,4.1033,4.1722,4.2581,4.317,4.329,4.329,4.329,4.329,4.329,4.329,4.329,4.3469,4.3828,4.4436,4.5095,4.5783,4.6441,4.695,4.7219,4.7309,4.7309,4.7309,4.7309,4.7309,4.7309,4.7309,4.7309,4.7309,4.7309,4.7309,4.7309,4.7309,4.7309,4.7309,4.7339,4.7339,4.7309,4.7309,4.7608,4.7878,4.8117,4.8386,4.8716,4.9164,4.9777,5.0285,5.0764,5.105,5.1229,5.1229,1.3478,1.3467,1.3791,1.4405,1.5109,1.5202,1.5519,1.5968,1.6124,1.6424,1.6876,1.7267,1.7842,1.8402,1.9034,1.964,2.0457,2.1597,2.2343,2.319,2.4413,2.5541,2.6481,2.7299,2.8151,2.8874,2.9501,2.9729,2.9779,2.9779,2.9779,2.9779,2.9779,2.9779,2.9779,2.9779,2.9779,2.9779,2.9779,2.9779,2.9779,2.9779,2.9779,2.9779,2.9779,2.9779,2.9779,2.9955,3.0181,3.0909,3.1687,3.2365,3.2742,3.3061,3.3318,3.3683,3.4147,3.4812,3.5629,3.6508,3.7327,3.8023,3.8509,3.921,4.0166,4.0965,4.1692,4.2192,4.2851,4.329,4.329,4.329,4.329,4.3319,4.3319,4.3409,4.3678,4.4077,4.4736,4.5394,4.6052,4.6741,4.698,4.7249,4.7309,4.7309,4.7309,4.7309,4.7309,4.7309,4.7309,4.7309,4.7309,4.7309,4.7309,4.7309,4.7309,4.7309,4.7309,4.7369,4.7459,4.7608,4.7878,4.8297,4.8536,4.8745,4.9164,4.9583,5.0032,5.0285,5.0614,5.0973,5.1079,5.1229,5.1229,1.3763,1.359,1.3899,1.4456,1.5046,1.5287,1.5779,1.6425,1.6609,1.6786,1.7176,1.7999,1.8621,1.885,1.9609,2.0248,2.0824,2.208,2.2975,2.3762,2.4902,2.5895,2.6744,2.7432,2.845,2.9163,2.9665,2.9754,2.9779,2.9779,2.9779,2.9779,2.9779,2.9779,2.9779,2.9779,2.9779,2.9779,2.9779,2.9779,2.9779,2.9779,2.9779,2.9779,2.9779,2.9779,2.988,3.0256,3.0708,3.1386,3.2215,3.2792,3.3061,3.3111,3.3326,3.3683,3.4147,3.4853,3.5669,3.6508,3.7327,3.8127,3.8575,3.901,3.995,4.0846,4.1384,4.1773,4.2432,4.314,4.329,4.329,4.329,4.3319,4.3349,4.3678,4.4007,4.4676,4.5364,4.5992,4.6591,4.698,4.716,4.7309,4.7309,4.7309,4.7309,4.7309,4.7309,4.7309,4.7309,4.7309,4.7309,4.7309,4.7309,4.7309,4.7309,4.7309,4.7399,4.7608,4.7818,4.8087,4.8386,4.8925,4.9164,4.9344,4.9793,5.0272,5.0511,5.0734,5.099,5.1199,5.1229,5.1349,5.1439]}]]